<?xml version="1.0" encoding="UTF-8" standalone="no" ?>
<gpx xmlns="http://www.topografix.com/GPX/1/1" xmlns:xsi="http://www.w3.org/2001/XMLSchema-instance" xsi:schemaLocation="http://www.topografix.com/GPX/1/1 http://www.topografix.com/GPX/1/1/gpx.xsd" version="1.1" creator="VisuGPX - https://www.visugpx.com">
  <metadata>
    <name>Saugues-Le-Sauvage</name>
    <desc><![CDATA[Chemin de Compostelle 2018-1 : Saugues-Le-Sauvage]]></desc>
  </metadata>
  <trk>
    <name><![CDATA[29 avr. 2018 à 07:53:43]]></name>
    <trkseg>
      <trkpt lat="44.96072" lon="3.54848">
        <ele>966</ele>
        <time>2018-04-29T05:53:44Z</time>
      </trkpt>
      <trkpt lat="44.96071" lon="3.54848">
        <ele>966</ele>
        <time>2018-04-29T05:53:45Z</time>
      </trkpt>
      <trkpt lat="44.96062" lon="3.54851">
        <ele>964</ele>
        <time>2018-04-29T05:53:53Z</time>
      </trkpt>
      <trkpt lat="44.9605" lon="3.54852">
        <ele>965</ele>
        <time>2018-04-29T05:54:03Z</time>
      </trkpt>
      <trkpt lat="44.96045" lon="3.54848">
        <ele>965</ele>
        <time>2018-04-29T05:54:07Z</time>
      </trkpt>
      <trkpt lat="44.9604" lon="3.54844">
        <ele>966</ele>
        <time>2018-04-29T05:54:10Z</time>
      </trkpt>
      <trkpt lat="44.96035" lon="3.54842">
        <ele>966</ele>
        <time>2018-04-29T05:54:14Z</time>
      </trkpt>
      <trkpt lat="44.96026" lon="3.54834">
        <ele>965</ele>
        <time>2018-04-29T05:54:23Z</time>
      </trkpt>
      <trkpt lat="44.96012" lon="3.54823">
        <ele>964</ele>
        <time>2018-04-29T05:54:35Z</time>
      </trkpt>
      <trkpt lat="44.96004" lon="3.54816">
        <ele>964</ele>
        <time>2018-04-29T05:54:43Z</time>
      </trkpt>
      <trkpt lat="44.95995" lon="3.54812">
        <ele>963</ele>
        <time>2018-04-29T05:54:51Z</time>
      </trkpt>
      <trkpt lat="44.9599" lon="3.54808">
        <ele>963</ele>
        <time>2018-04-29T05:54:55Z</time>
      </trkpt>
      <trkpt lat="44.95985" lon="3.54804">
        <ele>963</ele>
        <time>2018-04-29T05:55:00Z</time>
      </trkpt>
      <trkpt lat="44.95975" lon="3.54798">
        <ele>965</ele>
        <time>2018-04-29T05:55:08Z</time>
      </trkpt>
      <trkpt lat="44.95965" lon="3.54792">
        <ele>964</ele>
        <time>2018-04-29T05:55:17Z</time>
      </trkpt>
      <trkpt lat="44.95959" lon="3.54794">
        <ele>964</ele>
        <time>2018-04-29T05:55:26Z</time>
      </trkpt>
      <trkpt lat="44.95956" lon="3.54789">
        <ele>965</ele>
        <time>2018-04-29T05:57:22Z</time>
      </trkpt>
      <trkpt lat="44.95958" lon="3.54783">
        <ele>965</ele>
        <time>2018-04-29T05:57:27Z</time>
      </trkpt>
      <trkpt lat="44.95959" lon="3.54773">
        <ele>965</ele>
        <time>2018-04-29T05:57:34Z</time>
      </trkpt>
      <trkpt lat="44.95956" lon="3.54755">
        <ele>966</ele>
        <time>2018-04-29T05:57:48Z</time>
      </trkpt>
      <trkpt lat="44.95953" lon="3.54726">
        <ele>967</ele>
        <time>2018-04-29T05:58:07Z</time>
      </trkpt>
      <trkpt lat="44.95956" lon="3.54713">
        <ele>967</ele>
        <time>2018-04-29T05:58:16Z</time>
      </trkpt>
      <trkpt lat="44.95957" lon="3.54706">
        <ele>967</ele>
        <time>2018-04-29T05:58:21Z</time>
      </trkpt>
      <trkpt lat="44.9596" lon="3.54699">
        <ele>967</ele>
        <time>2018-04-29T05:58:25Z</time>
      </trkpt>
      <trkpt lat="44.95961" lon="3.54692">
        <ele>967</ele>
        <time>2018-04-29T05:58:29Z</time>
      </trkpt>
      <trkpt lat="44.95963" lon="3.54686">
        <ele>967</ele>
        <time>2018-04-29T05:58:33Z</time>
      </trkpt>
      <trkpt lat="44.95963" lon="3.54679">
        <ele>966</ele>
        <time>2018-04-29T05:58:38Z</time>
      </trkpt>
      <trkpt lat="44.95965" lon="3.54672">
        <ele>966</ele>
        <time>2018-04-29T05:58:43Z</time>
      </trkpt>
      <trkpt lat="44.95966" lon="3.54665">
        <ele>965</ele>
        <time>2018-04-29T05:58:48Z</time>
      </trkpt>
      <trkpt lat="44.95968" lon="3.54659">
        <ele>965</ele>
        <time>2018-04-29T05:58:52Z</time>
      </trkpt>
      <trkpt lat="44.95968" lon="3.54651">
        <ele>965</ele>
        <time>2018-04-29T05:58:57Z</time>
      </trkpt>
      <trkpt lat="44.95967" lon="3.54644">
        <ele>965</ele>
        <time>2018-04-29T05:59:02Z</time>
      </trkpt>
      <trkpt lat="44.95968" lon="3.54637">
        <ele>964</ele>
        <time>2018-04-29T05:59:07Z</time>
      </trkpt>
      <trkpt lat="44.95969" lon="3.54631">
        <ele>964</ele>
        <time>2018-04-29T05:59:11Z</time>
      </trkpt>
      <trkpt lat="44.95966" lon="3.54616">
        <ele>964</ele>
        <time>2018-04-29T05:59:20Z</time>
      </trkpt>
      <trkpt lat="44.95964" lon="3.54611">
        <ele>965</ele>
        <time>2018-04-29T05:59:23Z</time>
      </trkpt>
      <trkpt lat="44.9596" lon="3.54606">
        <ele>965</ele>
        <time>2018-04-29T05:59:26Z</time>
      </trkpt>
      <trkpt lat="44.95955" lon="3.54603">
        <ele>964</ele>
        <time>2018-04-29T05:59:29Z</time>
      </trkpt>
      <trkpt lat="44.95951" lon="3.546">
        <ele>965</ele>
        <time>2018-04-29T05:59:32Z</time>
      </trkpt>
      <trkpt lat="44.95926" lon="3.54573">
        <ele>961</ele>
        <time>2018-04-29T05:59:57Z</time>
      </trkpt>
      <trkpt lat="44.95921" lon="3.54571">
        <ele>961</ele>
        <time>2018-04-29T06:00:02Z</time>
      </trkpt>
      <trkpt lat="44.95913" lon="3.54555">
        <ele>960</ele>
        <time>2018-04-29T06:00:18Z</time>
      </trkpt>
      <trkpt lat="44.95906" lon="3.54546">
        <ele>960</ele>
        <time>2018-04-29T06:00:26Z</time>
      </trkpt>
      <trkpt lat="44.95903" lon="3.54537">
        <ele>958</ele>
        <time>2018-04-29T06:00:54Z</time>
      </trkpt>
      <trkpt lat="44.95892" lon="3.54505">
        <ele>958</ele>
        <time>2018-04-29T06:01:27Z</time>
      </trkpt>
      <trkpt lat="44.95891" lon="3.54491">
        <ele>958</ele>
        <time>2018-04-29T06:01:36Z</time>
      </trkpt>
      <trkpt lat="44.9589" lon="3.54464">
        <ele>957</ele>
        <time>2018-04-29T06:01:52Z</time>
      </trkpt>
      <trkpt lat="44.95888" lon="3.5445">
        <ele>956</ele>
        <time>2018-04-29T06:02:01Z</time>
      </trkpt>
      <trkpt lat="44.95881" lon="3.5444">
        <ele>956</ele>
        <time>2018-04-29T06:02:09Z</time>
      </trkpt>
      <trkpt lat="44.95871" lon="3.54435">
        <ele>955</ele>
        <time>2018-04-29T06:02:17Z</time>
      </trkpt>
      <trkpt lat="44.95854" lon="3.5441">
        <ele>956</ele>
        <time>2018-04-29T06:02:35Z</time>
      </trkpt>
      <trkpt lat="44.9585" lon="3.54406">
        <ele>956</ele>
        <time>2018-04-29T06:02:38Z</time>
      </trkpt>
      <trkpt lat="44.95846" lon="3.54402">
        <ele>955</ele>
        <time>2018-04-29T06:02:42Z</time>
      </trkpt>
      <trkpt lat="44.95843" lon="3.54396">
        <ele>953</ele>
        <time>2018-04-29T06:02:47Z</time>
      </trkpt>
      <trkpt lat="44.95841" lon="3.54389">
        <ele>953</ele>
        <time>2018-04-29T06:02:51Z</time>
      </trkpt>
      <trkpt lat="44.95838" lon="3.54384">
        <ele>952</ele>
        <time>2018-04-29T06:02:55Z</time>
      </trkpt>
      <trkpt lat="44.9583" lon="3.54373">
        <ele>953</ele>
        <time>2018-04-29T06:03:03Z</time>
      </trkpt>
      <trkpt lat="44.95826" lon="3.54362">
        <ele>952</ele>
        <time>2018-04-29T06:03:12Z</time>
      </trkpt>
      <trkpt lat="44.95825" lon="3.54355">
        <ele>951</ele>
        <time>2018-04-29T06:03:15Z</time>
      </trkpt>
      <trkpt lat="44.95821" lon="3.54342">
        <ele>951</ele>
        <time>2018-04-29T06:03:23Z</time>
      </trkpt>
      <trkpt lat="44.95817" lon="3.5433">
        <ele>950</ele>
        <time>2018-04-29T06:03:32Z</time>
      </trkpt>
      <trkpt lat="44.95815" lon="3.54322">
        <ele>951</ele>
        <time>2018-04-29T06:03:37Z</time>
      </trkpt>
      <trkpt lat="44.95812" lon="3.54316">
        <ele>950</ele>
        <time>2018-04-29T06:03:41Z</time>
      </trkpt>
      <trkpt lat="44.9581" lon="3.54311">
        <ele>950</ele>
        <time>2018-04-29T06:03:45Z</time>
      </trkpt>
      <trkpt lat="44.95807" lon="3.54305">
        <ele>950</ele>
        <time>2018-04-29T06:03:50Z</time>
      </trkpt>
      <trkpt lat="44.95802" lon="3.54301">
        <ele>951</ele>
        <time>2018-04-29T06:03:55Z</time>
      </trkpt>
      <trkpt lat="44.95795" lon="3.54291">
        <ele>948</ele>
        <time>2018-04-29T06:04:03Z</time>
      </trkpt>
      <trkpt lat="44.95792" lon="3.54285">
        <ele>948</ele>
        <time>2018-04-29T06:04:07Z</time>
      </trkpt>
      <trkpt lat="44.9579" lon="3.54279">
        <ele>948</ele>
        <time>2018-04-29T06:04:11Z</time>
      </trkpt>
      <trkpt lat="44.95787" lon="3.54273">
        <ele>948</ele>
        <time>2018-04-29T06:04:15Z</time>
      </trkpt>
      <trkpt lat="44.95784" lon="3.54267">
        <ele>947</ele>
        <time>2018-04-29T06:04:19Z</time>
      </trkpt>
      <trkpt lat="44.95781" lon="3.54261">
        <ele>947</ele>
        <time>2018-04-29T06:04:23Z</time>
      </trkpt>
      <trkpt lat="44.95772" lon="3.54254">
        <ele>947</ele>
        <time>2018-04-29T06:04:31Z</time>
      </trkpt>
      <trkpt lat="44.95764" lon="3.54249">
        <ele>946</ele>
        <time>2018-04-29T06:04:39Z</time>
      </trkpt>
      <trkpt lat="44.9576" lon="3.54245">
        <ele>946</ele>
        <time>2018-04-29T06:04:43Z</time>
      </trkpt>
      <trkpt lat="44.95752" lon="3.54235">
        <ele>945</ele>
        <time>2018-04-29T06:04:52Z</time>
      </trkpt>
      <trkpt lat="44.95748" lon="3.54232">
        <ele>945</ele>
        <time>2018-04-29T06:04:56Z</time>
      </trkpt>
      <trkpt lat="44.95744" lon="3.54228">
        <ele>944</ele>
        <time>2018-04-29T06:05:00Z</time>
      </trkpt>
      <trkpt lat="44.95734" lon="3.54223">
        <ele>944</ele>
        <time>2018-04-29T06:05:09Z</time>
      </trkpt>
      <trkpt lat="44.95698" lon="3.54203">
        <ele>940</ele>
        <time>2018-04-29T06:05:42Z</time>
      </trkpt>
      <trkpt lat="44.95693" lon="3.54199">
        <ele>940</ele>
        <time>2018-04-29T06:05:47Z</time>
      </trkpt>
      <trkpt lat="44.95689" lon="3.54195">
        <ele>940</ele>
        <time>2018-04-29T06:05:51Z</time>
      </trkpt>
      <trkpt lat="44.9568" lon="3.54187">
        <ele>939</ele>
        <time>2018-04-29T06:06:01Z</time>
      </trkpt>
      <trkpt lat="44.95675" lon="3.54184">
        <ele>939</ele>
        <time>2018-04-29T06:06:05Z</time>
      </trkpt>
      <trkpt lat="44.95665" lon="3.54184">
        <ele>938</ele>
        <time>2018-04-29T06:06:12Z</time>
      </trkpt>
      <trkpt lat="44.9566" lon="3.54182">
        <ele>938</ele>
        <time>2018-04-29T06:06:16Z</time>
      </trkpt>
      <trkpt lat="44.95654" lon="3.54182">
        <ele>938</ele>
        <time>2018-04-29T06:06:20Z</time>
      </trkpt>
      <trkpt lat="44.95649" lon="3.5418">
        <ele>939</ele>
        <time>2018-04-29T06:06:24Z</time>
      </trkpt>
      <trkpt lat="44.95645" lon="3.54178">
        <ele>938</ele>
        <time>2018-04-29T06:06:28Z</time>
      </trkpt>
      <trkpt lat="44.95641" lon="3.54174">
        <ele>938</ele>
        <time>2018-04-29T06:06:32Z</time>
      </trkpt>
      <trkpt lat="44.95634" lon="3.54164">
        <ele>937</ele>
        <time>2018-04-29T06:06:41Z</time>
      </trkpt>
      <trkpt lat="44.95628" lon="3.54151">
        <ele>937</ele>
        <time>2018-04-29T06:06:50Z</time>
      </trkpt>
      <trkpt lat="44.95626" lon="3.54145">
        <ele>937</ele>
        <time>2018-04-29T06:06:54Z</time>
      </trkpt>
      <trkpt lat="44.95626" lon="3.54138">
        <ele>936</ele>
        <time>2018-04-29T06:06:58Z</time>
      </trkpt>
      <trkpt lat="44.95631" lon="3.54124">
        <ele>935</ele>
        <time>2018-04-29T06:07:06Z</time>
      </trkpt>
      <trkpt lat="44.95631" lon="3.54117">
        <ele>935</ele>
        <time>2018-04-29T06:07:10Z</time>
      </trkpt>
      <trkpt lat="44.9563" lon="3.54103">
        <ele>935</ele>
        <time>2018-04-29T06:07:19Z</time>
      </trkpt>
      <trkpt lat="44.95625" lon="3.54095">
        <ele>935</ele>
        <time>2018-04-29T06:07:27Z</time>
      </trkpt>
      <trkpt lat="44.9562" lon="3.54091">
        <ele>936</ele>
        <time>2018-04-29T06:07:34Z</time>
      </trkpt>
      <trkpt lat="44.95617" lon="3.54085">
        <ele>937</ele>
        <time>2018-04-29T06:07:58Z</time>
      </trkpt>
      <trkpt lat="44.95612" lon="3.54083">
        <ele>938</ele>
        <time>2018-04-29T06:08:08Z</time>
      </trkpt>
      <trkpt lat="44.95609" lon="3.54075">
        <ele>937</ele>
        <time>2018-04-29T06:08:22Z</time>
      </trkpt>
      <trkpt lat="44.95605" lon="3.5407">
        <ele>937</ele>
        <time>2018-04-29T06:08:26Z</time>
      </trkpt>
      <trkpt lat="44.95602" lon="3.54065">
        <ele>938</ele>
        <time>2018-04-29T06:08:30Z</time>
      </trkpt>
      <trkpt lat="44.95596" lon="3.54053">
        <ele>938</ele>
        <time>2018-04-29T06:08:39Z</time>
      </trkpt>
      <trkpt lat="44.95595" lon="3.54046">
        <ele>938</ele>
        <time>2018-04-29T06:08:43Z</time>
      </trkpt>
      <trkpt lat="44.95595" lon="3.5404">
        <ele>938</ele>
        <time>2018-04-29T06:08:47Z</time>
      </trkpt>
      <trkpt lat="44.95594" lon="3.54033">
        <ele>938</ele>
        <time>2018-04-29T06:08:51Z</time>
      </trkpt>
      <trkpt lat="44.95589" lon="3.54011">
        <ele>938</ele>
        <time>2018-04-29T06:09:07Z</time>
      </trkpt>
      <trkpt lat="44.95588" lon="3.54003">
        <ele>938</ele>
        <time>2018-04-29T06:09:12Z</time>
      </trkpt>
      <trkpt lat="44.95587" lon="3.53996">
        <ele>938</ele>
        <time>2018-04-29T06:09:17Z</time>
      </trkpt>
      <trkpt lat="44.95587" lon="3.53989">
        <ele>938</ele>
        <time>2018-04-29T06:09:31Z</time>
      </trkpt>
      <trkpt lat="44.95579" lon="3.53968">
        <ele>936</ele>
        <time>2018-04-29T06:09:46Z</time>
      </trkpt>
      <trkpt lat="44.95575" lon="3.53957">
        <ele>937</ele>
        <time>2018-04-29T06:09:58Z</time>
      </trkpt>
      <trkpt lat="44.95569" lon="3.53931">
        <ele>935</ele>
        <time>2018-04-29T06:10:13Z</time>
      </trkpt>
      <trkpt lat="44.95565" lon="3.53917">
        <ele>936</ele>
        <time>2018-04-29T06:10:22Z</time>
      </trkpt>
      <trkpt lat="44.95563" lon="3.5391">
        <ele>936</ele>
        <time>2018-04-29T06:10:27Z</time>
      </trkpt>
      <trkpt lat="44.95563" lon="3.53903">
        <ele>937</ele>
        <time>2018-04-29T06:10:32Z</time>
      </trkpt>
      <trkpt lat="44.95566" lon="3.53896">
        <ele>938</ele>
        <time>2018-04-29T06:10:36Z</time>
      </trkpt>
      <trkpt lat="44.95566" lon="3.53889">
        <ele>938</ele>
        <time>2018-04-29T06:10:40Z</time>
      </trkpt>
      <trkpt lat="44.95563" lon="3.53883">
        <ele>938</ele>
        <time>2018-04-29T06:10:55Z</time>
      </trkpt>
      <trkpt lat="44.9556" lon="3.53878">
        <ele>938</ele>
        <time>2018-04-29T06:10:58Z</time>
      </trkpt>
      <trkpt lat="44.95554" lon="3.53864">
        <ele>938</ele>
        <time>2018-04-29T06:11:06Z</time>
      </trkpt>
      <trkpt lat="44.9555" lon="3.53861">
        <ele>938</ele>
        <time>2018-04-29T06:11:10Z</time>
      </trkpt>
      <trkpt lat="44.95545" lon="3.53862">
        <ele>940</ele>
        <time>2018-04-29T06:11:14Z</time>
      </trkpt>
      <trkpt lat="44.9554" lon="3.53862">
        <ele>940</ele>
        <time>2018-04-29T06:11:17Z</time>
      </trkpt>
      <trkpt lat="44.95529" lon="3.53862">
        <ele>938</ele>
        <time>2018-04-29T06:11:25Z</time>
      </trkpt>
      <trkpt lat="44.95519" lon="3.5386">
        <ele>939</ele>
        <time>2018-04-29T06:11:33Z</time>
      </trkpt>
      <trkpt lat="44.95504" lon="3.53855">
        <ele>938</ele>
        <time>2018-04-29T06:11:45Z</time>
      </trkpt>
      <trkpt lat="44.95499" lon="3.53853">
        <ele>937</ele>
        <time>2018-04-29T06:11:49Z</time>
      </trkpt>
      <trkpt lat="44.95494" lon="3.53851">
        <ele>937</ele>
        <time>2018-04-29T06:11:53Z</time>
      </trkpt>
      <trkpt lat="44.95484" lon="3.53848">
        <ele>937</ele>
        <time>2018-04-29T06:12:01Z</time>
      </trkpt>
      <trkpt lat="44.95475" lon="3.53846">
        <ele>937</ele>
        <time>2018-04-29T06:12:09Z</time>
      </trkpt>
      <trkpt lat="44.95456" lon="3.53838">
        <ele>937</ele>
        <time>2018-04-29T06:12:25Z</time>
      </trkpt>
      <trkpt lat="44.95446" lon="3.53833">
        <ele>937</ele>
        <time>2018-04-29T06:12:34Z</time>
      </trkpt>
      <trkpt lat="44.95436" lon="3.53825">
        <ele>936</ele>
        <time>2018-04-29T06:12:42Z</time>
      </trkpt>
      <trkpt lat="44.95432" lon="3.53821">
        <ele>936</ele>
        <time>2018-04-29T06:12:46Z</time>
      </trkpt>
      <trkpt lat="44.95427" lon="3.53817">
        <ele>936</ele>
        <time>2018-04-29T06:12:50Z</time>
      </trkpt>
      <trkpt lat="44.9542" lon="3.53808">
        <ele>936</ele>
        <time>2018-04-29T06:12:58Z</time>
      </trkpt>
      <trkpt lat="44.95408" lon="3.53795">
        <ele>938</ele>
        <time>2018-04-29T06:13:10Z</time>
      </trkpt>
      <trkpt lat="44.95404" lon="3.5379">
        <ele>937</ele>
        <time>2018-04-29T06:13:14Z</time>
      </trkpt>
      <trkpt lat="44.954" lon="3.53785">
        <ele>937</ele>
        <time>2018-04-29T06:13:18Z</time>
      </trkpt>
      <trkpt lat="44.95367" lon="3.53754">
        <ele>938</ele>
        <time>2018-04-29T06:13:51Z</time>
      </trkpt>
      <trkpt lat="44.95359" lon="3.53746">
        <ele>938</ele>
        <time>2018-04-29T06:13:59Z</time>
      </trkpt>
      <trkpt lat="44.95354" lon="3.53743">
        <ele>938</ele>
        <time>2018-04-29T06:14:04Z</time>
      </trkpt>
      <trkpt lat="44.95345" lon="3.53738">
        <ele>938</ele>
        <time>2018-04-29T06:14:12Z</time>
      </trkpt>
      <trkpt lat="44.95341" lon="3.53735">
        <ele>938</ele>
        <time>2018-04-29T06:14:16Z</time>
      </trkpt>
      <trkpt lat="44.95331" lon="3.53729">
        <ele>938</ele>
        <time>2018-04-29T06:14:25Z</time>
      </trkpt>
      <trkpt lat="44.95326" lon="3.53727">
        <ele>938</ele>
        <time>2018-04-29T06:14:29Z</time>
      </trkpt>
      <trkpt lat="44.95321" lon="3.53725">
        <ele>938</ele>
        <time>2018-04-29T06:14:33Z</time>
      </trkpt>
      <trkpt lat="44.95292" lon="3.53712">
        <ele>938</ele>
        <time>2018-04-29T06:14:57Z</time>
      </trkpt>
      <trkpt lat="44.95274" lon="3.53701">
        <ele>939</ele>
        <time>2018-04-29T06:15:13Z</time>
      </trkpt>
      <trkpt lat="44.95266" lon="3.53693">
        <ele>939</ele>
        <time>2018-04-29T06:15:21Z</time>
      </trkpt>
      <trkpt lat="44.95253" lon="3.53672">
        <ele>940</ele>
        <time>2018-04-29T06:15:38Z</time>
      </trkpt>
      <trkpt lat="44.9525" lon="3.53665">
        <ele>940</ele>
        <time>2018-04-29T06:15:43Z</time>
      </trkpt>
      <trkpt lat="44.95245" lon="3.53637">
        <ele>941</ele>
        <time>2018-04-29T06:16:01Z</time>
      </trkpt>
      <trkpt lat="44.95241" lon="3.53625">
        <ele>941</ele>
        <time>2018-04-29T06:16:09Z</time>
      </trkpt>
      <trkpt lat="44.95235" lon="3.53606">
        <ele>942</ele>
        <time>2018-04-29T06:16:21Z</time>
      </trkpt>
      <trkpt lat="44.95233" lon="3.536">
        <ele>942</ele>
        <time>2018-04-29T06:16:25Z</time>
      </trkpt>
      <trkpt lat="44.95224" lon="3.53575">
        <ele>943</ele>
        <time>2018-04-29T06:16:42Z</time>
      </trkpt>
      <trkpt lat="44.95219" lon="3.53563">
        <ele>942</ele>
        <time>2018-04-29T06:16:51Z</time>
      </trkpt>
      <trkpt lat="44.95215" lon="3.53555">
        <ele>942</ele>
        <time>2018-04-29T06:16:58Z</time>
      </trkpt>
      <trkpt lat="44.95212" lon="3.5355">
        <ele>942</ele>
        <time>2018-04-29T06:17:02Z</time>
      </trkpt>
      <trkpt lat="44.95189" lon="3.53503">
        <ele>942</ele>
        <time>2018-04-29T06:17:35Z</time>
      </trkpt>
      <trkpt lat="44.95166" lon="3.53454">
        <ele>942</ele>
        <time>2018-04-29T06:18:08Z</time>
      </trkpt>
      <trkpt lat="44.95161" lon="3.53442">
        <ele>942</ele>
        <time>2018-04-29T06:18:16Z</time>
      </trkpt>
      <trkpt lat="44.95158" lon="3.53436">
        <ele>943</ele>
        <time>2018-04-29T06:18:20Z</time>
      </trkpt>
      <trkpt lat="44.95154" lon="3.53432">
        <ele>944</ele>
        <time>2018-04-29T06:18:24Z</time>
      </trkpt>
      <trkpt lat="44.9515" lon="3.53428">
        <ele>944</ele>
        <time>2018-04-29T06:18:28Z</time>
      </trkpt>
      <trkpt lat="44.95147" lon="3.53422">
        <ele>943</ele>
        <time>2018-04-29T06:18:32Z</time>
      </trkpt>
      <trkpt lat="44.95127" lon="3.53382">
        <ele>942</ele>
        <time>2018-04-29T06:19:00Z</time>
      </trkpt>
      <trkpt lat="44.95122" lon="3.5337">
        <ele>943</ele>
        <time>2018-04-29T06:19:09Z</time>
      </trkpt>
      <trkpt lat="44.95119" lon="3.53364">
        <ele>943</ele>
        <time>2018-04-29T06:19:13Z</time>
      </trkpt>
      <trkpt lat="44.95117" lon="3.53358">
        <ele>942</ele>
        <time>2018-04-29T06:19:17Z</time>
      </trkpt>
      <trkpt lat="44.95113" lon="3.53352">
        <ele>942</ele>
        <time>2018-04-29T06:19:21Z</time>
      </trkpt>
      <trkpt lat="44.95102" lon="3.53336">
        <ele>942</ele>
        <time>2018-04-29T06:19:34Z</time>
      </trkpt>
      <trkpt lat="44.95098" lon="3.53332">
        <ele>943</ele>
        <time>2018-04-29T06:19:38Z</time>
      </trkpt>
      <trkpt lat="44.95093" lon="3.5333">
        <ele>943</ele>
        <time>2018-04-29T06:19:42Z</time>
      </trkpt>
      <trkpt lat="44.95086" lon="3.53321">
        <ele>943</ele>
        <time>2018-04-29T06:19:50Z</time>
      </trkpt>
      <trkpt lat="44.95082" lon="3.53316">
        <ele>943</ele>
        <time>2018-04-29T06:19:55Z</time>
      </trkpt>
      <trkpt lat="44.9505" lon="3.53291">
        <ele>944</ele>
        <time>2018-04-29T06:20:23Z</time>
      </trkpt>
      <trkpt lat="44.95046" lon="3.53288">
        <ele>943</ele>
        <time>2018-04-29T06:20:27Z</time>
      </trkpt>
      <trkpt lat="44.95036" lon="3.5328">
        <ele>944</ele>
        <time>2018-04-29T06:20:37Z</time>
      </trkpt>
      <trkpt lat="44.9503" lon="3.53279">
        <ele>944</ele>
        <time>2018-04-29T06:20:42Z</time>
      </trkpt>
      <trkpt lat="44.95022" lon="3.53272">
        <ele>944</ele>
        <time>2018-04-29T06:20:49Z</time>
      </trkpt>
      <trkpt lat="44.95019" lon="3.53267">
        <ele>943</ele>
        <time>2018-04-29T06:20:53Z</time>
      </trkpt>
      <trkpt lat="44.95016" lon="3.53261">
        <ele>944</ele>
        <time>2018-04-29T06:20:57Z</time>
      </trkpt>
      <trkpt lat="44.9501" lon="3.53259">
        <ele>944</ele>
        <time>2018-04-29T06:21:02Z</time>
      </trkpt>
      <trkpt lat="44.95005" lon="3.53259">
        <ele>945</ele>
        <time>2018-04-29T06:21:06Z</time>
      </trkpt>
      <trkpt lat="44.95" lon="3.53259">
        <ele>945</ele>
        <time>2018-04-29T06:21:10Z</time>
      </trkpt>
      <trkpt lat="44.94995" lon="3.53259">
        <ele>945</ele>
        <time>2018-04-29T06:21:14Z</time>
      </trkpt>
      <trkpt lat="44.94976" lon="3.5326">
        <ele>945</ele>
        <time>2018-04-29T06:21:30Z</time>
      </trkpt>
      <trkpt lat="44.94971" lon="3.5326">
        <ele>946</ele>
        <time>2018-04-29T06:21:34Z</time>
      </trkpt>
      <trkpt lat="44.94961" lon="3.53261">
        <ele>945</ele>
        <time>2018-04-29T06:21:42Z</time>
      </trkpt>
      <trkpt lat="44.94925" lon="3.53253">
        <ele>947</ele>
        <time>2018-04-29T06:22:15Z</time>
      </trkpt>
      <trkpt lat="44.94917" lon="3.53252">
        <ele>947</ele>
        <time>2018-04-29T06:22:23Z</time>
      </trkpt>
      <trkpt lat="44.94886" lon="3.5324">
        <ele>949</ele>
        <time>2018-04-29T06:22:51Z</time>
      </trkpt>
      <trkpt lat="44.94882" lon="3.53237">
        <ele>950</ele>
        <time>2018-04-29T06:22:56Z</time>
      </trkpt>
      <trkpt lat="44.94876" lon="3.53235">
        <ele>950</ele>
        <time>2018-04-29T06:23:01Z</time>
      </trkpt>
      <trkpt lat="44.94867" lon="3.53228">
        <ele>951</ele>
        <time>2018-04-29T06:23:10Z</time>
      </trkpt>
      <trkpt lat="44.94862" lon="3.53227">
        <ele>951</ele>
        <time>2018-04-29T06:23:15Z</time>
      </trkpt>
      <trkpt lat="44.94852" lon="3.53223">
        <ele>952</ele>
        <time>2018-04-29T06:23:25Z</time>
      </trkpt>
      <trkpt lat="44.94823" lon="3.53209">
        <ele>956</ele>
        <time>2018-04-29T06:23:56Z</time>
      </trkpt>
      <trkpt lat="44.94793" lon="3.53182">
        <ele>958</ele>
        <time>2018-04-29T06:24:29Z</time>
      </trkpt>
      <trkpt lat="44.94761" lon="3.53159">
        <ele>960</ele>
        <time>2018-04-29T06:25:06Z</time>
      </trkpt>
      <trkpt lat="44.94747" lon="3.53148">
        <ele>963</ele>
        <time>2018-04-29T06:25:20Z</time>
      </trkpt>
      <trkpt lat="44.94742" lon="3.53146">
        <ele>963</ele>
        <time>2018-04-29T06:25:28Z</time>
      </trkpt>
      <trkpt lat="44.94733" lon="3.53139">
        <ele>964</ele>
        <time>2018-04-29T06:25:37Z</time>
      </trkpt>
      <trkpt lat="44.94728" lon="3.53136">
        <ele>964</ele>
        <time>2018-04-29T06:25:42Z</time>
      </trkpt>
      <trkpt lat="44.94723" lon="3.53133">
        <ele>964</ele>
        <time>2018-04-29T06:25:46Z</time>
      </trkpt>
      <trkpt lat="44.94709" lon="3.53125">
        <ele>966</ele>
        <time>2018-04-29T06:26:01Z</time>
      </trkpt>
      <trkpt lat="44.94705" lon="3.53122">
        <ele>966</ele>
        <time>2018-04-29T06:26:05Z</time>
      </trkpt>
      <trkpt lat="44.94702" lon="3.53117">
        <ele>966</ele>
        <time>2018-04-29T06:26:09Z</time>
      </trkpt>
      <trkpt lat="44.94698" lon="3.53113">
        <ele>966</ele>
        <time>2018-04-29T06:26:13Z</time>
      </trkpt>
      <trkpt lat="44.94679" lon="3.531">
        <ele>967</ele>
        <time>2018-04-29T06:26:31Z</time>
      </trkpt>
      <trkpt lat="44.94675" lon="3.53097">
        <ele>968</ele>
        <time>2018-04-29T06:26:35Z</time>
      </trkpt>
      <trkpt lat="44.94664" lon="3.53091">
        <ele>968</ele>
        <time>2018-04-29T06:26:45Z</time>
      </trkpt>
      <trkpt lat="44.94648" lon="3.53077">
        <ele>970</ele>
        <time>2018-04-29T06:27:10Z</time>
      </trkpt>
      <trkpt lat="44.94617" lon="3.53056">
        <ele>972</ele>
        <time>2018-04-29T06:27:41Z</time>
      </trkpt>
      <trkpt lat="44.946" lon="3.53039">
        <ele>974</ele>
        <time>2018-04-29T06:28:00Z</time>
      </trkpt>
      <trkpt lat="44.94595" lon="3.53036">
        <ele>974</ele>
        <time>2018-04-29T06:28:05Z</time>
      </trkpt>
      <trkpt lat="44.9459" lon="3.53032">
        <ele>974</ele>
        <time>2018-04-29T06:28:10Z</time>
      </trkpt>
      <trkpt lat="44.94586" lon="3.5303">
        <ele>974</ele>
        <time>2018-04-29T06:28:14Z</time>
      </trkpt>
      <trkpt lat="44.94567" lon="3.53021">
        <ele>975</ele>
        <time>2018-04-29T06:28:31Z</time>
      </trkpt>
      <trkpt lat="44.94563" lon="3.53018">
        <ele>976</ele>
        <time>2018-04-29T06:28:35Z</time>
      </trkpt>
      <trkpt lat="44.94553" lon="3.53015">
        <ele>977</ele>
        <time>2018-04-29T06:28:44Z</time>
      </trkpt>
      <trkpt lat="44.94548" lon="3.53015">
        <ele>977</ele>
        <time>2018-04-29T06:28:48Z</time>
      </trkpt>
      <trkpt lat="44.94543" lon="3.53013">
        <ele>977</ele>
        <time>2018-04-29T06:28:53Z</time>
      </trkpt>
      <trkpt lat="44.94507" lon="3.52995">
        <ele>980</ele>
        <time>2018-04-29T06:29:28Z</time>
      </trkpt>
      <trkpt lat="44.94498" lon="3.52987">
        <ele>981</ele>
        <time>2018-04-29T06:29:37Z</time>
      </trkpt>
      <trkpt lat="44.94482" lon="3.52967">
        <ele>984</ele>
        <time>2018-04-29T06:29:57Z</time>
      </trkpt>
      <trkpt lat="44.94461" lon="3.52928">
        <ele>987</ele>
        <time>2018-04-29T06:30:30Z</time>
      </trkpt>
      <trkpt lat="44.94454" lon="3.52917">
        <ele>987</ele>
        <time>2018-04-29T06:30:38Z</time>
      </trkpt>
      <trkpt lat="44.94451" lon="3.52911">
        <ele>988</ele>
        <time>2018-04-29T06:30:43Z</time>
      </trkpt>
      <trkpt lat="44.94433" lon="3.52892">
        <ele>990</ele>
        <time>2018-04-29T06:31:09Z</time>
      </trkpt>
      <trkpt lat="44.94429" lon="3.52887">
        <ele>990</ele>
        <time>2018-04-29T06:31:13Z</time>
      </trkpt>
      <trkpt lat="44.94425" lon="3.52884">
        <ele>990</ele>
        <time>2018-04-29T06:31:17Z</time>
      </trkpt>
      <trkpt lat="44.94421" lon="3.52879">
        <ele>990</ele>
        <time>2018-04-29T06:31:21Z</time>
      </trkpt>
      <trkpt lat="44.94395" lon="3.52848">
        <ele>990</ele>
        <time>2018-04-29T06:31:54Z</time>
      </trkpt>
      <trkpt lat="44.94392" lon="3.52842">
        <ele>991</ele>
        <time>2018-04-29T06:31:59Z</time>
      </trkpt>
      <trkpt lat="44.94388" lon="3.52838">
        <ele>991</ele>
        <time>2018-04-29T06:32:03Z</time>
      </trkpt>
      <trkpt lat="44.94371" lon="3.52822">
        <ele>992</ele>
        <time>2018-04-29T06:32:22Z</time>
      </trkpt>
      <trkpt lat="44.94353" lon="3.52806">
        <ele>994</ele>
        <time>2018-04-29T06:32:43Z</time>
      </trkpt>
      <trkpt lat="44.94349" lon="3.52803">
        <ele>994</ele>
        <time>2018-04-29T06:32:49Z</time>
      </trkpt>
      <trkpt lat="44.94344" lon="3.52799">
        <ele>994</ele>
        <time>2018-04-29T06:32:54Z</time>
      </trkpt>
      <trkpt lat="44.94339" lon="3.52797">
        <ele>995</ele>
        <time>2018-04-29T06:32:59Z</time>
      </trkpt>
      <trkpt lat="44.94329" lon="3.52793">
        <ele>996</ele>
        <time>2018-04-29T06:33:09Z</time>
      </trkpt>
      <trkpt lat="44.94323" lon="3.52793">
        <ele>997</ele>
        <time>2018-04-29T06:33:14Z</time>
      </trkpt>
      <trkpt lat="44.94319" lon="3.52793">
        <ele>996</ele>
        <time>2018-04-29T06:33:19Z</time>
      </trkpt>
      <trkpt lat="44.94313" lon="3.52791">
        <ele>997</ele>
        <time>2018-04-29T06:33:27Z</time>
      </trkpt>
      <trkpt lat="44.94309" lon="3.52797">
        <ele>999</ele>
        <time>2018-04-29T06:33:45Z</time>
      </trkpt>
      <trkpt lat="44.94305" lon="3.528">
        <ele>998</ele>
        <time>2018-04-29T06:33:50Z</time>
      </trkpt>
      <trkpt lat="44.94285" lon="3.52808">
        <ele>1001</ele>
        <time>2018-04-29T06:34:09Z</time>
      </trkpt>
      <trkpt lat="44.94276" lon="3.52814">
        <ele>1001</ele>
        <time>2018-04-29T06:34:17Z</time>
      </trkpt>
      <trkpt lat="44.94271" lon="3.52813">
        <ele>1000</ele>
        <time>2018-04-29T06:34:22Z</time>
      </trkpt>
      <trkpt lat="44.94267" lon="3.52812">
        <ele>1001</ele>
        <time>2018-04-29T06:34:27Z</time>
      </trkpt>
      <trkpt lat="44.94252" lon="3.52817">
        <ele>1001</ele>
        <time>2018-04-29T06:34:40Z</time>
      </trkpt>
      <trkpt lat="44.94247" lon="3.52819">
        <ele>1002</ele>
        <time>2018-04-29T06:34:44Z</time>
      </trkpt>
      <trkpt lat="44.94238" lon="3.52824">
        <ele>1003</ele>
        <time>2018-04-29T06:34:52Z</time>
      </trkpt>
      <trkpt lat="44.94229" lon="3.52828">
        <ele>1002</ele>
        <time>2018-04-29T06:35:00Z</time>
      </trkpt>
      <trkpt lat="44.94224" lon="3.5283">
        <ele>1003</ele>
        <time>2018-04-29T06:35:05Z</time>
      </trkpt>
      <trkpt lat="44.94219" lon="3.52833">
        <ele>1003</ele>
        <time>2018-04-29T06:35:09Z</time>
      </trkpt>
      <trkpt lat="44.9421" lon="3.52837">
        <ele>1003</ele>
        <time>2018-04-29T06:35:17Z</time>
      </trkpt>
      <trkpt lat="44.94202" lon="3.52842">
        <ele>1003</ele>
        <time>2018-04-29T06:35:25Z</time>
      </trkpt>
      <trkpt lat="44.94197" lon="3.52843">
        <ele>1003</ele>
        <time>2018-04-29T06:35:29Z</time>
      </trkpt>
      <trkpt lat="44.94192" lon="3.52845">
        <ele>1003</ele>
        <time>2018-04-29T06:35:33Z</time>
      </trkpt>
      <trkpt lat="44.94178" lon="3.5285">
        <ele>1004</ele>
        <time>2018-04-29T06:35:46Z</time>
      </trkpt>
      <trkpt lat="44.94173" lon="3.52852">
        <ele>1004</ele>
        <time>2018-04-29T06:35:51Z</time>
      </trkpt>
      <trkpt lat="44.94163" lon="3.52855">
        <ele>1004</ele>
        <time>2018-04-29T06:35:59Z</time>
      </trkpt>
      <trkpt lat="44.94159" lon="3.52856">
        <ele>1003</ele>
        <time>2018-04-29T06:36:03Z</time>
      </trkpt>
      <trkpt lat="44.94155" lon="3.52858">
        <ele>1003</ele>
        <time>2018-04-29T06:36:07Z</time>
      </trkpt>
      <trkpt lat="44.94149" lon="3.52859">
        <ele>1003</ele>
        <time>2018-04-29T06:36:12Z</time>
      </trkpt>
      <trkpt lat="44.94144" lon="3.52857">
        <ele>1002</ele>
        <time>2018-04-29T06:36:17Z</time>
      </trkpt>
      <trkpt lat="44.94139" lon="3.52854">
        <ele>1002</ele>
        <time>2018-04-29T06:36:22Z</time>
      </trkpt>
      <trkpt lat="44.94135" lon="3.52849">
        <ele>1001</ele>
        <time>2018-04-29T06:36:27Z</time>
      </trkpt>
      <trkpt lat="44.94105" lon="3.52844">
        <ele>998</ele>
        <time>2018-04-29T06:36:51Z</time>
      </trkpt>
      <trkpt lat="44.94096" lon="3.52845">
        <ele>998</ele>
        <time>2018-04-29T06:36:59Z</time>
      </trkpt>
      <trkpt lat="44.94086" lon="3.52846">
        <ele>997</ele>
        <time>2018-04-29T06:37:07Z</time>
      </trkpt>
      <trkpt lat="44.94077" lon="3.5285">
        <ele>997</ele>
        <time>2018-04-29T06:37:15Z</time>
      </trkpt>
      <trkpt lat="44.94068" lon="3.52855">
        <ele>997</ele>
        <time>2018-04-29T06:37:24Z</time>
      </trkpt>
      <trkpt lat="44.94058" lon="3.52861">
        <ele>998</ele>
        <time>2018-04-29T06:37:32Z</time>
      </trkpt>
      <trkpt lat="44.94044" lon="3.52866">
        <ele>997</ele>
        <time>2018-04-29T06:37:44Z</time>
      </trkpt>
      <trkpt lat="44.94029" lon="3.52874">
        <ele>998</ele>
        <time>2018-04-29T06:37:58Z</time>
      </trkpt>
      <trkpt lat="44.94022" lon="3.52877">
        <ele>997</ele>
        <time>2018-04-29T06:38:05Z</time>
      </trkpt>
      <trkpt lat="44.94018" lon="3.52881">
        <ele>998</ele>
        <time>2018-04-29T06:38:09Z</time>
      </trkpt>
      <trkpt lat="44.94013" lon="3.52892">
        <ele>1000</ele>
        <time>2018-04-29T06:38:17Z</time>
      </trkpt>
      <trkpt lat="44.9401" lon="3.52897">
        <ele>1000</ele>
        <time>2018-04-29T06:38:21Z</time>
      </trkpt>
      <trkpt lat="44.94009" lon="3.52904">
        <ele>1000</ele>
        <time>2018-04-29T06:38:25Z</time>
      </trkpt>
      <trkpt lat="44.94004" lon="3.52918">
        <ele>999</ele>
        <time>2018-04-29T06:38:33Z</time>
      </trkpt>
      <trkpt lat="44.94003" lon="3.52924">
        <ele>1000</ele>
        <time>2018-04-29T06:38:37Z</time>
      </trkpt>
      <trkpt lat="44.93992" lon="3.52961">
        <ele>1004</ele>
        <time>2018-04-29T06:39:06Z</time>
      </trkpt>
      <trkpt lat="44.93988" lon="3.52965">
        <ele>1004</ele>
        <time>2018-04-29T06:39:11Z</time>
      </trkpt>
      <trkpt lat="44.93979" lon="3.52967">
        <ele>1006</ele>
        <time>2018-04-29T06:39:21Z</time>
      </trkpt>
      <trkpt lat="44.93974" lon="3.5297">
        <ele>1007</ele>
        <time>2018-04-29T06:39:30Z</time>
      </trkpt>
      <trkpt lat="44.93969" lon="3.5297">
        <ele>1008</ele>
        <time>2018-04-29T06:39:36Z</time>
      </trkpt>
      <trkpt lat="44.93961" lon="3.52979">
        <ele>1009</ele>
        <time>2018-04-29T06:39:46Z</time>
      </trkpt>
      <trkpt lat="44.93951" lon="3.52984">
        <ele>1011</ele>
        <time>2018-04-29T06:39:56Z</time>
      </trkpt>
      <trkpt lat="44.93935" lon="3.52987">
        <ele>1012</ele>
        <time>2018-04-29T06:40:15Z</time>
      </trkpt>
      <trkpt lat="44.93919" lon="3.52986">
        <ele>1014</ele>
        <time>2018-04-29T06:40:28Z</time>
      </trkpt>
      <trkpt lat="44.93902" lon="3.5298">
        <ele>1016</ele>
        <time>2018-04-29T06:40:50Z</time>
      </trkpt>
      <trkpt lat="44.93877" lon="3.52974">
        <ele>1017</ele>
        <time>2018-04-29T06:41:10Z</time>
      </trkpt>
      <trkpt lat="44.93863" lon="3.52964">
        <ele>1017</ele>
        <time>2018-04-29T06:41:24Z</time>
      </trkpt>
      <trkpt lat="44.93847" lon="3.52949">
        <ele>1019</ele>
        <time>2018-04-29T06:41:43Z</time>
      </trkpt>
      <trkpt lat="44.93844" lon="3.5294">
        <ele>1020</ele>
        <time>2018-04-29T06:41:50Z</time>
      </trkpt>
      <trkpt lat="44.93839" lon="3.52937">
        <ele>1020</ele>
        <time>2018-04-29T06:41:54Z</time>
      </trkpt>
      <trkpt lat="44.93833" lon="3.52936">
        <ele>1019</ele>
        <time>2018-04-29T06:42:03Z</time>
      </trkpt>
      <trkpt lat="44.93826" lon="3.52926">
        <ele>1020</ele>
        <time>2018-04-29T06:42:12Z</time>
      </trkpt>
      <trkpt lat="44.93822" lon="3.5292">
        <ele>1020</ele>
        <time>2018-04-29T06:42:16Z</time>
      </trkpt>
      <trkpt lat="44.9382" lon="3.52915">
        <ele>1020</ele>
        <time>2018-04-29T06:42:20Z</time>
      </trkpt>
      <trkpt lat="44.93813" lon="3.52906">
        <ele>1021</ele>
        <time>2018-04-29T06:42:28Z</time>
      </trkpt>
      <trkpt lat="44.93799" lon="3.52886">
        <ele>1020</ele>
        <time>2018-04-29T06:42:45Z</time>
      </trkpt>
      <trkpt lat="44.93792" lon="3.52875">
        <ele>1021</ele>
        <time>2018-04-29T06:42:55Z</time>
      </trkpt>
      <trkpt lat="44.9379" lon="3.5287">
        <ele>1021</ele>
        <time>2018-04-29T06:42:59Z</time>
      </trkpt>
      <trkpt lat="44.93786" lon="3.52865">
        <ele>1021</ele>
        <time>2018-04-29T06:43:04Z</time>
      </trkpt>
      <trkpt lat="44.93781" lon="3.52862">
        <ele>1021</ele>
        <time>2018-04-29T06:43:09Z</time>
      </trkpt>
      <trkpt lat="44.93777" lon="3.52856">
        <ele>1022</ele>
        <time>2018-04-29T06:43:14Z</time>
      </trkpt>
      <trkpt lat="44.93772" lon="3.52854">
        <ele>1022</ele>
        <time>2018-04-29T06:43:19Z</time>
      </trkpt>
      <trkpt lat="44.93767" lon="3.5285">
        <ele>1023</ele>
        <time>2018-04-29T06:43:33Z</time>
      </trkpt>
      <trkpt lat="44.93763" lon="3.52848">
        <ele>1022</ele>
        <time>2018-04-29T06:43:37Z</time>
      </trkpt>
      <trkpt lat="44.93758" lon="3.52848">
        <ele>1023</ele>
        <time>2018-04-29T06:43:41Z</time>
      </trkpt>
      <trkpt lat="44.93747" lon="3.52845">
        <ele>1024</ele>
        <time>2018-04-29T06:43:50Z</time>
      </trkpt>
      <trkpt lat="44.93743" lon="3.52844">
        <ele>1024</ele>
        <time>2018-04-29T06:43:54Z</time>
      </trkpt>
      <trkpt lat="44.93738" lon="3.52845">
        <ele>1024</ele>
        <time>2018-04-29T06:43:58Z</time>
      </trkpt>
      <trkpt lat="44.93733" lon="3.52848">
        <ele>1024</ele>
        <time>2018-04-29T06:44:03Z</time>
      </trkpt>
      <trkpt lat="44.93725" lon="3.52852">
        <ele>1024</ele>
        <time>2018-04-29T06:44:12Z</time>
      </trkpt>
      <trkpt lat="44.93717" lon="3.52858">
        <ele>1025</ele>
        <time>2018-04-29T06:44:20Z</time>
      </trkpt>
      <trkpt lat="44.93712" lon="3.5286">
        <ele>1025</ele>
        <time>2018-04-29T06:44:25Z</time>
      </trkpt>
      <trkpt lat="44.93707" lon="3.52859">
        <ele>1025</ele>
        <time>2018-04-29T06:44:30Z</time>
      </trkpt>
      <trkpt lat="44.93702" lon="3.52856">
        <ele>1025</ele>
        <time>2018-04-29T06:44:35Z</time>
      </trkpt>
      <trkpt lat="44.93695" lon="3.52854">
        <ele>1025</ele>
        <time>2018-04-29T06:44:42Z</time>
      </trkpt>
      <trkpt lat="44.9369" lon="3.52845">
        <ele>1025</ele>
        <time>2018-04-29T06:44:56Z</time>
      </trkpt>
      <trkpt lat="44.93686" lon="3.52842">
        <ele>1025</ele>
        <time>2018-04-29T06:45:00Z</time>
      </trkpt>
      <trkpt lat="44.93679" lon="3.52832">
        <ele>1025</ele>
        <time>2018-04-29T06:45:08Z</time>
      </trkpt>
      <trkpt lat="44.93675" lon="3.52827">
        <ele>1025</ele>
        <time>2018-04-29T06:45:13Z</time>
      </trkpt>
      <trkpt lat="44.93671" lon="3.52823">
        <ele>1025</ele>
        <time>2018-04-29T06:45:17Z</time>
      </trkpt>
      <trkpt lat="44.93669" lon="3.52817">
        <ele>1025</ele>
        <time>2018-04-29T06:45:21Z</time>
      </trkpt>
      <trkpt lat="44.93664" lon="3.52805">
        <ele>1025</ele>
        <time>2018-04-29T06:45:29Z</time>
      </trkpt>
      <trkpt lat="44.93653" lon="3.5279">
        <ele>1026</ele>
        <time>2018-04-29T06:45:42Z</time>
      </trkpt>
      <trkpt lat="44.93649" lon="3.52784">
        <ele>1026</ele>
        <time>2018-04-29T06:45:46Z</time>
      </trkpt>
      <trkpt lat="44.93637" lon="3.52762">
        <ele>1027</ele>
        <time>2018-04-29T06:46:03Z</time>
      </trkpt>
      <trkpt lat="44.93635" lon="3.52756">
        <ele>1027</ele>
        <time>2018-04-29T06:46:07Z</time>
      </trkpt>
      <trkpt lat="44.93632" lon="3.5275">
        <ele>1027</ele>
        <time>2018-04-29T06:46:12Z</time>
      </trkpt>
      <trkpt lat="44.93623" lon="3.52733">
        <ele>1026</ele>
        <time>2018-04-29T06:46:24Z</time>
      </trkpt>
      <trkpt lat="44.93619" lon="3.5272">
        <ele>1026</ele>
        <time>2018-04-29T06:46:32Z</time>
      </trkpt>
      <trkpt lat="44.93616" lon="3.52715">
        <ele>1026</ele>
        <time>2018-04-29T06:46:36Z</time>
      </trkpt>
      <trkpt lat="44.93611" lon="3.5271">
        <ele>1026</ele>
        <time>2018-04-29T06:46:41Z</time>
      </trkpt>
      <trkpt lat="44.93607" lon="3.52707">
        <ele>1026</ele>
        <time>2018-04-29T06:46:45Z</time>
      </trkpt>
      <trkpt lat="44.93603" lon="3.52702">
        <ele>1026</ele>
        <time>2018-04-29T06:46:49Z</time>
      </trkpt>
      <trkpt lat="44.936" lon="3.52696">
        <ele>1026</ele>
        <time>2018-04-29T06:46:53Z</time>
      </trkpt>
      <trkpt lat="44.93598" lon="3.52688">
        <ele>1026</ele>
        <time>2018-04-29T06:46:57Z</time>
      </trkpt>
      <trkpt lat="44.93595" lon="3.52683">
        <ele>1026</ele>
        <time>2018-04-29T06:47:01Z</time>
      </trkpt>
      <trkpt lat="44.93591" lon="3.52679">
        <ele>1027</ele>
        <time>2018-04-29T06:47:05Z</time>
      </trkpt>
      <trkpt lat="44.93585" lon="3.52667">
        <ele>1026</ele>
        <time>2018-04-29T06:47:14Z</time>
      </trkpt>
      <trkpt lat="44.93582" lon="3.52661">
        <ele>1027</ele>
        <time>2018-04-29T06:47:18Z</time>
      </trkpt>
      <trkpt lat="44.9358" lon="3.52655">
        <ele>1027</ele>
        <time>2018-04-29T06:47:22Z</time>
      </trkpt>
      <trkpt lat="44.93578" lon="3.52648">
        <ele>1027</ele>
        <time>2018-04-29T06:47:27Z</time>
      </trkpt>
      <trkpt lat="44.93575" lon="3.52642">
        <ele>1027</ele>
        <time>2018-04-29T06:47:31Z</time>
      </trkpt>
      <trkpt lat="44.93571" lon="3.52629">
        <ele>1028</ele>
        <time>2018-04-29T06:47:40Z</time>
      </trkpt>
      <trkpt lat="44.93564" lon="3.52611">
        <ele>1028</ele>
        <time>2018-04-29T06:47:52Z</time>
      </trkpt>
      <trkpt lat="44.9356" lon="3.52591">
        <ele>1028</ele>
        <time>2018-04-29T06:48:04Z</time>
      </trkpt>
      <trkpt lat="44.93557" lon="3.52579">
        <ele>1028</ele>
        <time>2018-04-29T06:48:12Z</time>
      </trkpt>
      <trkpt lat="44.93553" lon="3.5256">
        <ele>1029</ele>
        <time>2018-04-29T06:48:25Z</time>
      </trkpt>
      <trkpt lat="44.93551" lon="3.52554">
        <ele>1030</ele>
        <time>2018-04-29T06:48:30Z</time>
      </trkpt>
      <trkpt lat="44.9355" lon="3.52547">
        <ele>1030</ele>
        <time>2018-04-29T06:48:34Z</time>
      </trkpt>
      <trkpt lat="44.93546" lon="3.52533">
        <ele>1029</ele>
        <time>2018-04-29T06:48:42Z</time>
      </trkpt>
      <trkpt lat="44.93543" lon="3.52528">
        <ele>1029</ele>
        <time>2018-04-29T06:48:46Z</time>
      </trkpt>
      <trkpt lat="44.9354" lon="3.52522">
        <ele>1030</ele>
        <time>2018-04-29T06:48:50Z</time>
      </trkpt>
      <trkpt lat="44.93538" lon="3.52516">
        <ele>1030</ele>
        <time>2018-04-29T06:48:54Z</time>
      </trkpt>
      <trkpt lat="44.93536" lon="3.5251">
        <ele>1029</ele>
        <time>2018-04-29T06:48:58Z</time>
      </trkpt>
      <trkpt lat="44.93534" lon="3.52504">
        <ele>1029</ele>
        <time>2018-04-29T06:49:02Z</time>
      </trkpt>
      <trkpt lat="44.93531" lon="3.52497">
        <ele>1031</ele>
        <time>2018-04-29T06:49:06Z</time>
      </trkpt>
      <trkpt lat="44.93528" lon="3.52491">
        <ele>1031</ele>
        <time>2018-04-29T06:49:10Z</time>
      </trkpt>
      <trkpt lat="44.93523" lon="3.5248">
        <ele>1029</ele>
        <time>2018-04-29T06:49:18Z</time>
      </trkpt>
      <trkpt lat="44.9352" lon="3.52474">
        <ele>1030</ele>
        <time>2018-04-29T06:49:22Z</time>
      </trkpt>
      <trkpt lat="44.93516" lon="3.52468">
        <ele>1030</ele>
        <time>2018-04-29T06:49:26Z</time>
      </trkpt>
      <trkpt lat="44.93513" lon="3.52464">
        <ele>1029</ele>
        <time>2018-04-29T06:49:30Z</time>
      </trkpt>
      <trkpt lat="44.9351" lon="3.52459">
        <ele>1029</ele>
        <time>2018-04-29T06:49:34Z</time>
      </trkpt>
      <trkpt lat="44.93501" lon="3.52453">
        <ele>1029</ele>
        <time>2018-04-29T06:49:42Z</time>
      </trkpt>
      <trkpt lat="44.93491" lon="3.5244">
        <ele>1028</ele>
        <time>2018-04-29T06:50:13Z</time>
      </trkpt>
      <trkpt lat="44.93485" lon="3.52438">
        <ele>1028</ele>
        <time>2018-04-29T06:50:17Z</time>
      </trkpt>
      <trkpt lat="44.93481" lon="3.52438">
        <ele>1028</ele>
        <time>2018-04-29T06:50:20Z</time>
      </trkpt>
      <trkpt lat="44.93471" lon="3.52436">
        <ele>1029</ele>
        <time>2018-04-29T06:50:29Z</time>
      </trkpt>
      <trkpt lat="44.9346" lon="3.52438">
        <ele>1028</ele>
        <time>2018-04-29T06:50:37Z</time>
      </trkpt>
      <trkpt lat="44.93456" lon="3.52439">
        <ele>1029</ele>
        <time>2018-04-29T06:50:41Z</time>
      </trkpt>
      <trkpt lat="44.93445" lon="3.52443">
        <ele>1028</ele>
        <time>2018-04-29T06:50:51Z</time>
      </trkpt>
      <trkpt lat="44.9344" lon="3.52443">
        <ele>1028</ele>
        <time>2018-04-29T06:50:55Z</time>
      </trkpt>
      <trkpt lat="44.93433" lon="3.52445">
        <ele>1029</ele>
        <time>2018-04-29T06:51:02Z</time>
      </trkpt>
      <trkpt lat="44.93424" lon="3.52446">
        <ele>1028</ele>
        <time>2018-04-29T06:51:10Z</time>
      </trkpt>
      <trkpt lat="44.93414" lon="3.52445">
        <ele>1029</ele>
        <time>2018-04-29T06:51:18Z</time>
      </trkpt>
      <trkpt lat="44.93399" lon="3.52446">
        <ele>1028</ele>
        <time>2018-04-29T06:51:29Z</time>
      </trkpt>
      <trkpt lat="44.93389" lon="3.52447">
        <ele>1028</ele>
        <time>2018-04-29T06:51:37Z</time>
      </trkpt>
      <trkpt lat="44.93384" lon="3.52446">
        <ele>1028</ele>
        <time>2018-04-29T06:51:41Z</time>
      </trkpt>
      <trkpt lat="44.93375" lon="3.52445">
        <ele>1029</ele>
        <time>2018-04-29T06:51:49Z</time>
      </trkpt>
      <trkpt lat="44.9337" lon="3.52445">
        <ele>1029</ele>
        <time>2018-04-29T06:51:53Z</time>
      </trkpt>
      <trkpt lat="44.93365" lon="3.52444">
        <ele>1030</ele>
        <time>2018-04-29T06:51:57Z</time>
      </trkpt>
      <trkpt lat="44.93361" lon="3.52443">
        <ele>1031</ele>
        <time>2018-04-29T06:52:01Z</time>
      </trkpt>
      <trkpt lat="44.93351" lon="3.52443">
        <ele>1031</ele>
        <time>2018-04-29T06:52:09Z</time>
      </trkpt>
      <trkpt lat="44.93346" lon="3.52443">
        <ele>1030</ele>
        <time>2018-04-29T06:52:13Z</time>
      </trkpt>
      <trkpt lat="44.93342" lon="3.52444">
        <ele>1031</ele>
        <time>2018-04-29T06:52:17Z</time>
      </trkpt>
      <trkpt lat="44.93336" lon="3.52443">
        <ele>1031</ele>
        <time>2018-04-29T06:52:22Z</time>
      </trkpt>
      <trkpt lat="44.93326" lon="3.52447">
        <ele>1031</ele>
        <time>2018-04-29T06:52:30Z</time>
      </trkpt>
      <trkpt lat="44.93322" lon="3.52447">
        <ele>1031</ele>
        <time>2018-04-29T06:52:34Z</time>
      </trkpt>
      <trkpt lat="44.93317" lon="3.52446">
        <ele>1031</ele>
        <time>2018-04-29T06:52:39Z</time>
      </trkpt>
      <trkpt lat="44.93312" lon="3.52447">
        <ele>1030</ele>
        <time>2018-04-29T06:52:46Z</time>
      </trkpt>
      <trkpt lat="44.93306" lon="3.52448">
        <ele>1031</ele>
        <time>2018-04-29T06:52:51Z</time>
      </trkpt>
      <trkpt lat="44.93301" lon="3.52448">
        <ele>1030</ele>
        <time>2018-04-29T06:52:55Z</time>
      </trkpt>
      <trkpt lat="44.9328" lon="3.5245">
        <ele>1031</ele>
        <time>2018-04-29T06:53:11Z</time>
      </trkpt>
      <trkpt lat="44.93243" lon="3.52433">
        <ele>1031</ele>
        <time>2018-04-29T06:53:44Z</time>
      </trkpt>
      <trkpt lat="44.93226" lon="3.52427">
        <ele>1034</ele>
        <time>2018-04-29T06:54:00Z</time>
      </trkpt>
      <trkpt lat="44.93221" lon="3.52427">
        <ele>1034</ele>
        <time>2018-04-29T06:54:04Z</time>
      </trkpt>
      <trkpt lat="44.93212" lon="3.52424">
        <ele>1035</ele>
        <time>2018-04-29T06:54:12Z</time>
      </trkpt>
      <trkpt lat="44.93207" lon="3.52424">
        <ele>1036</ele>
        <time>2018-04-29T06:54:16Z</time>
      </trkpt>
      <trkpt lat="44.93202" lon="3.52422">
        <ele>1036</ele>
        <time>2018-04-29T06:54:21Z</time>
      </trkpt>
      <trkpt lat="44.93192" lon="3.52421">
        <ele>1037</ele>
        <time>2018-04-29T06:54:32Z</time>
      </trkpt>
      <trkpt lat="44.93182" lon="3.52418">
        <ele>1038</ele>
        <time>2018-04-29T06:54:40Z</time>
      </trkpt>
      <trkpt lat="44.93178" lon="3.52417">
        <ele>1038</ele>
        <time>2018-04-29T06:54:44Z</time>
      </trkpt>
      <trkpt lat="44.93163" lon="3.52413">
        <ele>1040</ele>
        <time>2018-04-29T06:54:58Z</time>
      </trkpt>
      <trkpt lat="44.93157" lon="3.52414">
        <ele>1040</ele>
        <time>2018-04-29T06:55:03Z</time>
      </trkpt>
      <trkpt lat="44.93152" lon="3.52413">
        <ele>1041</ele>
        <time>2018-04-29T06:55:08Z</time>
      </trkpt>
      <trkpt lat="44.93142" lon="3.52411">
        <ele>1042</ele>
        <time>2018-04-29T06:55:18Z</time>
      </trkpt>
      <trkpt lat="44.93133" lon="3.52411">
        <ele>1043</ele>
        <time>2018-04-29T06:55:29Z</time>
      </trkpt>
      <trkpt lat="44.93125" lon="3.52407">
        <ele>1043</ele>
        <time>2018-04-29T06:55:38Z</time>
      </trkpt>
      <trkpt lat="44.93122" lon="3.52402">
        <ele>1043</ele>
        <time>2018-04-29T06:55:43Z</time>
      </trkpt>
      <trkpt lat="44.93113" lon="3.52389">
        <ele>1044</ele>
        <time>2018-04-29T06:55:56Z</time>
      </trkpt>
      <trkpt lat="44.93109" lon="3.52377">
        <ele>1046</ele>
        <time>2018-04-29T06:56:06Z</time>
      </trkpt>
      <trkpt lat="44.93103" lon="3.52365">
        <ele>1046</ele>
        <time>2018-04-29T06:56:16Z</time>
      </trkpt>
      <trkpt lat="44.93096" lon="3.52356">
        <ele>1046</ele>
        <time>2018-04-29T06:56:24Z</time>
      </trkpt>
      <trkpt lat="44.93088" lon="3.52349">
        <ele>1047</ele>
        <time>2018-04-29T06:56:32Z</time>
      </trkpt>
      <trkpt lat="44.9308" lon="3.52339">
        <ele>1046</ele>
        <time>2018-04-29T06:56:41Z</time>
      </trkpt>
      <trkpt lat="44.93071" lon="3.52334">
        <ele>1046</ele>
        <time>2018-04-29T06:56:49Z</time>
      </trkpt>
      <trkpt lat="44.93061" lon="3.52332">
        <ele>1046</ele>
        <time>2018-04-29T06:56:58Z</time>
      </trkpt>
      <trkpt lat="44.93052" lon="3.52332">
        <ele>1047</ele>
        <time>2018-04-29T06:57:04Z</time>
      </trkpt>
      <trkpt lat="44.93039" lon="3.52312">
        <ele>1047</ele>
        <time>2018-04-29T06:57:21Z</time>
      </trkpt>
      <trkpt lat="44.9303" lon="3.52308">
        <ele>1046</ele>
        <time>2018-04-29T06:57:29Z</time>
      </trkpt>
      <trkpt lat="44.93011" lon="3.52308">
        <ele>1046</ele>
        <time>2018-04-29T06:57:44Z</time>
      </trkpt>
      <trkpt lat="44.93002" lon="3.52309">
        <ele>1045</ele>
        <time>2018-04-29T06:57:51Z</time>
      </trkpt>
      <trkpt lat="44.92998" lon="3.52307">
        <ele>1045</ele>
        <time>2018-04-29T06:57:55Z</time>
      </trkpt>
      <trkpt lat="44.92993" lon="3.52304">
        <ele>1045</ele>
        <time>2018-04-29T06:58:00Z</time>
      </trkpt>
      <trkpt lat="44.92987" lon="3.52305">
        <ele>1046</ele>
        <time>2018-04-29T06:58:04Z</time>
      </trkpt>
      <trkpt lat="44.92972" lon="3.52306">
        <ele>1046</ele>
        <time>2018-04-29T06:58:15Z</time>
      </trkpt>
      <trkpt lat="44.92966" lon="3.52304">
        <ele>1046</ele>
        <time>2018-04-29T06:58:19Z</time>
      </trkpt>
      <trkpt lat="44.92957" lon="3.523">
        <ele>1045</ele>
        <time>2018-04-29T06:58:27Z</time>
      </trkpt>
      <trkpt lat="44.92952" lon="3.52297">
        <ele>1044</ele>
        <time>2018-04-29T06:58:31Z</time>
      </trkpt>
      <trkpt lat="44.92948" lon="3.52293">
        <ele>1045</ele>
        <time>2018-04-29T06:58:35Z</time>
      </trkpt>
      <trkpt lat="44.92943" lon="3.5229">
        <ele>1045</ele>
        <time>2018-04-29T06:58:39Z</time>
      </trkpt>
      <trkpt lat="44.92935" lon="3.52282">
        <ele>1047</ele>
        <time>2018-04-29T06:58:48Z</time>
      </trkpt>
      <trkpt lat="44.92931" lon="3.52278">
        <ele>1046</ele>
        <time>2018-04-29T06:58:52Z</time>
      </trkpt>
      <trkpt lat="44.92926" lon="3.52275">
        <ele>1046</ele>
        <time>2018-04-29T06:58:56Z</time>
      </trkpt>
      <trkpt lat="44.92922" lon="3.52271">
        <ele>1047</ele>
        <time>2018-04-29T06:59:01Z</time>
      </trkpt>
      <trkpt lat="44.92918" lon="3.52266">
        <ele>1048</ele>
        <time>2018-04-29T06:59:05Z</time>
      </trkpt>
      <trkpt lat="44.92914" lon="3.52261">
        <ele>1047</ele>
        <time>2018-04-29T06:59:10Z</time>
      </trkpt>
      <trkpt lat="44.9291" lon="3.52257">
        <ele>1048</ele>
        <time>2018-04-29T06:59:14Z</time>
      </trkpt>
      <trkpt lat="44.92884" lon="3.52249">
        <ele>1047</ele>
        <time>2018-04-29T06:59:34Z</time>
      </trkpt>
      <trkpt lat="44.9288" lon="3.52246">
        <ele>1048</ele>
        <time>2018-04-29T06:59:38Z</time>
      </trkpt>
      <trkpt lat="44.92874" lon="3.52247">
        <ele>1048</ele>
        <time>2018-04-29T06:59:42Z</time>
      </trkpt>
      <trkpt lat="44.92869" lon="3.52244">
        <ele>1048</ele>
        <time>2018-04-29T06:59:47Z</time>
      </trkpt>
      <trkpt lat="44.92859" lon="3.52241">
        <ele>1049</ele>
        <time>2018-04-29T06:59:54Z</time>
      </trkpt>
      <trkpt lat="44.92851" lon="3.52235">
        <ele>1049</ele>
        <time>2018-04-29T07:00:03Z</time>
      </trkpt>
      <trkpt lat="44.92837" lon="3.52231">
        <ele>1051</ele>
        <time>2018-04-29T07:00:17Z</time>
      </trkpt>
      <trkpt lat="44.92827" lon="3.52233">
        <ele>1052</ele>
        <time>2018-04-29T07:00:26Z</time>
      </trkpt>
      <trkpt lat="44.92822" lon="3.52224">
        <ele>1053</ele>
        <time>2018-04-29T07:00:39Z</time>
      </trkpt>
      <trkpt lat="44.92817" lon="3.5222">
        <ele>1054</ele>
        <time>2018-04-29T07:00:44Z</time>
      </trkpt>
      <trkpt lat="44.92814" lon="3.52214">
        <ele>1055</ele>
        <time>2018-04-29T07:00:49Z</time>
      </trkpt>
      <trkpt lat="44.92811" lon="3.52208">
        <ele>1055</ele>
        <time>2018-04-29T07:00:54Z</time>
      </trkpt>
      <trkpt lat="44.9281" lon="3.52201">
        <ele>1055</ele>
        <time>2018-04-29T07:00:58Z</time>
      </trkpt>
      <trkpt lat="44.92807" lon="3.52195">
        <ele>1055</ele>
        <time>2018-04-29T07:01:02Z</time>
      </trkpt>
      <trkpt lat="44.92805" lon="3.52188">
        <ele>1056</ele>
        <time>2018-04-29T07:01:07Z</time>
      </trkpt>
      <trkpt lat="44.92802" lon="3.52183">
        <ele>1056</ele>
        <time>2018-04-29T07:01:11Z</time>
      </trkpt>
      <trkpt lat="44.928" lon="3.52176">
        <ele>1056</ele>
        <time>2018-04-29T07:01:16Z</time>
      </trkpt>
      <trkpt lat="44.92796" lon="3.52172">
        <ele>1057</ele>
        <time>2018-04-29T07:01:20Z</time>
      </trkpt>
      <trkpt lat="44.92793" lon="3.52167">
        <ele>1057</ele>
        <time>2018-04-29T07:01:24Z</time>
      </trkpt>
      <trkpt lat="44.9279" lon="3.52161">
        <ele>1057</ele>
        <time>2018-04-29T07:01:28Z</time>
      </trkpt>
      <trkpt lat="44.92781" lon="3.5215">
        <ele>1059</ele>
        <time>2018-04-29T07:01:37Z</time>
      </trkpt>
      <trkpt lat="44.92778" lon="3.52144">
        <ele>1058</ele>
        <time>2018-04-29T07:01:41Z</time>
      </trkpt>
      <trkpt lat="44.92771" lon="3.52133">
        <ele>1059</ele>
        <time>2018-04-29T07:01:51Z</time>
      </trkpt>
      <trkpt lat="44.92766" lon="3.52132">
        <ele>1058</ele>
        <time>2018-04-29T07:01:55Z</time>
      </trkpt>
      <trkpt lat="44.92761" lon="3.52132">
        <ele>1059</ele>
        <time>2018-04-29T07:01:59Z</time>
      </trkpt>
      <trkpt lat="44.92751" lon="3.52129">
        <ele>1059</ele>
        <time>2018-04-29T07:02:07Z</time>
      </trkpt>
      <trkpt lat="44.92747" lon="3.52127">
        <ele>1059</ele>
        <time>2018-04-29T07:02:11Z</time>
      </trkpt>
      <trkpt lat="44.92742" lon="3.52127">
        <ele>1060</ele>
        <time>2018-04-29T07:02:15Z</time>
      </trkpt>
      <trkpt lat="44.92737" lon="3.52124">
        <ele>1060</ele>
        <time>2018-04-29T07:02:20Z</time>
      </trkpt>
      <trkpt lat="44.92733" lon="3.52119">
        <ele>1060</ele>
        <time>2018-04-29T07:02:25Z</time>
      </trkpt>
      <trkpt lat="44.92721" lon="3.52113">
        <ele>1063</ele>
        <time>2018-04-29T07:02:36Z</time>
      </trkpt>
      <trkpt lat="44.92715" lon="3.52111">
        <ele>1063</ele>
        <time>2018-04-29T07:02:43Z</time>
      </trkpt>
      <trkpt lat="44.92713" lon="3.52103">
        <ele>1063</ele>
        <time>2018-04-29T07:02:51Z</time>
      </trkpt>
      <trkpt lat="44.92704" lon="3.52097">
        <ele>1064</ele>
        <time>2018-04-29T07:02:59Z</time>
      </trkpt>
      <trkpt lat="44.92699" lon="3.52093">
        <ele>1065</ele>
        <time>2018-04-29T07:03:04Z</time>
      </trkpt>
      <trkpt lat="44.92691" lon="3.52088">
        <ele>1066</ele>
        <time>2018-04-29T07:03:13Z</time>
      </trkpt>
      <trkpt lat="44.92686" lon="3.52086">
        <ele>1066</ele>
        <time>2018-04-29T07:03:17Z</time>
      </trkpt>
      <trkpt lat="44.92674" lon="3.52083">
        <ele>1067</ele>
        <time>2018-04-29T07:03:28Z</time>
      </trkpt>
      <trkpt lat="44.92668" lon="3.5208">
        <ele>1067</ele>
        <time>2018-04-29T07:03:35Z</time>
      </trkpt>
      <trkpt lat="44.92641" lon="3.52056">
        <ele>1070</ele>
        <time>2018-04-29T07:04:05Z</time>
      </trkpt>
      <trkpt lat="44.92632" lon="3.52037">
        <ele>1070</ele>
        <time>2018-04-29T07:04:19Z</time>
      </trkpt>
      <trkpt lat="44.92627" lon="3.52024">
        <ele>1071</ele>
        <time>2018-04-29T07:04:27Z</time>
      </trkpt>
      <trkpt lat="44.92624" lon="3.52018">
        <ele>1072</ele>
        <time>2018-04-29T07:04:32Z</time>
      </trkpt>
      <trkpt lat="44.92615" lon="3.52003">
        <ele>1071</ele>
        <time>2018-04-29T07:04:44Z</time>
      </trkpt>
      <trkpt lat="44.9261" lon="3.51992">
        <ele>1072</ele>
        <time>2018-04-29T07:04:52Z</time>
      </trkpt>
      <trkpt lat="44.92607" lon="3.51987">
        <ele>1072</ele>
        <time>2018-04-29T07:04:56Z</time>
      </trkpt>
      <trkpt lat="44.92603" lon="3.51982">
        <ele>1072</ele>
        <time>2018-04-29T07:05:00Z</time>
      </trkpt>
      <trkpt lat="44.92596" lon="3.51973">
        <ele>1072</ele>
        <time>2018-04-29T07:05:08Z</time>
      </trkpt>
      <trkpt lat="44.92593" lon="3.51968">
        <ele>1072</ele>
        <time>2018-04-29T07:05:13Z</time>
      </trkpt>
      <trkpt lat="44.92581" lon="3.51947">
        <ele>1075</ele>
        <time>2018-04-29T07:05:30Z</time>
      </trkpt>
      <trkpt lat="44.92563" lon="3.51935">
        <ele>1076</ele>
        <time>2018-04-29T07:05:47Z</time>
      </trkpt>
      <trkpt lat="44.92558" lon="3.51927">
        <ele>1075</ele>
        <time>2018-04-29T07:05:54Z</time>
      </trkpt>
      <trkpt lat="44.92544" lon="3.51908">
        <ele>1077</ele>
        <time>2018-04-29T07:06:11Z</time>
      </trkpt>
      <trkpt lat="44.92536" lon="3.519">
        <ele>1078</ele>
        <time>2018-04-29T07:06:19Z</time>
      </trkpt>
      <trkpt lat="44.92527" lon="3.51895">
        <ele>1077</ele>
        <time>2018-04-29T07:06:26Z</time>
      </trkpt>
      <trkpt lat="44.9252" lon="3.51886">
        <ele>1077</ele>
        <time>2018-04-29T07:06:34Z</time>
      </trkpt>
      <trkpt lat="44.92506" lon="3.51869">
        <ele>1080</ele>
        <time>2018-04-29T07:06:51Z</time>
      </trkpt>
      <trkpt lat="44.92499" lon="3.51859">
        <ele>1079</ele>
        <time>2018-04-29T07:07:00Z</time>
      </trkpt>
      <trkpt lat="44.92487" lon="3.5184">
        <ele>1080</ele>
        <time>2018-04-29T07:07:15Z</time>
      </trkpt>
      <trkpt lat="44.92481" lon="3.51828">
        <ele>1080</ele>
        <time>2018-04-29T07:07:23Z</time>
      </trkpt>
      <trkpt lat="44.92466" lon="3.51813">
        <ele>1078</ele>
        <time>2018-04-29T07:07:37Z</time>
      </trkpt>
      <trkpt lat="44.92458" lon="3.51804">
        <ele>1080</ele>
        <time>2018-04-29T07:07:45Z</time>
      </trkpt>
      <trkpt lat="44.92426" lon="3.51753">
        <ele>1079</ele>
        <time>2018-04-29T07:08:23Z</time>
      </trkpt>
      <trkpt lat="44.9241" lon="3.5172">
        <ele>1077</ele>
        <time>2018-04-29T07:08:43Z</time>
      </trkpt>
      <trkpt lat="44.92404" lon="3.51711">
        <ele>1078</ele>
        <time>2018-04-29T07:08:50Z</time>
      </trkpt>
      <trkpt lat="44.92399" lon="3.51699">
        <ele>1077</ele>
        <time>2018-04-29T07:08:58Z</time>
      </trkpt>
      <trkpt lat="44.92394" lon="3.51688">
        <ele>1076</ele>
        <time>2018-04-29T07:09:07Z</time>
      </trkpt>
      <trkpt lat="44.9239" lon="3.51675">
        <ele>1076</ele>
        <time>2018-04-29T07:09:16Z</time>
      </trkpt>
      <trkpt lat="44.92385" lon="3.51664">
        <ele>1076</ele>
        <time>2018-04-29T07:09:24Z</time>
      </trkpt>
      <trkpt lat="44.92377" lon="3.51658">
        <ele>1076</ele>
        <time>2018-04-29T07:09:32Z</time>
      </trkpt>
      <trkpt lat="44.92369" lon="3.51652">
        <ele>1075</ele>
        <time>2018-04-29T07:09:39Z</time>
      </trkpt>
      <trkpt lat="44.92344" lon="3.51633">
        <ele>1074</ele>
        <time>2018-04-29T07:10:01Z</time>
      </trkpt>
      <trkpt lat="44.92335" lon="3.51628">
        <ele>1074</ele>
        <time>2018-04-29T07:10:09Z</time>
      </trkpt>
      <trkpt lat="44.92327" lon="3.51619">
        <ele>1074</ele>
        <time>2018-04-29T07:10:17Z</time>
      </trkpt>
      <trkpt lat="44.92322" lon="3.51606">
        <ele>1074</ele>
        <time>2018-04-29T07:10:25Z</time>
      </trkpt>
      <trkpt lat="44.92312" lon="3.51584">
        <ele>1072</ele>
        <time>2018-04-29T07:10:42Z</time>
      </trkpt>
      <trkpt lat="44.923" lon="3.51563">
        <ele>1072</ele>
        <time>2018-04-29T07:10:57Z</time>
      </trkpt>
      <trkpt lat="44.92293" lon="3.51537">
        <ele>1071</ele>
        <time>2018-04-29T07:11:12Z</time>
      </trkpt>
      <trkpt lat="44.92291" lon="3.51524">
        <ele>1069</ele>
        <time>2018-04-29T07:11:19Z</time>
      </trkpt>
      <trkpt lat="44.92276" lon="3.51489">
        <ele>1069</ele>
        <time>2018-04-29T07:11:42Z</time>
      </trkpt>
      <trkpt lat="44.92266" lon="3.51465">
        <ele>1066</ele>
        <time>2018-04-29T07:11:58Z</time>
      </trkpt>
      <trkpt lat="44.92261" lon="3.51454">
        <ele>1066</ele>
        <time>2018-04-29T07:12:05Z</time>
      </trkpt>
      <trkpt lat="44.92255" lon="3.51445">
        <ele>1066</ele>
        <time>2018-04-29T07:12:12Z</time>
      </trkpt>
      <trkpt lat="44.92249" lon="3.51434">
        <ele>1066</ele>
        <time>2018-04-29T07:12:20Z</time>
      </trkpt>
      <trkpt lat="44.92238" lon="3.51411">
        <ele>1064</ele>
        <time>2018-04-29T07:12:35Z</time>
      </trkpt>
      <trkpt lat="44.92233" lon="3.514">
        <ele>1065</ele>
        <time>2018-04-29T07:12:43Z</time>
      </trkpt>
      <trkpt lat="44.92222" lon="3.51369">
        <ele>1064</ele>
        <time>2018-04-29T07:13:02Z</time>
      </trkpt>
      <trkpt lat="44.92211" lon="3.51327">
        <ele>1064</ele>
        <time>2018-04-29T07:13:26Z</time>
      </trkpt>
      <trkpt lat="44.92204" lon="3.513">
        <ele>1063</ele>
        <time>2018-04-29T07:13:42Z</time>
      </trkpt>
      <trkpt lat="44.92194" lon="3.5126">
        <ele>1065</ele>
        <time>2018-04-29T07:14:07Z</time>
      </trkpt>
      <trkpt lat="44.92191" lon="3.51253">
        <ele>1065</ele>
        <time>2018-04-29T07:14:12Z</time>
      </trkpt>
      <trkpt lat="44.92186" lon="3.51233">
        <ele>1064</ele>
        <time>2018-04-29T07:14:25Z</time>
      </trkpt>
      <trkpt lat="44.92184" lon="3.51226">
        <ele>1065</ele>
        <time>2018-04-29T07:14:30Z</time>
      </trkpt>
      <trkpt lat="44.92181" lon="3.5122">
        <ele>1065</ele>
        <time>2018-04-29T07:14:35Z</time>
      </trkpt>
      <trkpt lat="44.9218" lon="3.5121">
        <ele>1064</ele>
        <time>2018-04-29T07:14:42Z</time>
      </trkpt>
      <trkpt lat="44.92179" lon="3.51202">
        <ele>1064</ele>
        <time>2018-04-29T07:14:46Z</time>
      </trkpt>
      <trkpt lat="44.92178" lon="3.51196">
        <ele>1066</ele>
        <time>2018-04-29T07:14:50Z</time>
      </trkpt>
      <trkpt lat="44.92175" lon="3.51189">
        <ele>1066</ele>
        <time>2018-04-29T07:14:54Z</time>
      </trkpt>
      <trkpt lat="44.92174" lon="3.51183">
        <ele>1065</ele>
        <time>2018-04-29T07:14:58Z</time>
      </trkpt>
      <trkpt lat="44.92173" lon="3.51175">
        <ele>1065</ele>
        <time>2018-04-29T07:15:03Z</time>
      </trkpt>
      <trkpt lat="44.92172" lon="3.51167">
        <ele>1065</ele>
        <time>2018-04-29T07:15:08Z</time>
      </trkpt>
      <trkpt lat="44.92169" lon="3.51154">
        <ele>1065</ele>
        <time>2018-04-29T07:15:17Z</time>
      </trkpt>
      <trkpt lat="44.92167" lon="3.51145">
        <ele>1066</ele>
        <time>2018-04-29T07:15:23Z</time>
      </trkpt>
      <trkpt lat="44.92167" lon="3.51138">
        <ele>1066</ele>
        <time>2018-04-29T07:15:34Z</time>
      </trkpt>
      <trkpt lat="44.92166" lon="3.51129">
        <ele>1066</ele>
        <time>2018-04-29T07:16:02Z</time>
      </trkpt>
      <trkpt lat="44.92159" lon="3.51103">
        <ele>1068</ele>
        <time>2018-04-29T07:16:19Z</time>
      </trkpt>
      <trkpt lat="44.92157" lon="3.51089">
        <ele>1068</ele>
        <time>2018-04-29T07:16:28Z</time>
      </trkpt>
      <trkpt lat="44.92148" lon="3.51065">
        <ele>1070</ele>
        <time>2018-04-29T07:16:46Z</time>
      </trkpt>
      <trkpt lat="44.92141" lon="3.5104">
        <ele>1072</ele>
        <time>2018-04-29T07:17:02Z</time>
      </trkpt>
      <trkpt lat="44.9214" lon="3.51027">
        <ele>1072</ele>
        <time>2018-04-29T07:17:10Z</time>
      </trkpt>
      <trkpt lat="44.92121" lon="3.50981">
        <ele>1070</ele>
        <time>2018-04-29T07:17:43Z</time>
      </trkpt>
      <trkpt lat="44.92117" lon="3.50967">
        <ele>1070</ele>
        <time>2018-04-29T07:17:51Z</time>
      </trkpt>
      <trkpt lat="44.9211" lon="3.50957">
        <ele>1069</ele>
        <time>2018-04-29T07:17:58Z</time>
      </trkpt>
      <trkpt lat="44.921" lon="3.50934">
        <ele>1071</ele>
        <time>2018-04-29T07:18:14Z</time>
      </trkpt>
      <trkpt lat="44.92095" lon="3.50923">
        <ele>1072</ele>
        <time>2018-04-29T07:18:21Z</time>
      </trkpt>
      <trkpt lat="44.92088" lon="3.50913">
        <ele>1071</ele>
        <time>2018-04-29T07:18:29Z</time>
      </trkpt>
      <trkpt lat="44.92081" lon="3.50906">
        <ele>1070</ele>
        <time>2018-04-29T07:18:37Z</time>
      </trkpt>
      <trkpt lat="44.92076" lon="3.50893">
        <ele>1067</ele>
        <time>2018-04-29T07:18:46Z</time>
      </trkpt>
      <trkpt lat="44.92072" lon="3.50881">
        <ele>1067</ele>
        <time>2018-04-29T07:18:54Z</time>
      </trkpt>
      <trkpt lat="44.92067" lon="3.50869">
        <ele>1065</ele>
        <time>2018-04-29T07:19:02Z</time>
      </trkpt>
      <trkpt lat="44.92058" lon="3.50845">
        <ele>1066</ele>
        <time>2018-04-29T07:19:18Z</time>
      </trkpt>
      <trkpt lat="44.92054" lon="3.50832">
        <ele>1065</ele>
        <time>2018-04-29T07:19:26Z</time>
      </trkpt>
      <trkpt lat="44.92051" lon="3.50819">
        <ele>1065</ele>
        <time>2018-04-29T07:19:34Z</time>
      </trkpt>
      <trkpt lat="44.92046" lon="3.50807">
        <ele>1065</ele>
        <time>2018-04-29T07:19:43Z</time>
      </trkpt>
      <trkpt lat="44.92033" lon="3.50772">
        <ele>1061</ele>
        <time>2018-04-29T07:20:08Z</time>
      </trkpt>
      <trkpt lat="44.92026" lon="3.50766">
        <ele>1061</ele>
        <time>2018-04-29T07:20:19Z</time>
      </trkpt>
      <trkpt lat="44.9202" lon="3.50753">
        <ele>1060</ele>
        <time>2018-04-29T07:20:29Z</time>
      </trkpt>
      <trkpt lat="44.92017" lon="3.50746">
        <ele>1060</ele>
        <time>2018-04-29T07:20:34Z</time>
      </trkpt>
      <trkpt lat="44.92016" lon="3.5074">
        <ele>1061</ele>
        <time>2018-04-29T07:20:38Z</time>
      </trkpt>
      <trkpt lat="44.9201" lon="3.50721">
        <ele>1058</ele>
        <time>2018-04-29T07:20:51Z</time>
      </trkpt>
      <trkpt lat="44.92008" lon="3.50715">
        <ele>1058</ele>
        <time>2018-04-29T07:20:55Z</time>
      </trkpt>
      <trkpt lat="44.92003" lon="3.50703">
        <ele>1059</ele>
        <time>2018-04-29T07:21:03Z</time>
      </trkpt>
      <trkpt lat="44.91994" lon="3.50687">
        <ele>1055</ele>
        <time>2018-04-29T07:21:15Z</time>
      </trkpt>
      <trkpt lat="44.91984" lon="3.50661">
        <ele>1056</ele>
        <time>2018-04-29T07:21:31Z</time>
      </trkpt>
      <trkpt lat="44.9198" lon="3.50656">
        <ele>1056</ele>
        <time>2018-04-29T07:21:35Z</time>
      </trkpt>
      <trkpt lat="44.91976" lon="3.50652">
        <ele>1055</ele>
        <time>2018-04-29T07:21:39Z</time>
      </trkpt>
      <trkpt lat="44.91966" lon="3.50635">
        <ele>1055</ele>
        <time>2018-04-29T07:21:52Z</time>
      </trkpt>
      <trkpt lat="44.91958" lon="3.50623">
        <ele>1053</ele>
        <time>2018-04-29T07:22:02Z</time>
      </trkpt>
      <trkpt lat="44.91954" lon="3.5062">
        <ele>1054</ele>
        <time>2018-04-29T07:22:06Z</time>
      </trkpt>
      <trkpt lat="44.91949" lon="3.50618">
        <ele>1054</ele>
        <time>2018-04-29T07:22:11Z</time>
      </trkpt>
      <trkpt lat="44.91945" lon="3.50616">
        <ele>1055</ele>
        <time>2018-04-29T07:22:15Z</time>
      </trkpt>
      <trkpt lat="44.9194" lon="3.50612">
        <ele>1054</ele>
        <time>2018-04-29T07:22:19Z</time>
      </trkpt>
      <trkpt lat="44.91935" lon="3.50608">
        <ele>1054</ele>
        <time>2018-04-29T07:22:23Z</time>
      </trkpt>
      <trkpt lat="44.91931" lon="3.50603">
        <ele>1055</ele>
        <time>2018-04-29T07:22:27Z</time>
      </trkpt>
      <trkpt lat="44.91929" lon="3.50598">
        <ele>1055</ele>
        <time>2018-04-29T07:22:30Z</time>
      </trkpt>
      <trkpt lat="44.91924" lon="3.50593">
        <ele>1054</ele>
        <time>2018-04-29T07:22:35Z</time>
      </trkpt>
      <trkpt lat="44.91918" lon="3.50573">
        <ele>1051</ele>
        <time>2018-04-29T07:22:47Z</time>
      </trkpt>
      <trkpt lat="44.91916" lon="3.50567">
        <ele>1051</ele>
        <time>2018-04-29T07:22:51Z</time>
      </trkpt>
      <trkpt lat="44.91914" lon="3.50561">
        <ele>1050</ele>
        <time>2018-04-29T07:22:55Z</time>
      </trkpt>
      <trkpt lat="44.91913" lon="3.50554">
        <ele>1052</ele>
        <time>2018-04-29T07:22:59Z</time>
      </trkpt>
      <trkpt lat="44.91906" lon="3.5053">
        <ele>1049</ele>
        <time>2018-04-29T07:23:15Z</time>
      </trkpt>
      <trkpt lat="44.91905" lon="3.50523">
        <ele>1049</ele>
        <time>2018-04-29T07:23:19Z</time>
      </trkpt>
      <trkpt lat="44.91905" lon="3.50515">
        <ele>1050</ele>
        <time>2018-04-29T07:23:24Z</time>
      </trkpt>
      <trkpt lat="44.91904" lon="3.50507">
        <ele>1050</ele>
        <time>2018-04-29T07:23:29Z</time>
      </trkpt>
      <trkpt lat="44.91902" lon="3.50501">
        <ele>1050</ele>
        <time>2018-04-29T07:23:41Z</time>
      </trkpt>
      <trkpt lat="44.91895" lon="3.50492">
        <ele>1050</ele>
        <time>2018-04-29T07:23:49Z</time>
      </trkpt>
      <trkpt lat="44.9189" lon="3.50489">
        <ele>1050</ele>
        <time>2018-04-29T07:23:53Z</time>
      </trkpt>
      <trkpt lat="44.91886" lon="3.50485">
        <ele>1049</ele>
        <time>2018-04-29T07:23:57Z</time>
      </trkpt>
      <trkpt lat="44.91871" lon="3.50481">
        <ele>1051</ele>
        <time>2018-04-29T07:24:09Z</time>
      </trkpt>
      <trkpt lat="44.9186" lon="3.50483">
        <ele>1051</ele>
        <time>2018-04-29T07:24:17Z</time>
      </trkpt>
      <trkpt lat="44.91856" lon="3.50482">
        <ele>1051</ele>
        <time>2018-04-29T07:24:21Z</time>
      </trkpt>
      <trkpt lat="44.9185" lon="3.50484">
        <ele>1051</ele>
        <time>2018-04-29T07:24:25Z</time>
      </trkpt>
      <trkpt lat="44.9184" lon="3.50493">
        <ele>1053</ele>
        <time>2018-04-29T07:24:38Z</time>
      </trkpt>
      <trkpt lat="44.91834" lon="3.50497">
        <ele>1054</ele>
        <time>2018-04-29T07:24:58Z</time>
      </trkpt>
      <trkpt lat="44.91831" lon="3.50506">
        <ele>1055</ele>
        <time>2018-04-29T07:25:16Z</time>
      </trkpt>
      <trkpt lat="44.91828" lon="3.50501">
        <ele>1059</ele>
        <time>2018-04-29T07:31:50Z</time>
      </trkpt>
      <trkpt lat="44.91825" lon="3.50508">
        <ele>1057</ele>
        <time>2018-04-29T07:32:29Z</time>
      </trkpt>
      <trkpt lat="44.9182" lon="3.50511">
        <ele>1058</ele>
        <time>2018-04-29T07:32:33Z</time>
      </trkpt>
      <trkpt lat="44.91807" lon="3.50513">
        <ele>1060</ele>
        <time>2018-04-29T07:32:46Z</time>
      </trkpt>
      <trkpt lat="44.91803" lon="3.50513">
        <ele>1061</ele>
        <time>2018-04-29T07:32:50Z</time>
      </trkpt>
      <trkpt lat="44.91797" lon="3.50502">
        <ele>1061</ele>
        <time>2018-04-29T07:32:58Z</time>
      </trkpt>
      <trkpt lat="44.91788" lon="3.50509">
        <ele>1062</ele>
        <time>2018-04-29T07:33:06Z</time>
      </trkpt>
      <trkpt lat="44.91779" lon="3.50505">
        <ele>1064</ele>
        <time>2018-04-29T07:33:17Z</time>
      </trkpt>
      <trkpt lat="44.91773" lon="3.50506">
        <ele>1065</ele>
        <time>2018-04-29T07:33:21Z</time>
      </trkpt>
      <trkpt lat="44.91769" lon="3.50504">
        <ele>1065</ele>
        <time>2018-04-29T07:33:26Z</time>
      </trkpt>
      <trkpt lat="44.91764" lon="3.50505">
        <ele>1065</ele>
        <time>2018-04-29T07:33:30Z</time>
      </trkpt>
      <trkpt lat="44.91738" lon="3.50482">
        <ele>1073</ele>
        <time>2018-04-29T07:34:06Z</time>
      </trkpt>
      <trkpt lat="44.91739" lon="3.50475">
        <ele>1073</ele>
        <time>2018-04-29T07:34:15Z</time>
      </trkpt>
      <trkpt lat="44.91737" lon="3.50469">
        <ele>1073</ele>
        <time>2018-04-29T07:34:20Z</time>
      </trkpt>
      <trkpt lat="44.91732" lon="3.50466">
        <ele>1072</ele>
        <time>2018-04-29T07:34:27Z</time>
      </trkpt>
      <trkpt lat="44.91726" lon="3.50464">
        <ele>1075</ele>
        <time>2018-04-29T07:34:34Z</time>
      </trkpt>
      <trkpt lat="44.91722" lon="3.50455">
        <ele>1077</ele>
        <time>2018-04-29T07:34:42Z</time>
      </trkpt>
      <trkpt lat="44.91718" lon="3.50447">
        <ele>1078</ele>
        <time>2018-04-29T07:34:49Z</time>
      </trkpt>
      <trkpt lat="44.91716" lon="3.50439">
        <ele>1077</ele>
        <time>2018-04-29T07:34:56Z</time>
      </trkpt>
      <trkpt lat="44.91704" lon="3.50423">
        <ele>1081</ele>
        <time>2018-04-29T07:35:16Z</time>
      </trkpt>
      <trkpt lat="44.917" lon="3.50421">
        <ele>1081</ele>
        <time>2018-04-29T07:35:21Z</time>
      </trkpt>
      <trkpt lat="44.91694" lon="3.50417">
        <ele>1081</ele>
        <time>2018-04-29T07:35:28Z</time>
      </trkpt>
      <trkpt lat="44.9169" lon="3.50415">
        <ele>1081</ele>
        <time>2018-04-29T07:35:33Z</time>
      </trkpt>
      <trkpt lat="44.91682" lon="3.50414">
        <ele>1082</ele>
        <time>2018-04-29T07:35:41Z</time>
      </trkpt>
      <trkpt lat="44.91677" lon="3.50411">
        <ele>1082</ele>
        <time>2018-04-29T07:35:46Z</time>
      </trkpt>
      <trkpt lat="44.91672" lon="3.50412">
        <ele>1082</ele>
        <time>2018-04-29T07:35:50Z</time>
      </trkpt>
      <trkpt lat="44.91652" lon="3.50413">
        <ele>1083</ele>
        <time>2018-04-29T07:36:49Z</time>
      </trkpt>
      <trkpt lat="44.91642" lon="3.50414">
        <ele>1084</ele>
        <time>2018-04-29T07:36:59Z</time>
      </trkpt>
      <trkpt lat="44.91633" lon="3.50415">
        <ele>1085</ele>
        <time>2018-04-29T07:37:07Z</time>
      </trkpt>
      <trkpt lat="44.91623" lon="3.50417">
        <ele>1085</ele>
        <time>2018-04-29T07:37:16Z</time>
      </trkpt>
      <trkpt lat="44.91608" lon="3.50422">
        <ele>1085</ele>
        <time>2018-04-29T07:37:34Z</time>
      </trkpt>
      <trkpt lat="44.91602" lon="3.50424">
        <ele>1085</ele>
        <time>2018-04-29T07:37:48Z</time>
      </trkpt>
      <trkpt lat="44.91597" lon="3.50427">
        <ele>1084</ele>
        <time>2018-04-29T07:37:53Z</time>
      </trkpt>
      <trkpt lat="44.91592" lon="3.5043">
        <ele>1086</ele>
        <time>2018-04-29T07:37:58Z</time>
      </trkpt>
      <trkpt lat="44.91581" lon="3.50438">
        <ele>1086</ele>
        <time>2018-04-29T07:38:10Z</time>
      </trkpt>
      <trkpt lat="44.91577" lon="3.50441">
        <ele>1087</ele>
        <time>2018-04-29T07:38:14Z</time>
      </trkpt>
      <trkpt lat="44.91568" lon="3.50446">
        <ele>1086</ele>
        <time>2018-04-29T07:38:23Z</time>
      </trkpt>
      <trkpt lat="44.91563" lon="3.50448">
        <ele>1087</ele>
        <time>2018-04-29T07:38:28Z</time>
      </trkpt>
      <trkpt lat="44.9154" lon="3.50461">
        <ele>1087</ele>
        <time>2018-04-29T07:38:55Z</time>
      </trkpt>
      <trkpt lat="44.91535" lon="3.50464">
        <ele>1087</ele>
        <time>2018-04-29T07:38:59Z</time>
      </trkpt>
      <trkpt lat="44.9153" lon="3.50465">
        <ele>1088</ele>
        <time>2018-04-29T07:39:04Z</time>
      </trkpt>
      <trkpt lat="44.91525" lon="3.50465">
        <ele>1087</ele>
        <time>2018-04-29T07:39:09Z</time>
      </trkpt>
      <trkpt lat="44.91509" lon="3.50466">
        <ele>1087</ele>
        <time>2018-04-29T07:39:25Z</time>
      </trkpt>
      <trkpt lat="44.91499" lon="3.50464">
        <ele>1088</ele>
        <time>2018-04-29T07:39:39Z</time>
      </trkpt>
      <trkpt lat="44.91486" lon="3.50461">
        <ele>1088</ele>
        <time>2018-04-29T07:39:53Z</time>
      </trkpt>
      <trkpt lat="44.91481" lon="3.50458">
        <ele>1090</ele>
        <time>2018-04-29T07:39:58Z</time>
      </trkpt>
      <trkpt lat="44.91476" lon="3.50455">
        <ele>1090</ele>
        <time>2018-04-29T07:40:03Z</time>
      </trkpt>
      <trkpt lat="44.91472" lon="3.50452">
        <ele>1090</ele>
        <time>2018-04-29T07:40:12Z</time>
      </trkpt>
      <trkpt lat="44.91468" lon="3.50448">
        <ele>1091</ele>
        <time>2018-04-29T07:40:18Z</time>
      </trkpt>
      <trkpt lat="44.91463" lon="3.50445">
        <ele>1092</ele>
        <time>2018-04-29T07:40:24Z</time>
      </trkpt>
      <trkpt lat="44.91459" lon="3.50443">
        <ele>1092</ele>
        <time>2018-04-29T07:40:29Z</time>
      </trkpt>
      <trkpt lat="44.91453" lon="3.50436">
        <ele>1093</ele>
        <time>2018-04-29T07:40:37Z</time>
      </trkpt>
      <trkpt lat="44.91438" lon="3.5043">
        <ele>1095</ele>
        <time>2018-04-29T07:40:55Z</time>
      </trkpt>
      <trkpt lat="44.91424" lon="3.50429">
        <ele>1095</ele>
        <time>2018-04-29T07:41:12Z</time>
      </trkpt>
      <trkpt lat="44.91415" lon="3.50427">
        <ele>1096</ele>
        <time>2018-04-29T07:41:21Z</time>
      </trkpt>
      <trkpt lat="44.91398" lon="3.50423">
        <ele>1097</ele>
        <time>2018-04-29T07:41:38Z</time>
      </trkpt>
      <trkpt lat="44.91382" lon="3.50419">
        <ele>1099</ele>
        <time>2018-04-29T07:41:55Z</time>
      </trkpt>
      <trkpt lat="44.91377" lon="3.50416">
        <ele>1102</ele>
        <time>2018-04-29T07:42:00Z</time>
      </trkpt>
      <trkpt lat="44.91373" lon="3.50413">
        <ele>1102</ele>
        <time>2018-04-29T07:42:05Z</time>
      </trkpt>
      <trkpt lat="44.91369" lon="3.5041">
        <ele>1103</ele>
        <time>2018-04-29T07:42:10Z</time>
      </trkpt>
      <trkpt lat="44.9136" lon="3.50405">
        <ele>1101</ele>
        <time>2018-04-29T07:42:19Z</time>
      </trkpt>
      <trkpt lat="44.91355" lon="3.50402">
        <ele>1101</ele>
        <time>2018-04-29T07:42:24Z</time>
      </trkpt>
      <trkpt lat="44.91345" lon="3.50397">
        <ele>1101</ele>
        <time>2018-04-29T07:42:34Z</time>
      </trkpt>
      <trkpt lat="44.91336" lon="3.50393">
        <ele>1102</ele>
        <time>2018-04-29T07:42:42Z</time>
      </trkpt>
      <trkpt lat="44.91332" lon="3.50392">
        <ele>1102</ele>
        <time>2018-04-29T07:42:46Z</time>
      </trkpt>
      <trkpt lat="44.91322" lon="3.50391">
        <ele>1103</ele>
        <time>2018-04-29T07:42:56Z</time>
      </trkpt>
      <trkpt lat="44.91317" lon="3.50391">
        <ele>1103</ele>
        <time>2018-04-29T07:43:01Z</time>
      </trkpt>
      <trkpt lat="44.91311" lon="3.50392">
        <ele>1103</ele>
        <time>2018-04-29T07:43:06Z</time>
      </trkpt>
      <trkpt lat="44.91301" lon="3.50392">
        <ele>1104</ele>
        <time>2018-04-29T07:43:16Z</time>
      </trkpt>
      <trkpt lat="44.91291" lon="3.50391">
        <ele>1104</ele>
        <time>2018-04-29T07:43:25Z</time>
      </trkpt>
      <trkpt lat="44.91286" lon="3.5039">
        <ele>1104</ele>
        <time>2018-04-29T07:43:30Z</time>
      </trkpt>
      <trkpt lat="44.91281" lon="3.50391">
        <ele>1104</ele>
        <time>2018-04-29T07:43:34Z</time>
      </trkpt>
      <trkpt lat="44.91271" lon="3.5039">
        <ele>1105</ele>
        <time>2018-04-29T07:43:44Z</time>
      </trkpt>
      <trkpt lat="44.91266" lon="3.5039">
        <ele>1105</ele>
        <time>2018-04-29T07:43:49Z</time>
      </trkpt>
      <trkpt lat="44.91258" lon="3.50391">
        <ele>1105</ele>
        <time>2018-04-29T07:43:57Z</time>
      </trkpt>
      <trkpt lat="44.91252" lon="3.50389">
        <ele>1105</ele>
        <time>2018-04-29T07:44:04Z</time>
      </trkpt>
      <trkpt lat="44.91246" lon="3.5039">
        <ele>1105</ele>
        <time>2018-04-29T07:44:10Z</time>
      </trkpt>
      <trkpt lat="44.91209" lon="3.50401">
        <ele>1109</ele>
        <time>2018-04-29T07:44:48Z</time>
      </trkpt>
      <trkpt lat="44.91193" lon="3.50407">
        <ele>1110</ele>
        <time>2018-04-29T07:45:06Z</time>
      </trkpt>
      <trkpt lat="44.91178" lon="3.50414">
        <ele>1108</ele>
        <time>2018-04-29T07:45:21Z</time>
      </trkpt>
      <trkpt lat="44.91166" lon="3.50417">
        <ele>1107</ele>
        <time>2018-04-29T07:45:57Z</time>
      </trkpt>
      <trkpt lat="44.91159" lon="3.50418">
        <ele>1107</ele>
        <time>2018-04-29T07:46:04Z</time>
      </trkpt>
      <trkpt lat="44.91154" lon="3.5042">
        <ele>1107</ele>
        <time>2018-04-29T07:46:08Z</time>
      </trkpt>
      <trkpt lat="44.91145" lon="3.50423">
        <ele>1105</ele>
        <time>2018-04-29T07:46:16Z</time>
      </trkpt>
      <trkpt lat="44.9114" lon="3.50424">
        <ele>1105</ele>
        <time>2018-04-29T07:46:20Z</time>
      </trkpt>
      <trkpt lat="44.91134" lon="3.50425">
        <ele>1105</ele>
        <time>2018-04-29T07:46:25Z</time>
      </trkpt>
      <trkpt lat="44.9113" lon="3.50426">
        <ele>1105</ele>
        <time>2018-04-29T07:46:29Z</time>
      </trkpt>
      <trkpt lat="44.91125" lon="3.50428">
        <ele>1105</ele>
        <time>2018-04-29T07:46:33Z</time>
      </trkpt>
      <trkpt lat="44.91121" lon="3.50428">
        <ele>1105</ele>
        <time>2018-04-29T07:46:37Z</time>
      </trkpt>
      <trkpt lat="44.91106" lon="3.50433">
        <ele>1103</ele>
        <time>2018-04-29T07:46:51Z</time>
      </trkpt>
      <trkpt lat="44.91099" lon="3.50443">
        <ele>1105</ele>
        <time>2018-04-29T07:47:00Z</time>
      </trkpt>
      <trkpt lat="44.91096" lon="3.50449">
        <ele>1104</ele>
        <time>2018-04-29T07:47:05Z</time>
      </trkpt>
      <trkpt lat="44.91083" lon="3.50454">
        <ele>1104</ele>
        <time>2018-04-29T07:47:29Z</time>
      </trkpt>
      <trkpt lat="44.91079" lon="3.50459">
        <ele>1103</ele>
        <time>2018-04-29T07:47:34Z</time>
      </trkpt>
      <trkpt lat="44.91075" lon="3.50465">
        <ele>1104</ele>
        <time>2018-04-29T07:47:39Z</time>
      </trkpt>
      <trkpt lat="44.91071" lon="3.50469">
        <ele>1104</ele>
        <time>2018-04-29T07:47:44Z</time>
      </trkpt>
      <trkpt lat="44.91062" lon="3.50478">
        <ele>1106</ele>
        <time>2018-04-29T07:47:59Z</time>
      </trkpt>
      <trkpt lat="44.91058" lon="3.50482">
        <ele>1106</ele>
        <time>2018-04-29T07:48:05Z</time>
      </trkpt>
      <trkpt lat="44.91054" lon="3.50488">
        <ele>1104</ele>
        <time>2018-04-29T07:49:14Z</time>
      </trkpt>
      <trkpt lat="44.91051" lon="3.50493">
        <ele>1104</ele>
        <time>2018-04-29T07:49:19Z</time>
      </trkpt>
      <trkpt lat="44.91048" lon="3.50498">
        <ele>1104</ele>
        <time>2018-04-29T07:49:24Z</time>
      </trkpt>
      <trkpt lat="44.91044" lon="3.50504">
        <ele>1104</ele>
        <time>2018-04-29T07:49:29Z</time>
      </trkpt>
      <trkpt lat="44.91041" lon="3.50508">
        <ele>1104</ele>
        <time>2018-04-29T07:49:33Z</time>
      </trkpt>
      <trkpt lat="44.91033" lon="3.50516">
        <ele>1103</ele>
        <time>2018-04-29T07:49:42Z</time>
      </trkpt>
      <trkpt lat="44.91028" lon="3.50519">
        <ele>1103</ele>
        <time>2018-04-29T07:49:47Z</time>
      </trkpt>
      <trkpt lat="44.91023" lon="3.50528">
        <ele>1101</ele>
        <time>2018-04-29T07:49:57Z</time>
      </trkpt>
      <trkpt lat="44.91017" lon="3.5053">
        <ele>1105</ele>
        <time>2018-04-29T07:50:27Z</time>
      </trkpt>
      <trkpt lat="44.91012" lon="3.5053">
        <ele>1105</ele>
        <time>2018-04-29T07:50:31Z</time>
      </trkpt>
      <trkpt lat="44.90996" lon="3.50528">
        <ele>1104</ele>
        <time>2018-04-29T07:50:45Z</time>
      </trkpt>
      <trkpt lat="44.90992" lon="3.50526">
        <ele>1104</ele>
        <time>2018-04-29T07:50:49Z</time>
      </trkpt>
      <trkpt lat="44.90987" lon="3.50523">
        <ele>1104</ele>
        <time>2018-04-29T07:50:53Z</time>
      </trkpt>
      <trkpt lat="44.90982" lon="3.50523">
        <ele>1104</ele>
        <time>2018-04-29T07:50:57Z</time>
      </trkpt>
      <trkpt lat="44.90979" lon="3.50518">
        <ele>1105</ele>
        <time>2018-04-29T07:51:01Z</time>
      </trkpt>
      <trkpt lat="44.90973" lon="3.50507">
        <ele>1105</ele>
        <time>2018-04-29T07:51:09Z</time>
      </trkpt>
      <trkpt lat="44.90971" lon="3.505">
        <ele>1105</ele>
        <time>2018-04-29T07:51:14Z</time>
      </trkpt>
      <trkpt lat="44.90969" lon="3.50479">
        <ele>1102</ele>
        <time>2018-04-29T07:51:41Z</time>
      </trkpt>
      <trkpt lat="44.90967" lon="3.50471">
        <ele>1102</ele>
        <time>2018-04-29T07:51:46Z</time>
      </trkpt>
      <trkpt lat="44.90967" lon="3.50452">
        <ele>1104</ele>
        <time>2018-04-29T07:51:58Z</time>
      </trkpt>
      <trkpt lat="44.90967" lon="3.50442">
        <ele>1103</ele>
        <time>2018-04-29T07:52:08Z</time>
      </trkpt>
      <trkpt lat="44.90969" lon="3.50435">
        <ele>1104</ele>
        <time>2018-04-29T07:52:13Z</time>
      </trkpt>
      <trkpt lat="44.90971" lon="3.50429">
        <ele>1104</ele>
        <time>2018-04-29T07:52:18Z</time>
      </trkpt>
      <trkpt lat="44.90971" lon="3.50423">
        <ele>1104</ele>
        <time>2018-04-29T07:52:23Z</time>
      </trkpt>
      <trkpt lat="44.9097" lon="3.50414">
        <ele>1105</ele>
        <time>2018-04-29T07:52:31Z</time>
      </trkpt>
      <trkpt lat="44.90969" lon="3.50407">
        <ele>1104</ele>
        <time>2018-04-29T07:52:37Z</time>
      </trkpt>
      <trkpt lat="44.90966" lon="3.50401">
        <ele>1105</ele>
        <time>2018-04-29T07:52:42Z</time>
      </trkpt>
      <trkpt lat="44.90958" lon="3.50392">
        <ele>1109</ele>
        <time>2018-04-29T07:52:52Z</time>
      </trkpt>
      <trkpt lat="44.90951" lon="3.50387">
        <ele>1108</ele>
        <time>2018-04-29T07:53:00Z</time>
      </trkpt>
      <trkpt lat="44.90944" lon="3.50383">
        <ele>1109</ele>
        <time>2018-04-29T07:53:08Z</time>
      </trkpt>
      <trkpt lat="44.90938" lon="3.5038">
        <ele>1107</ele>
        <time>2018-04-29T07:53:15Z</time>
      </trkpt>
      <trkpt lat="44.90933" lon="3.50377">
        <ele>1107</ele>
        <time>2018-04-29T07:53:20Z</time>
      </trkpt>
      <trkpt lat="44.90924" lon="3.50371">
        <ele>1110</ele>
        <time>2018-04-29T07:53:30Z</time>
      </trkpt>
      <trkpt lat="44.90908" lon="3.50369">
        <ele>1110</ele>
        <time>2018-04-29T07:53:44Z</time>
      </trkpt>
      <trkpt lat="44.90902" lon="3.50368">
        <ele>1112</ele>
        <time>2018-04-29T07:53:49Z</time>
      </trkpt>
      <trkpt lat="44.90893" lon="3.50362">
        <ele>1112</ele>
        <time>2018-04-29T07:53:58Z</time>
      </trkpt>
      <trkpt lat="44.90889" lon="3.50358">
        <ele>1111</ele>
        <time>2018-04-29T07:54:02Z</time>
      </trkpt>
      <trkpt lat="44.90882" lon="3.50346">
        <ele>1112</ele>
        <time>2018-04-29T07:54:12Z</time>
      </trkpt>
      <trkpt lat="44.90878" lon="3.50342">
        <ele>1111</ele>
        <time>2018-04-29T07:54:16Z</time>
      </trkpt>
      <trkpt lat="44.90876" lon="3.50336">
        <ele>1111</ele>
        <time>2018-04-29T07:54:20Z</time>
      </trkpt>
      <trkpt lat="44.90873" lon="3.50329">
        <ele>1111</ele>
        <time>2018-04-29T07:54:25Z</time>
      </trkpt>
      <trkpt lat="44.90871" lon="3.50323">
        <ele>1111</ele>
        <time>2018-04-29T07:54:29Z</time>
      </trkpt>
      <trkpt lat="44.90868" lon="3.50318">
        <ele>1111</ele>
        <time>2018-04-29T07:54:33Z</time>
      </trkpt>
      <trkpt lat="44.90866" lon="3.50312">
        <ele>1111</ele>
        <time>2018-04-29T07:54:37Z</time>
      </trkpt>
      <trkpt lat="44.9086" lon="3.50301">
        <ele>1111</ele>
        <time>2018-04-29T07:54:47Z</time>
      </trkpt>
      <trkpt lat="44.90856" lon="3.50295">
        <ele>1111</ele>
        <time>2018-04-29T07:54:52Z</time>
      </trkpt>
      <trkpt lat="44.90853" lon="3.50289">
        <ele>1110</ele>
        <time>2018-04-29T07:54:56Z</time>
      </trkpt>
      <trkpt lat="44.9085" lon="3.50282">
        <ele>1110</ele>
        <time>2018-04-29T07:55:00Z</time>
      </trkpt>
      <trkpt lat="44.90846" lon="3.50276">
        <ele>1110</ele>
        <time>2018-04-29T07:55:04Z</time>
      </trkpt>
      <trkpt lat="44.90843" lon="3.5027">
        <ele>1110</ele>
        <time>2018-04-29T07:55:08Z</time>
      </trkpt>
      <trkpt lat="44.9084" lon="3.50264">
        <ele>1111</ele>
        <time>2018-04-29T07:55:13Z</time>
      </trkpt>
      <trkpt lat="44.90835" lon="3.50259">
        <ele>1111</ele>
        <time>2018-04-29T07:55:18Z</time>
      </trkpt>
      <trkpt lat="44.90827" lon="3.50251">
        <ele>1108</ele>
        <time>2018-04-29T07:55:26Z</time>
      </trkpt>
      <trkpt lat="44.9082" lon="3.50242">
        <ele>1108</ele>
        <time>2018-04-29T07:55:34Z</time>
      </trkpt>
      <trkpt lat="44.90817" lon="3.50236">
        <ele>1107</ele>
        <time>2018-04-29T07:55:38Z</time>
      </trkpt>
      <trkpt lat="44.90801" lon="3.50219">
        <ele>1106</ele>
        <time>2018-04-29T07:55:55Z</time>
      </trkpt>
      <trkpt lat="44.90797" lon="3.50215">
        <ele>1106</ele>
        <time>2018-04-29T07:55:59Z</time>
      </trkpt>
      <trkpt lat="44.90793" lon="3.50212">
        <ele>1107</ele>
        <time>2018-04-29T07:56:03Z</time>
      </trkpt>
      <trkpt lat="44.90779" lon="3.502">
        <ele>1104</ele>
        <time>2018-04-29T07:56:16Z</time>
      </trkpt>
      <trkpt lat="44.90774" lon="3.50198">
        <ele>1104</ele>
        <time>2018-04-29T07:56:20Z</time>
      </trkpt>
      <trkpt lat="44.9077" lon="3.50196">
        <ele>1104</ele>
        <time>2018-04-29T07:56:24Z</time>
      </trkpt>
      <trkpt lat="44.90754" lon="3.50194">
        <ele>1102</ele>
        <time>2018-04-29T07:56:36Z</time>
      </trkpt>
      <trkpt lat="44.90749" lon="3.50194">
        <ele>1101</ele>
        <time>2018-04-29T07:56:40Z</time>
      </trkpt>
      <trkpt lat="44.90744" lon="3.50194">
        <ele>1102</ele>
        <time>2018-04-29T07:56:44Z</time>
      </trkpt>
      <trkpt lat="44.90734" lon="3.50195">
        <ele>1100</ele>
        <time>2018-04-29T07:56:52Z</time>
      </trkpt>
      <trkpt lat="44.90729" lon="3.50194">
        <ele>1100</ele>
        <time>2018-04-29T07:56:56Z</time>
      </trkpt>
      <trkpt lat="44.90719" lon="3.50195">
        <ele>1098</ele>
        <time>2018-04-29T07:57:04Z</time>
      </trkpt>
      <trkpt lat="44.90709" lon="3.50198">
        <ele>1100</ele>
        <time>2018-04-29T07:57:12Z</time>
      </trkpt>
      <trkpt lat="44.90704" lon="3.50198">
        <ele>1099</ele>
        <time>2018-04-29T07:57:16Z</time>
      </trkpt>
      <trkpt lat="44.90699" lon="3.50197">
        <ele>1099</ele>
        <time>2018-04-29T07:57:21Z</time>
      </trkpt>
      <trkpt lat="44.9069" lon="3.50196">
        <ele>1102</ele>
        <time>2018-04-29T07:57:29Z</time>
      </trkpt>
      <trkpt lat="44.90685" lon="3.50195">
        <ele>1101</ele>
        <time>2018-04-29T07:57:33Z</time>
      </trkpt>
      <trkpt lat="44.90671" lon="3.50195">
        <ele>1101</ele>
        <time>2018-04-29T07:57:46Z</time>
      </trkpt>
      <trkpt lat="44.90661" lon="3.50194">
        <ele>1100</ele>
        <time>2018-04-29T07:57:55Z</time>
      </trkpt>
      <trkpt lat="44.90656" lon="3.50194">
        <ele>1100</ele>
        <time>2018-04-29T07:58:00Z</time>
      </trkpt>
      <trkpt lat="44.9065" lon="3.50193">
        <ele>1100</ele>
        <time>2018-04-29T07:58:05Z</time>
      </trkpt>
      <trkpt lat="44.90626" lon="3.5019">
        <ele>1103</ele>
        <time>2018-04-29T07:58:28Z</time>
      </trkpt>
      <trkpt lat="44.90615" lon="3.50191">
        <ele>1101</ele>
        <time>2018-04-29T07:58:37Z</time>
      </trkpt>
      <trkpt lat="44.90606" lon="3.50192">
        <ele>1102</ele>
        <time>2018-04-29T07:58:46Z</time>
      </trkpt>
      <trkpt lat="44.90595" lon="3.50198">
        <ele>1103</ele>
        <time>2018-04-29T07:58:56Z</time>
      </trkpt>
      <trkpt lat="44.90556" lon="3.50203">
        <ele>1104</ele>
        <time>2018-04-29T07:59:29Z</time>
      </trkpt>
      <trkpt lat="44.90546" lon="3.50201">
        <ele>1104</ele>
        <time>2018-04-29T07:59:37Z</time>
      </trkpt>
      <trkpt lat="44.90537" lon="3.50199">
        <ele>1106</ele>
        <time>2018-04-29T07:59:45Z</time>
      </trkpt>
      <trkpt lat="44.9053" lon="3.50196">
        <ele>1104</ele>
        <time>2018-04-29T07:59:51Z</time>
      </trkpt>
      <trkpt lat="44.90519" lon="3.50194">
        <ele>1105</ele>
        <time>2018-04-29T07:59:59Z</time>
      </trkpt>
      <trkpt lat="44.90513" lon="3.50193">
        <ele>1106</ele>
        <time>2018-04-29T08:00:03Z</time>
      </trkpt>
      <trkpt lat="44.90509" lon="3.50189">
        <ele>1105</ele>
        <time>2018-04-29T08:00:07Z</time>
      </trkpt>
      <trkpt lat="44.90505" lon="3.50185">
        <ele>1105</ele>
        <time>2018-04-29T08:00:11Z</time>
      </trkpt>
      <trkpt lat="44.905" lon="3.50182">
        <ele>1106</ele>
        <time>2018-04-29T08:00:15Z</time>
      </trkpt>
      <trkpt lat="44.9049" lon="3.50189">
        <ele>1106</ele>
        <time>2018-04-29T08:00:21Z</time>
      </trkpt>
      <trkpt lat="44.90484" lon="3.50192">
        <ele>1106</ele>
        <time>2018-04-29T08:00:24Z</time>
      </trkpt>
      <trkpt lat="44.9048" lon="3.50193">
        <ele>1107</ele>
        <time>2018-04-29T08:00:27Z</time>
      </trkpt>
      <trkpt lat="44.90474" lon="3.50194">
        <ele>1107</ele>
        <time>2018-04-29T08:00:31Z</time>
      </trkpt>
      <trkpt lat="44.90469" lon="3.50194">
        <ele>1106</ele>
        <time>2018-04-29T08:00:35Z</time>
      </trkpt>
      <trkpt lat="44.90464" lon="3.50194">
        <ele>1106</ele>
        <time>2018-04-29T08:00:39Z</time>
      </trkpt>
      <trkpt lat="44.9046" lon="3.50194">
        <ele>1107</ele>
        <time>2018-04-29T08:00:43Z</time>
      </trkpt>
      <trkpt lat="44.90456" lon="3.50191">
        <ele>1107</ele>
        <time>2018-04-29T08:00:47Z</time>
      </trkpt>
      <trkpt lat="44.9045" lon="3.50191">
        <ele>1108</ele>
        <time>2018-04-29T08:00:52Z</time>
      </trkpt>
      <trkpt lat="44.90441" lon="3.50192">
        <ele>1108</ele>
        <time>2018-04-29T08:01:00Z</time>
      </trkpt>
      <trkpt lat="44.9043" lon="3.50193">
        <ele>1109</ele>
        <time>2018-04-29T08:01:08Z</time>
      </trkpt>
      <trkpt lat="44.90422" lon="3.50189">
        <ele>1108</ele>
        <time>2018-04-29T08:01:16Z</time>
      </trkpt>
      <trkpt lat="44.90401" lon="3.50194">
        <ele>1109</ele>
        <time>2018-04-29T08:01:30Z</time>
      </trkpt>
      <trkpt lat="44.90395" lon="3.50187">
        <ele>1109</ele>
        <time>2018-04-29T08:01:37Z</time>
      </trkpt>
      <trkpt lat="44.90381" lon="3.50175">
        <ele>1111</ele>
        <time>2018-04-29T08:01:50Z</time>
      </trkpt>
      <trkpt lat="44.90377" lon="3.50172">
        <ele>1111</ele>
        <time>2018-04-29T08:01:55Z</time>
      </trkpt>
      <trkpt lat="44.90369" lon="3.50164">
        <ele>1112</ele>
        <time>2018-04-29T08:02:03Z</time>
      </trkpt>
      <trkpt lat="44.90364" lon="3.50159">
        <ele>1111</ele>
        <time>2018-04-29T08:02:08Z</time>
      </trkpt>
      <trkpt lat="44.90358" lon="3.5015">
        <ele>1112</ele>
        <time>2018-04-29T08:02:20Z</time>
      </trkpt>
      <trkpt lat="44.90354" lon="3.50145">
        <ele>1112</ele>
        <time>2018-04-29T08:02:24Z</time>
      </trkpt>
      <trkpt lat="44.90348" lon="3.50135">
        <ele>1113</ele>
        <time>2018-04-29T08:02:33Z</time>
      </trkpt>
      <trkpt lat="44.90344" lon="3.5013">
        <ele>1113</ele>
        <time>2018-04-29T08:02:38Z</time>
      </trkpt>
      <trkpt lat="44.90338" lon="3.50123">
        <ele>1114</ele>
        <time>2018-04-29T08:02:50Z</time>
      </trkpt>
      <trkpt lat="44.90334" lon="3.50119">
        <ele>1114</ele>
        <time>2018-04-29T08:02:55Z</time>
      </trkpt>
      <trkpt lat="44.90331" lon="3.50115">
        <ele>1114</ele>
        <time>2018-04-29T08:03:00Z</time>
      </trkpt>
      <trkpt lat="44.90326" lon="3.50113">
        <ele>1115</ele>
        <time>2018-04-29T08:03:05Z</time>
      </trkpt>
      <trkpt lat="44.9031" lon="3.50103">
        <ele>1117</ele>
        <time>2018-04-29T08:03:26Z</time>
      </trkpt>
      <trkpt lat="44.90305" lon="3.50102">
        <ele>1118</ele>
        <time>2018-04-29T08:03:30Z</time>
      </trkpt>
      <trkpt lat="44.903" lon="3.501">
        <ele>1117</ele>
        <time>2018-04-29T08:03:35Z</time>
      </trkpt>
      <trkpt lat="44.90291" lon="3.50096">
        <ele>1118</ele>
        <time>2018-04-29T08:03:44Z</time>
      </trkpt>
      <trkpt lat="44.90287" lon="3.50092">
        <ele>1118</ele>
        <time>2018-04-29T08:03:49Z</time>
      </trkpt>
      <trkpt lat="44.90281" lon="3.5009">
        <ele>1118</ele>
        <time>2018-04-29T08:03:54Z</time>
      </trkpt>
      <trkpt lat="44.90277" lon="3.50088">
        <ele>1117</ele>
        <time>2018-04-29T08:03:57Z</time>
      </trkpt>
      <trkpt lat="44.90267" lon="3.50083">
        <ele>1118</ele>
        <time>2018-04-29T08:04:05Z</time>
      </trkpt>
      <trkpt lat="44.90264" lon="3.50077">
        <ele>1118</ele>
        <time>2018-04-29T08:04:10Z</time>
      </trkpt>
      <trkpt lat="44.90259" lon="3.50075">
        <ele>1119</ele>
        <time>2018-04-29T08:04:14Z</time>
      </trkpt>
      <trkpt lat="44.90245" lon="3.50066">
        <ele>1118</ele>
        <time>2018-04-29T08:04:27Z</time>
      </trkpt>
      <trkpt lat="44.90239" lon="3.50064">
        <ele>1118</ele>
        <time>2018-04-29T08:04:38Z</time>
      </trkpt>
      <trkpt lat="44.90235" lon="3.50061">
        <ele>1119</ele>
        <time>2018-04-29T08:04:42Z</time>
      </trkpt>
      <trkpt lat="44.90226" lon="3.50055">
        <ele>1119</ele>
        <time>2018-04-29T08:04:50Z</time>
      </trkpt>
      <trkpt lat="44.90212" lon="3.50048">
        <ele>1120</ele>
        <time>2018-04-29T08:05:04Z</time>
      </trkpt>
      <trkpt lat="44.90187" lon="3.50041">
        <ele>1119</ele>
        <time>2018-04-29T08:05:25Z</time>
      </trkpt>
      <trkpt lat="44.90182" lon="3.50039">
        <ele>1120</ele>
        <time>2018-04-29T08:05:29Z</time>
      </trkpt>
      <trkpt lat="44.90177" lon="3.50038">
        <ele>1119</ele>
        <time>2018-04-29T08:05:33Z</time>
      </trkpt>
      <trkpt lat="44.90172" lon="3.50037">
        <ele>1121</ele>
        <time>2018-04-29T08:05:37Z</time>
      </trkpt>
      <trkpt lat="44.90162" lon="3.50036">
        <ele>1119</ele>
        <time>2018-04-29T08:05:45Z</time>
      </trkpt>
      <trkpt lat="44.90157" lon="3.50036">
        <ele>1120</ele>
        <time>2018-04-29T08:05:49Z</time>
      </trkpt>
      <trkpt lat="44.90152" lon="3.50034">
        <ele>1120</ele>
        <time>2018-04-29T08:05:53Z</time>
      </trkpt>
      <trkpt lat="44.90142" lon="3.50032">
        <ele>1119</ele>
        <time>2018-04-29T08:06:02Z</time>
      </trkpt>
      <trkpt lat="44.90137" lon="3.50031">
        <ele>1120</ele>
        <time>2018-04-29T08:06:06Z</time>
      </trkpt>
      <trkpt lat="44.90133" lon="3.50031">
        <ele>1119</ele>
        <time>2018-04-29T08:06:10Z</time>
      </trkpt>
      <trkpt lat="44.90128" lon="3.5003">
        <ele>1120</ele>
        <time>2018-04-29T08:06:14Z</time>
      </trkpt>
      <trkpt lat="44.90123" lon="3.5003">
        <ele>1119</ele>
        <time>2018-04-29T08:06:23Z</time>
      </trkpt>
      <trkpt lat="44.90112" lon="3.5003">
        <ele>1119</ele>
        <time>2018-04-29T08:06:31Z</time>
      </trkpt>
      <trkpt lat="44.90107" lon="3.50031">
        <ele>1119</ele>
        <time>2018-04-29T08:06:36Z</time>
      </trkpt>
      <trkpt lat="44.90098" lon="3.5003">
        <ele>1119</ele>
        <time>2018-04-29T08:06:46Z</time>
      </trkpt>
      <trkpt lat="44.90092" lon="3.50031">
        <ele>1120</ele>
        <time>2018-04-29T08:06:57Z</time>
      </trkpt>
      <trkpt lat="44.90086" lon="3.50034">
        <ele>1121</ele>
        <time>2018-04-29T08:07:23Z</time>
      </trkpt>
      <trkpt lat="44.90074" lon="3.50038">
        <ele>1121</ele>
        <time>2018-04-29T08:07:37Z</time>
      </trkpt>
      <trkpt lat="44.90068" lon="3.50037">
        <ele>1123</ele>
        <time>2018-04-29T08:07:42Z</time>
      </trkpt>
      <trkpt lat="44.90059" lon="3.50038">
        <ele>1125</ele>
        <time>2018-04-29T08:07:50Z</time>
      </trkpt>
      <trkpt lat="44.90054" lon="3.5004">
        <ele>1125</ele>
        <time>2018-04-29T08:07:54Z</time>
      </trkpt>
      <trkpt lat="44.90048" lon="3.5004">
        <ele>1123</ele>
        <time>2018-04-29T08:07:59Z</time>
      </trkpt>
      <trkpt lat="44.90044" lon="3.50041">
        <ele>1123</ele>
        <time>2018-04-29T08:08:03Z</time>
      </trkpt>
      <trkpt lat="44.90039" lon="3.5004">
        <ele>1124</ele>
        <time>2018-04-29T08:08:07Z</time>
      </trkpt>
      <trkpt lat="44.90034" lon="3.50041">
        <ele>1125</ele>
        <time>2018-04-29T08:08:11Z</time>
      </trkpt>
      <trkpt lat="44.90023" lon="3.50043">
        <ele>1125</ele>
        <time>2018-04-29T08:08:19Z</time>
      </trkpt>
      <trkpt lat="44.90017" lon="3.50044">
        <ele>1124</ele>
        <time>2018-04-29T08:08:23Z</time>
      </trkpt>
      <trkpt lat="44.90012" lon="3.50045">
        <ele>1125</ele>
        <time>2018-04-29T08:08:27Z</time>
      </trkpt>
      <trkpt lat="44.90002" lon="3.50048">
        <ele>1126</ele>
        <time>2018-04-29T08:08:34Z</time>
      </trkpt>
      <trkpt lat="44.89993" lon="3.5005">
        <ele>1127</ele>
        <time>2018-04-29T08:08:41Z</time>
      </trkpt>
      <trkpt lat="44.89974" lon="3.50058">
        <ele>1127</ele>
        <time>2018-04-29T08:08:57Z</time>
      </trkpt>
      <trkpt lat="44.89964" lon="3.50061">
        <ele>1127</ele>
        <time>2018-04-29T08:09:06Z</time>
      </trkpt>
      <trkpt lat="44.89941" lon="3.5007">
        <ele>1129</ele>
        <time>2018-04-29T08:09:32Z</time>
      </trkpt>
      <trkpt lat="44.89933" lon="3.50077">
        <ele>1128</ele>
        <time>2018-04-29T08:09:39Z</time>
      </trkpt>
      <trkpt lat="44.89925" lon="3.50081">
        <ele>1128</ele>
        <time>2018-04-29T08:09:46Z</time>
      </trkpt>
      <trkpt lat="44.8992" lon="3.50083">
        <ele>1127</ele>
        <time>2018-04-29T08:09:50Z</time>
      </trkpt>
      <trkpt lat="44.89915" lon="3.50086">
        <ele>1128</ele>
        <time>2018-04-29T08:09:55Z</time>
      </trkpt>
      <trkpt lat="44.89905" lon="3.50087">
        <ele>1127</ele>
        <time>2018-04-29T08:10:03Z</time>
      </trkpt>
      <trkpt lat="44.899" lon="3.50087">
        <ele>1127</ele>
        <time>2018-04-29T08:10:07Z</time>
      </trkpt>
      <trkpt lat="44.89895" lon="3.50088">
        <ele>1127</ele>
        <time>2018-04-29T08:10:11Z</time>
      </trkpt>
      <trkpt lat="44.8989" lon="3.5009">
        <ele>1127</ele>
        <time>2018-04-29T08:10:15Z</time>
      </trkpt>
      <trkpt lat="44.8988" lon="3.5009">
        <ele>1127</ele>
        <time>2018-04-29T08:10:23Z</time>
      </trkpt>
      <trkpt lat="44.89873" lon="3.50091">
        <ele>1128</ele>
        <time>2018-04-29T08:10:51Z</time>
      </trkpt>
      <trkpt lat="44.89857" lon="3.5009">
        <ele>1126</ele>
        <time>2018-04-29T08:11:02Z</time>
      </trkpt>
      <trkpt lat="44.89846" lon="3.50087">
        <ele>1126</ele>
        <time>2018-04-29T08:11:10Z</time>
      </trkpt>
      <trkpt lat="44.89841" lon="3.50085">
        <ele>1127</ele>
        <time>2018-04-29T08:11:14Z</time>
      </trkpt>
      <trkpt lat="44.89835" lon="3.50082">
        <ele>1122</ele>
        <time>2018-04-29T08:11:19Z</time>
      </trkpt>
      <trkpt lat="44.89825" lon="3.50077">
        <ele>1128</ele>
        <time>2018-04-29T08:11:27Z</time>
      </trkpt>
      <trkpt lat="44.8982" lon="3.50073">
        <ele>1128</ele>
        <time>2018-04-29T08:11:31Z</time>
      </trkpt>
      <trkpt lat="44.89815" lon="3.5007">
        <ele>1129</ele>
        <time>2018-04-29T08:11:35Z</time>
      </trkpt>
      <trkpt lat="44.8981" lon="3.50067">
        <ele>1129</ele>
        <time>2018-04-29T08:11:39Z</time>
      </trkpt>
      <trkpt lat="44.89806" lon="3.50064">
        <ele>1129</ele>
        <time>2018-04-29T08:11:42Z</time>
      </trkpt>
      <trkpt lat="44.89796" lon="3.50059">
        <ele>1128</ele>
        <time>2018-04-29T08:11:50Z</time>
      </trkpt>
      <trkpt lat="44.89786" lon="3.50056">
        <ele>1129</ele>
        <time>2018-04-29T08:11:58Z</time>
      </trkpt>
      <trkpt lat="44.89781" lon="3.50053">
        <ele>1128</ele>
        <time>2018-04-29T08:12:02Z</time>
      </trkpt>
      <trkpt lat="44.89776" lon="3.50051">
        <ele>1129</ele>
        <time>2018-04-29T08:12:06Z</time>
      </trkpt>
      <trkpt lat="44.89771" lon="3.50049">
        <ele>1128</ele>
        <time>2018-04-29T08:12:10Z</time>
      </trkpt>
      <trkpt lat="44.8976" lon="3.50045">
        <ele>1130</ele>
        <time>2018-04-29T08:12:34Z</time>
      </trkpt>
      <trkpt lat="44.89755" lon="3.50043">
        <ele>1130</ele>
        <time>2018-04-29T08:12:38Z</time>
      </trkpt>
      <trkpt lat="44.8975" lon="3.50042">
        <ele>1130</ele>
        <time>2018-04-29T08:12:42Z</time>
      </trkpt>
      <trkpt lat="44.89741" lon="3.50039">
        <ele>1132</ele>
        <time>2018-04-29T08:12:50Z</time>
      </trkpt>
      <trkpt lat="44.89735" lon="3.50036">
        <ele>1132</ele>
        <time>2018-04-29T08:12:55Z</time>
      </trkpt>
      <trkpt lat="44.8973" lon="3.50033">
        <ele>1132</ele>
        <time>2018-04-29T08:13:34Z</time>
      </trkpt>
      <trkpt lat="44.89725" lon="3.50032">
        <ele>1134</ele>
        <time>2018-04-29T08:13:38Z</time>
      </trkpt>
      <trkpt lat="44.89719" lon="3.50031">
        <ele>1133</ele>
        <time>2018-04-29T08:13:42Z</time>
      </trkpt>
      <trkpt lat="44.8971" lon="3.50028">
        <ele>1136</ele>
        <time>2018-04-29T08:13:50Z</time>
      </trkpt>
      <trkpt lat="44.89705" lon="3.50025">
        <ele>1135</ele>
        <time>2018-04-29T08:13:55Z</time>
      </trkpt>
      <trkpt lat="44.897" lon="3.50023">
        <ele>1136</ele>
        <time>2018-04-29T08:14:00Z</time>
      </trkpt>
      <trkpt lat="44.89692" lon="3.5002">
        <ele>1136</ele>
        <time>2018-04-29T08:14:12Z</time>
      </trkpt>
      <trkpt lat="44.89682" lon="3.50017">
        <ele>1138</ele>
        <time>2018-04-29T08:14:22Z</time>
      </trkpt>
      <trkpt lat="44.89674" lon="3.50015">
        <ele>1137</ele>
        <time>2018-04-29T08:14:43Z</time>
      </trkpt>
      <trkpt lat="44.89644" lon="3.50005">
        <ele>1141</ele>
        <time>2018-04-29T08:15:27Z</time>
      </trkpt>
      <trkpt lat="44.89633" lon="3.50002">
        <ele>1143</ele>
        <time>2018-04-29T08:15:36Z</time>
      </trkpt>
      <trkpt lat="44.89629" lon="3.5">
        <ele>1142</ele>
        <time>2018-04-29T08:15:40Z</time>
      </trkpt>
      <trkpt lat="44.89624" lon="3.49998">
        <ele>1144</ele>
        <time>2018-04-29T08:15:45Z</time>
      </trkpt>
      <trkpt lat="44.89619" lon="3.49996">
        <ele>1144</ele>
        <time>2018-04-29T08:16:01Z</time>
      </trkpt>
      <trkpt lat="44.89613" lon="3.49996">
        <ele>1146</ele>
        <time>2018-04-29T08:16:07Z</time>
      </trkpt>
      <trkpt lat="44.89608" lon="3.49995">
        <ele>1145</ele>
        <time>2018-04-29T08:16:12Z</time>
      </trkpt>
      <trkpt lat="44.89603" lon="3.49994">
        <ele>1147</ele>
        <time>2018-04-29T08:16:17Z</time>
      </trkpt>
      <trkpt lat="44.89593" lon="3.49993">
        <ele>1146</ele>
        <time>2018-04-29T08:16:26Z</time>
      </trkpt>
      <trkpt lat="44.89587" lon="3.49993">
        <ele>1148</ele>
        <time>2018-04-29T08:16:31Z</time>
      </trkpt>
      <trkpt lat="44.89582" lon="3.49994">
        <ele>1148</ele>
        <time>2018-04-29T08:16:36Z</time>
      </trkpt>
      <trkpt lat="44.89575" lon="3.49997">
        <ele>1147</ele>
        <time>2018-04-29T08:16:54Z</time>
      </trkpt>
      <trkpt lat="44.8957" lon="3.49998">
        <ele>1149</ele>
        <time>2018-04-29T08:16:58Z</time>
      </trkpt>
      <trkpt lat="44.89565" lon="3.49999">
        <ele>1149</ele>
        <time>2018-04-29T08:17:02Z</time>
      </trkpt>
      <trkpt lat="44.89547" lon="3.50002">
        <ele>1152</ele>
        <time>2018-04-29T08:17:30Z</time>
      </trkpt>
      <trkpt lat="44.89541" lon="3.50003">
        <ele>1152</ele>
        <time>2018-04-29T08:17:34Z</time>
      </trkpt>
      <trkpt lat="44.89536" lon="3.50004">
        <ele>1151</ele>
        <time>2018-04-29T08:17:38Z</time>
      </trkpt>
      <trkpt lat="44.89527" lon="3.50008">
        <ele>1151</ele>
        <time>2018-04-29T08:17:46Z</time>
      </trkpt>
      <trkpt lat="44.89517" lon="3.50013">
        <ele>1155</ele>
        <time>2018-04-29T08:17:59Z</time>
      </trkpt>
      <trkpt lat="44.89513" lon="3.5002">
        <ele>1155</ele>
        <time>2018-04-29T08:18:05Z</time>
      </trkpt>
      <trkpt lat="44.89509" lon="3.50023">
        <ele>1155</ele>
        <time>2018-04-29T08:18:10Z</time>
      </trkpt>
      <trkpt lat="44.89504" lon="3.50025">
        <ele>1155</ele>
        <time>2018-04-29T08:18:15Z</time>
      </trkpt>
      <trkpt lat="44.89494" lon="3.50027">
        <ele>1155</ele>
        <time>2018-04-29T08:18:25Z</time>
      </trkpt>
      <trkpt lat="44.89488" lon="3.50028">
        <ele>1155</ele>
        <time>2018-04-29T08:18:30Z</time>
      </trkpt>
      <trkpt lat="44.89483" lon="3.50028">
        <ele>1153</ele>
        <time>2018-04-29T08:18:35Z</time>
      </trkpt>
      <trkpt lat="44.89477" lon="3.50027">
        <ele>1153</ele>
        <time>2018-04-29T08:18:42Z</time>
      </trkpt>
      <trkpt lat="44.89472" lon="3.50026">
        <ele>1154</ele>
        <time>2018-04-29T08:18:47Z</time>
      </trkpt>
      <trkpt lat="44.89467" lon="3.50025">
        <ele>1154</ele>
        <time>2018-04-29T08:18:52Z</time>
      </trkpt>
      <trkpt lat="44.89457" lon="3.50022">
        <ele>1155</ele>
        <time>2018-04-29T08:19:02Z</time>
      </trkpt>
      <trkpt lat="44.89452" lon="3.50022">
        <ele>1155</ele>
        <time>2018-04-29T08:19:06Z</time>
      </trkpt>
      <trkpt lat="44.89447" lon="3.50019">
        <ele>1153</ele>
        <time>2018-04-29T08:19:10Z</time>
      </trkpt>
      <trkpt lat="44.89439" lon="3.50019">
        <ele>1152</ele>
        <time>2018-04-29T08:19:26Z</time>
      </trkpt>
      <trkpt lat="44.89429" lon="3.50014">
        <ele>1155</ele>
        <time>2018-04-29T08:19:34Z</time>
      </trkpt>
      <trkpt lat="44.89424" lon="3.50012">
        <ele>1153</ele>
        <time>2018-04-29T08:19:38Z</time>
      </trkpt>
      <trkpt lat="44.8942" lon="3.5001">
        <ele>1154</ele>
        <time>2018-04-29T08:19:42Z</time>
      </trkpt>
      <trkpt lat="44.89411" lon="3.50005">
        <ele>1153</ele>
        <time>2018-04-29T08:19:50Z</time>
      </trkpt>
      <trkpt lat="44.89402" lon="3.50001">
        <ele>1148</ele>
        <time>2018-04-29T08:19:58Z</time>
      </trkpt>
      <trkpt lat="44.89397" lon="3.49999">
        <ele>1148</ele>
        <time>2018-04-29T08:20:03Z</time>
      </trkpt>
      <trkpt lat="44.89392" lon="3.49995">
        <ele>1148</ele>
        <time>2018-04-29T08:20:07Z</time>
      </trkpt>
      <trkpt lat="44.89388" lon="3.49992">
        <ele>1148</ele>
        <time>2018-04-29T08:20:11Z</time>
      </trkpt>
      <trkpt lat="44.89378" lon="3.49986">
        <ele>1143</ele>
        <time>2018-04-29T08:20:20Z</time>
      </trkpt>
      <trkpt lat="44.89373" lon="3.49984">
        <ele>1146</ele>
        <time>2018-04-29T08:20:25Z</time>
      </trkpt>
      <trkpt lat="44.89368" lon="3.49983">
        <ele>1147</ele>
        <time>2018-04-29T08:20:29Z</time>
      </trkpt>
      <trkpt lat="44.89362" lon="3.49981">
        <ele>1146</ele>
        <time>2018-04-29T08:20:33Z</time>
      </trkpt>
      <trkpt lat="44.89353" lon="3.49975">
        <ele>1144</ele>
        <time>2018-04-29T08:20:41Z</time>
      </trkpt>
      <trkpt lat="44.89349" lon="3.49972">
        <ele>1145</ele>
        <time>2018-04-29T08:20:45Z</time>
      </trkpt>
      <trkpt lat="44.89345" lon="3.49969">
        <ele>1144</ele>
        <time>2018-04-29T08:20:49Z</time>
      </trkpt>
      <trkpt lat="44.89336" lon="3.49964">
        <ele>1142</ele>
        <time>2018-04-29T08:20:57Z</time>
      </trkpt>
      <trkpt lat="44.89332" lon="3.49962">
        <ele>1143</ele>
        <time>2018-04-29T08:21:01Z</time>
      </trkpt>
      <trkpt lat="44.89323" lon="3.49956">
        <ele>1142</ele>
        <time>2018-04-29T08:21:09Z</time>
      </trkpt>
      <trkpt lat="44.89319" lon="3.49953">
        <ele>1142</ele>
        <time>2018-04-29T08:21:13Z</time>
      </trkpt>
      <trkpt lat="44.89314" lon="3.49951">
        <ele>1142</ele>
        <time>2018-04-29T08:21:17Z</time>
      </trkpt>
      <trkpt lat="44.89311" lon="3.49948">
        <ele>1142</ele>
        <time>2018-04-29T08:21:21Z</time>
      </trkpt>
      <trkpt lat="44.89307" lon="3.49942">
        <ele>1142</ele>
        <time>2018-04-29T08:21:36Z</time>
      </trkpt>
      <trkpt lat="44.89305" lon="3.49935">
        <ele>1141</ele>
        <time>2018-04-29T08:24:42Z</time>
      </trkpt>
      <trkpt lat="44.89297" lon="3.49928">
        <ele>1141</ele>
        <time>2018-04-29T08:25:20Z</time>
      </trkpt>
      <trkpt lat="44.89295" lon="3.49922">
        <ele>1141</ele>
        <time>2018-04-29T08:25:24Z</time>
      </trkpt>
      <trkpt lat="44.89292" lon="3.49917">
        <ele>1141</ele>
        <time>2018-04-29T08:25:29Z</time>
      </trkpt>
      <trkpt lat="44.89279" lon="3.49894">
        <ele>1143</ele>
        <time>2018-04-29T08:25:48Z</time>
      </trkpt>
      <trkpt lat="44.89273" lon="3.49884">
        <ele>1142</ele>
        <time>2018-04-29T08:25:57Z</time>
      </trkpt>
      <trkpt lat="44.89259" lon="3.49865">
        <ele>1139</ele>
        <time>2018-04-29T08:26:15Z</time>
      </trkpt>
      <trkpt lat="44.89249" lon="3.49851">
        <ele>1139</ele>
        <time>2018-04-29T08:26:27Z</time>
      </trkpt>
      <trkpt lat="44.89246" lon="3.49846">
        <ele>1141</ele>
        <time>2018-04-29T08:26:31Z</time>
      </trkpt>
      <trkpt lat="44.89243" lon="3.4984">
        <ele>1142</ele>
        <time>2018-04-29T08:26:35Z</time>
      </trkpt>
      <trkpt lat="44.89235" lon="3.49822">
        <ele>1142</ele>
        <time>2018-04-29T08:26:47Z</time>
      </trkpt>
      <trkpt lat="44.89232" lon="3.49816">
        <ele>1141</ele>
        <time>2018-04-29T08:26:51Z</time>
      </trkpt>
      <trkpt lat="44.89223" lon="3.49799">
        <ele>1142</ele>
        <time>2018-04-29T08:27:04Z</time>
      </trkpt>
      <trkpt lat="44.8922" lon="3.49794">
        <ele>1142</ele>
        <time>2018-04-29T08:27:08Z</time>
      </trkpt>
      <trkpt lat="44.89202" lon="3.49763">
        <ele>1142</ele>
        <time>2018-04-29T08:27:32Z</time>
      </trkpt>
      <trkpt lat="44.89195" lon="3.49753">
        <ele>1142</ele>
        <time>2018-04-29T08:27:40Z</time>
      </trkpt>
      <trkpt lat="44.89186" lon="3.49738">
        <ele>1141</ele>
        <time>2018-04-29T08:27:52Z</time>
      </trkpt>
      <trkpt lat="44.8918" lon="3.49727">
        <ele>1142</ele>
        <time>2018-04-29T08:28:00Z</time>
      </trkpt>
      <trkpt lat="44.89174" lon="3.49717">
        <ele>1143</ele>
        <time>2018-04-29T08:28:08Z</time>
      </trkpt>
      <trkpt lat="44.89165" lon="3.49701">
        <ele>1140</ele>
        <time>2018-04-29T08:28:20Z</time>
      </trkpt>
      <trkpt lat="44.89162" lon="3.49695">
        <ele>1140</ele>
        <time>2018-04-29T08:28:24Z</time>
      </trkpt>
      <trkpt lat="44.89159" lon="3.4969">
        <ele>1140</ele>
        <time>2018-04-29T08:28:28Z</time>
      </trkpt>
      <trkpt lat="44.89156" lon="3.49684">
        <ele>1139</ele>
        <time>2018-04-29T08:28:32Z</time>
      </trkpt>
      <trkpt lat="44.8914" lon="3.49655">
        <ele>1137</ele>
        <time>2018-04-29T08:28:52Z</time>
      </trkpt>
      <trkpt lat="44.89138" lon="3.49649">
        <ele>1138</ele>
        <time>2018-04-29T08:28:56Z</time>
      </trkpt>
      <trkpt lat="44.89134" lon="3.49645">
        <ele>1139</ele>
        <time>2018-04-29T08:29:00Z</time>
      </trkpt>
      <trkpt lat="44.8913" lon="3.49641">
        <ele>1139</ele>
        <time>2018-04-29T08:29:04Z</time>
      </trkpt>
      <trkpt lat="44.89125" lon="3.49638">
        <ele>1138</ele>
        <time>2018-04-29T08:29:08Z</time>
      </trkpt>
      <trkpt lat="44.89116" lon="3.49634">
        <ele>1138</ele>
        <time>2018-04-29T08:29:16Z</time>
      </trkpt>
      <trkpt lat="44.89105" lon="3.49635">
        <ele>1139</ele>
        <time>2018-04-29T08:29:24Z</time>
      </trkpt>
      <trkpt lat="44.89086" lon="3.49633">
        <ele>1138</ele>
        <time>2018-04-29T08:29:41Z</time>
      </trkpt>
      <trkpt lat="44.89076" lon="3.4963">
        <ele>1138</ele>
        <time>2018-04-29T08:29:49Z</time>
      </trkpt>
      <trkpt lat="44.89072" lon="3.4963">
        <ele>1137</ele>
        <time>2018-04-29T08:29:53Z</time>
      </trkpt>
      <trkpt lat="44.89067" lon="3.49627">
        <ele>1137</ele>
        <time>2018-04-29T08:29:57Z</time>
      </trkpt>
      <trkpt lat="44.89063" lon="3.49624">
        <ele>1137</ele>
        <time>2018-04-29T08:30:01Z</time>
      </trkpt>
      <trkpt lat="44.89054" lon="3.49619">
        <ele>1137</ele>
        <time>2018-04-29T08:30:09Z</time>
      </trkpt>
      <trkpt lat="44.89049" lon="3.49616">
        <ele>1137</ele>
        <time>2018-04-29T08:30:13Z</time>
      </trkpt>
      <trkpt lat="44.89041" lon="3.49608">
        <ele>1137</ele>
        <time>2018-04-29T08:30:21Z</time>
      </trkpt>
      <trkpt lat="44.89037" lon="3.49606">
        <ele>1137</ele>
        <time>2018-04-29T08:30:25Z</time>
      </trkpt>
      <trkpt lat="44.89029" lon="3.49597">
        <ele>1138</ele>
        <time>2018-04-29T08:30:34Z</time>
      </trkpt>
      <trkpt lat="44.89025" lon="3.49591">
        <ele>1136</ele>
        <time>2018-04-29T08:30:39Z</time>
      </trkpt>
      <trkpt lat="44.89022" lon="3.49586">
        <ele>1137</ele>
        <time>2018-04-29T08:30:43Z</time>
      </trkpt>
      <trkpt lat="44.89012" lon="3.49569">
        <ele>1134</ele>
        <time>2018-04-29T08:30:57Z</time>
      </trkpt>
      <trkpt lat="44.89009" lon="3.4956">
        <ele>1134</ele>
        <time>2018-04-29T08:31:04Z</time>
      </trkpt>
      <trkpt lat="44.89007" lon="3.49553">
        <ele>1135</ele>
        <time>2018-04-29T08:31:09Z</time>
      </trkpt>
      <trkpt lat="44.89005" lon="3.49547">
        <ele>1135</ele>
        <time>2018-04-29T08:31:14Z</time>
      </trkpt>
      <trkpt lat="44.89003" lon="3.49541">
        <ele>1138</ele>
        <time>2018-04-29T08:31:22Z</time>
      </trkpt>
      <trkpt lat="44.88999" lon="3.4953">
        <ele>1136</ele>
        <time>2018-04-29T08:31:32Z</time>
      </trkpt>
      <trkpt lat="44.88995" lon="3.49527">
        <ele>1137</ele>
        <time>2018-04-29T08:31:36Z</time>
      </trkpt>
      <trkpt lat="44.88991" lon="3.49523">
        <ele>1136</ele>
        <time>2018-04-29T08:31:39Z</time>
      </trkpt>
      <trkpt lat="44.88976" lon="3.49504">
        <ele>1133</ele>
        <time>2018-04-29T08:31:55Z</time>
      </trkpt>
      <trkpt lat="44.88972" lon="3.495">
        <ele>1135</ele>
        <time>2018-04-29T08:32:00Z</time>
      </trkpt>
      <trkpt lat="44.88957" lon="3.49495">
        <ele>1136</ele>
        <time>2018-04-29T08:32:14Z</time>
      </trkpt>
      <trkpt lat="44.88947" lon="3.49495">
        <ele>1135</ele>
        <time>2018-04-29T08:32:22Z</time>
      </trkpt>
      <trkpt lat="44.88937" lon="3.49497">
        <ele>1136</ele>
        <time>2018-04-29T08:32:30Z</time>
      </trkpt>
      <trkpt lat="44.88932" lon="3.49498">
        <ele>1137</ele>
        <time>2018-04-29T08:32:34Z</time>
      </trkpt>
      <trkpt lat="44.88928" lon="3.49499">
        <ele>1136</ele>
        <time>2018-04-29T08:32:38Z</time>
      </trkpt>
      <trkpt lat="44.88923" lon="3.495">
        <ele>1137</ele>
        <time>2018-04-29T08:32:42Z</time>
      </trkpt>
      <trkpt lat="44.88914" lon="3.49496">
        <ele>1135</ele>
        <time>2018-04-29T08:32:50Z</time>
      </trkpt>
      <trkpt lat="44.88901" lon="3.49487">
        <ele>1137</ele>
        <time>2018-04-29T08:33:02Z</time>
      </trkpt>
      <trkpt lat="44.88892" lon="3.49481">
        <ele>1136</ele>
        <time>2018-04-29T08:33:10Z</time>
      </trkpt>
      <trkpt lat="44.88885" lon="3.49479">
        <ele>1136</ele>
        <time>2018-04-29T08:33:17Z</time>
      </trkpt>
      <trkpt lat="44.8888" lon="3.49476">
        <ele>1138</ele>
        <time>2018-04-29T08:33:22Z</time>
      </trkpt>
      <trkpt lat="44.88873" lon="3.49474">
        <ele>1139</ele>
        <time>2018-04-29T08:34:24Z</time>
      </trkpt>
      <trkpt lat="44.88868" lon="3.49472">
        <ele>1139</ele>
        <time>2018-04-29T08:34:29Z</time>
      </trkpt>
      <trkpt lat="44.88855" lon="3.49463">
        <ele>1141</ele>
        <time>2018-04-29T08:34:43Z</time>
      </trkpt>
      <trkpt lat="44.88849" lon="3.49459">
        <ele>1141</ele>
        <time>2018-04-29T08:34:49Z</time>
      </trkpt>
      <trkpt lat="44.88831" lon="3.49446">
        <ele>1144</ele>
        <time>2018-04-29T08:35:05Z</time>
      </trkpt>
      <trkpt lat="44.88827" lon="3.49444">
        <ele>1144</ele>
        <time>2018-04-29T08:35:09Z</time>
      </trkpt>
      <trkpt lat="44.88822" lon="3.49444">
        <ele>1144</ele>
        <time>2018-04-29T08:35:13Z</time>
      </trkpt>
      <trkpt lat="44.88817" lon="3.49445">
        <ele>1145</ele>
        <time>2018-04-29T08:35:17Z</time>
      </trkpt>
      <trkpt lat="44.88812" lon="3.49447">
        <ele>1145</ele>
        <time>2018-04-29T08:35:21Z</time>
      </trkpt>
      <trkpt lat="44.88808" lon="3.49451">
        <ele>1145</ele>
        <time>2018-04-29T08:35:25Z</time>
      </trkpt>
      <trkpt lat="44.88801" lon="3.49461">
        <ele>1144</ele>
        <time>2018-04-29T08:35:33Z</time>
      </trkpt>
      <trkpt lat="44.88796" lon="3.4947">
        <ele>1145</ele>
        <time>2018-04-29T08:35:47Z</time>
      </trkpt>
      <trkpt lat="44.88793" lon="3.49474">
        <ele>1145</ele>
        <time>2018-04-29T08:35:51Z</time>
      </trkpt>
      <trkpt lat="44.8879" lon="3.4948">
        <ele>1146</ele>
        <time>2018-04-29T08:35:55Z</time>
      </trkpt>
      <trkpt lat="44.88787" lon="3.49486">
        <ele>1146</ele>
        <time>2018-04-29T08:35:59Z</time>
      </trkpt>
      <trkpt lat="44.88784" lon="3.49491">
        <ele>1146</ele>
        <time>2018-04-29T08:36:04Z</time>
      </trkpt>
      <trkpt lat="44.88781" lon="3.49498">
        <ele>1146</ele>
        <time>2018-04-29T08:36:09Z</time>
      </trkpt>
      <trkpt lat="44.88778" lon="3.49503">
        <ele>1146</ele>
        <time>2018-04-29T08:36:13Z</time>
      </trkpt>
      <trkpt lat="44.88773" lon="3.49514">
        <ele>1148</ele>
        <time>2018-04-29T08:36:21Z</time>
      </trkpt>
      <trkpt lat="44.88769" lon="3.49519">
        <ele>1149</ele>
        <time>2018-04-29T08:36:26Z</time>
      </trkpt>
      <trkpt lat="44.88764" lon="3.49527">
        <ele>1148</ele>
        <time>2018-04-29T08:36:39Z</time>
      </trkpt>
      <trkpt lat="44.8876" lon="3.49531">
        <ele>1149</ele>
        <time>2018-04-29T08:36:43Z</time>
      </trkpt>
      <trkpt lat="44.88756" lon="3.49536">
        <ele>1149</ele>
        <time>2018-04-29T08:36:47Z</time>
      </trkpt>
      <trkpt lat="44.88751" lon="3.49548">
        <ele>1150</ele>
        <time>2018-04-29T08:36:55Z</time>
      </trkpt>
      <trkpt lat="44.88748" lon="3.49552">
        <ele>1150</ele>
        <time>2018-04-29T08:36:59Z</time>
      </trkpt>
      <trkpt lat="44.88745" lon="3.49557">
        <ele>1150</ele>
        <time>2018-04-29T08:37:03Z</time>
      </trkpt>
      <trkpt lat="44.88742" lon="3.49563">
        <ele>1151</ele>
        <time>2018-04-29T08:37:08Z</time>
      </trkpt>
      <trkpt lat="44.88738" lon="3.49568">
        <ele>1152</ele>
        <time>2018-04-29T08:37:24Z</time>
      </trkpt>
      <trkpt lat="44.88728" lon="3.49579">
        <ele>1152</ele>
        <time>2018-04-29T08:37:42Z</time>
      </trkpt>
      <trkpt lat="44.8872" lon="3.49586">
        <ele>1153</ele>
        <time>2018-04-29T08:37:54Z</time>
      </trkpt>
      <trkpt lat="44.88701" lon="3.49612">
        <ele>1156</ele>
        <time>2018-04-29T08:38:20Z</time>
      </trkpt>
      <trkpt lat="44.88697" lon="3.49617">
        <ele>1156</ele>
        <time>2018-04-29T08:38:25Z</time>
      </trkpt>
      <trkpt lat="44.88681" lon="3.49635">
        <ele>1158</ele>
        <time>2018-04-29T08:38:44Z</time>
      </trkpt>
      <trkpt lat="44.88678" lon="3.49639">
        <ele>1159</ele>
        <time>2018-04-29T08:38:48Z</time>
      </trkpt>
      <trkpt lat="44.88675" lon="3.49644">
        <ele>1158</ele>
        <time>2018-04-29T08:38:52Z</time>
      </trkpt>
      <trkpt lat="44.8867" lon="3.49649">
        <ele>1159</ele>
        <time>2018-04-29T08:38:57Z</time>
      </trkpt>
      <trkpt lat="44.88666" lon="3.49653">
        <ele>1160</ele>
        <time>2018-04-29T08:39:02Z</time>
      </trkpt>
      <trkpt lat="44.88657" lon="3.4966">
        <ele>1160</ele>
        <time>2018-04-29T08:39:11Z</time>
      </trkpt>
      <trkpt lat="44.88653" lon="3.49663">
        <ele>1160</ele>
        <time>2018-04-29T08:39:15Z</time>
      </trkpt>
      <trkpt lat="44.88648" lon="3.49666">
        <ele>1161</ele>
        <time>2018-04-29T08:39:20Z</time>
      </trkpt>
      <trkpt lat="44.88644" lon="3.49669">
        <ele>1161</ele>
        <time>2018-04-29T08:39:24Z</time>
      </trkpt>
      <trkpt lat="44.88635" lon="3.49674">
        <ele>1160</ele>
        <time>2018-04-29T08:39:33Z</time>
      </trkpt>
      <trkpt lat="44.8862" lon="3.4968">
        <ele>1158</ele>
        <time>2018-04-29T08:39:47Z</time>
      </trkpt>
      <trkpt lat="44.88615" lon="3.49681">
        <ele>1157</ele>
        <time>2018-04-29T08:39:51Z</time>
      </trkpt>
      <trkpt lat="44.8861" lon="3.49681">
        <ele>1157</ele>
        <time>2018-04-29T08:39:56Z</time>
      </trkpt>
      <trkpt lat="44.88605" lon="3.49682">
        <ele>1158</ele>
        <time>2018-04-29T08:40:00Z</time>
      </trkpt>
      <trkpt lat="44.88596" lon="3.49685">
        <ele>1156</ele>
        <time>2018-04-29T08:40:08Z</time>
      </trkpt>
      <trkpt lat="44.88582" lon="3.49684">
        <ele>1157</ele>
        <time>2018-04-29T08:40:33Z</time>
      </trkpt>
      <trkpt lat="44.88573" lon="3.49684">
        <ele>1154</ele>
        <time>2018-04-29T08:40:43Z</time>
      </trkpt>
      <trkpt lat="44.88567" lon="3.49684">
        <ele>1154</ele>
        <time>2018-04-29T08:40:48Z</time>
      </trkpt>
      <trkpt lat="44.88562" lon="3.49683">
        <ele>1155</ele>
        <time>2018-04-29T08:40:53Z</time>
      </trkpt>
      <trkpt lat="44.88552" lon="3.49683">
        <ele>1154</ele>
        <time>2018-04-29T08:41:03Z</time>
      </trkpt>
      <trkpt lat="44.88547" lon="3.49683">
        <ele>1154</ele>
        <time>2018-04-29T08:41:07Z</time>
      </trkpt>
      <trkpt lat="44.88543" lon="3.49683">
        <ele>1153</ele>
        <time>2018-04-29T08:41:11Z</time>
      </trkpt>
      <trkpt lat="44.88537" lon="3.49682">
        <ele>1153</ele>
        <time>2018-04-29T08:41:16Z</time>
      </trkpt>
      <trkpt lat="44.88532" lon="3.49681">
        <ele>1153</ele>
        <time>2018-04-29T08:41:20Z</time>
      </trkpt>
      <trkpt lat="44.88528" lon="3.4968">
        <ele>1152</ele>
        <time>2018-04-29T08:41:24Z</time>
      </trkpt>
      <trkpt lat="44.88523" lon="3.49679">
        <ele>1152</ele>
        <time>2018-04-29T08:41:28Z</time>
      </trkpt>
      <trkpt lat="44.88514" lon="3.49677">
        <ele>1157</ele>
        <time>2018-04-29T08:41:36Z</time>
      </trkpt>
      <trkpt lat="44.88508" lon="3.49676">
        <ele>1156</ele>
        <time>2018-04-29T08:41:41Z</time>
      </trkpt>
      <trkpt lat="44.88483" lon="3.49671">
        <ele>1151</ele>
        <time>2018-04-29T08:42:03Z</time>
      </trkpt>
      <trkpt lat="44.88475" lon="3.49671">
        <ele>1153</ele>
        <time>2018-04-29T08:42:18Z</time>
      </trkpt>
      <trkpt lat="44.88469" lon="3.49671">
        <ele>1152</ele>
        <time>2018-04-29T08:42:22Z</time>
      </trkpt>
      <trkpt lat="44.88464" lon="3.49671">
        <ele>1153</ele>
        <time>2018-04-29T08:42:26Z</time>
      </trkpt>
      <trkpt lat="44.88459" lon="3.49672">
        <ele>1152</ele>
        <time>2018-04-29T08:42:30Z</time>
      </trkpt>
      <trkpt lat="44.88439" lon="3.49674">
        <ele>1153</ele>
        <time>2018-04-29T08:42:47Z</time>
      </trkpt>
      <trkpt lat="44.88429" lon="3.49676">
        <ele>1152</ele>
        <time>2018-04-29T08:42:56Z</time>
      </trkpt>
      <trkpt lat="44.88424" lon="3.49677">
        <ele>1152</ele>
        <time>2018-04-29T08:43:00Z</time>
      </trkpt>
      <trkpt lat="44.88409" lon="3.49683">
        <ele>1151</ele>
        <time>2018-04-29T08:43:14Z</time>
      </trkpt>
      <trkpt lat="44.88404" lon="3.49684">
        <ele>1150</ele>
        <time>2018-04-29T08:43:19Z</time>
      </trkpt>
      <trkpt lat="44.88399" lon="3.49691">
        <ele>1150</ele>
        <time>2018-04-29T08:43:26Z</time>
      </trkpt>
      <trkpt lat="44.88396" lon="3.49697">
        <ele>1151</ele>
        <time>2018-04-29T08:43:31Z</time>
      </trkpt>
      <trkpt lat="44.88387" lon="3.49715">
        <ele>1151</ele>
        <time>2018-04-29T08:43:45Z</time>
      </trkpt>
      <trkpt lat="44.88385" lon="3.4972">
        <ele>1150</ele>
        <time>2018-04-29T08:43:49Z</time>
      </trkpt>
      <trkpt lat="44.88382" lon="3.49726">
        <ele>1151</ele>
        <time>2018-04-29T08:43:53Z</time>
      </trkpt>
      <trkpt lat="44.88379" lon="3.49731">
        <ele>1151</ele>
        <time>2018-04-29T08:43:57Z</time>
      </trkpt>
      <trkpt lat="44.88373" lon="3.49743">
        <ele>1150</ele>
        <time>2018-04-29T08:44:05Z</time>
      </trkpt>
      <trkpt lat="44.8837" lon="3.49748">
        <ele>1149</ele>
        <time>2018-04-29T08:44:09Z</time>
      </trkpt>
      <trkpt lat="44.88368" lon="3.49754">
        <ele>1151</ele>
        <time>2018-04-29T08:44:13Z</time>
      </trkpt>
      <trkpt lat="44.88365" lon="3.49759">
        <ele>1151</ele>
        <time>2018-04-29T08:44:17Z</time>
      </trkpt>
      <trkpt lat="44.88359" lon="3.49771">
        <ele>1150</ele>
        <time>2018-04-29T08:44:26Z</time>
      </trkpt>
      <trkpt lat="44.88357" lon="3.49777">
        <ele>1151</ele>
        <time>2018-04-29T08:44:30Z</time>
      </trkpt>
      <trkpt lat="44.88351" lon="3.4979">
        <ele>1149</ele>
        <time>2018-04-29T08:44:40Z</time>
      </trkpt>
      <trkpt lat="44.88348" lon="3.49796">
        <ele>1149</ele>
        <time>2018-04-29T08:44:45Z</time>
      </trkpt>
      <trkpt lat="44.88345" lon="3.49802">
        <ele>1149</ele>
        <time>2018-04-29T08:44:50Z</time>
      </trkpt>
      <trkpt lat="44.88343" lon="3.49809">
        <ele>1151</ele>
        <time>2018-04-29T08:44:55Z</time>
      </trkpt>
      <trkpt lat="44.88337" lon="3.49822">
        <ele>1151</ele>
        <time>2018-04-29T08:45:08Z</time>
      </trkpt>
      <trkpt lat="44.88334" lon="3.49827">
        <ele>1150</ele>
        <time>2018-04-29T08:45:13Z</time>
      </trkpt>
      <trkpt lat="44.88311" lon="3.49857">
        <ele>1149</ele>
        <time>2018-04-29T08:45:40Z</time>
      </trkpt>
      <trkpt lat="44.88307" lon="3.49863">
        <ele>1150</ele>
        <time>2018-04-29T08:45:45Z</time>
      </trkpt>
      <trkpt lat="44.88291" lon="3.49883">
        <ele>1149</ele>
        <time>2018-04-29T08:46:04Z</time>
      </trkpt>
      <trkpt lat="44.88286" lon="3.49885">
        <ele>1150</ele>
        <time>2018-04-29T08:46:08Z</time>
      </trkpt>
      <trkpt lat="44.88278" lon="3.49892">
        <ele>1149</ele>
        <time>2018-04-29T08:46:16Z</time>
      </trkpt>
      <trkpt lat="44.88265" lon="3.49898">
        <ele>1149</ele>
        <time>2018-04-29T08:46:28Z</time>
      </trkpt>
      <trkpt lat="44.88255" lon="3.49901">
        <ele>1150</ele>
        <time>2018-04-29T08:46:36Z</time>
      </trkpt>
      <trkpt lat="44.88231" lon="3.49906">
        <ele>1145</ele>
        <time>2018-04-29T08:46:58Z</time>
      </trkpt>
      <trkpt lat="44.88225" lon="3.49908">
        <ele>1145</ele>
        <time>2018-04-29T08:47:03Z</time>
      </trkpt>
      <trkpt lat="44.88221" lon="3.49908">
        <ele>1144</ele>
        <time>2018-04-29T08:47:07Z</time>
      </trkpt>
      <trkpt lat="44.88211" lon="3.49905">
        <ele>1145</ele>
        <time>2018-04-29T08:47:15Z</time>
      </trkpt>
      <trkpt lat="44.88202" lon="3.499">
        <ele>1142</ele>
        <time>2018-04-29T08:47:23Z</time>
      </trkpt>
      <trkpt lat="44.88198" lon="3.49897">
        <ele>1142</ele>
        <time>2018-04-29T08:47:27Z</time>
      </trkpt>
      <trkpt lat="44.88193" lon="3.49897">
        <ele>1141</ele>
        <time>2018-04-29T08:47:31Z</time>
      </trkpt>
      <trkpt lat="44.88187" lon="3.49898">
        <ele>1141</ele>
        <time>2018-04-29T08:47:35Z</time>
      </trkpt>
      <trkpt lat="44.88173" lon="3.49901">
        <ele>1138</ele>
        <time>2018-04-29T08:47:48Z</time>
      </trkpt>
      <trkpt lat="44.88163" lon="3.49906">
        <ele>1138</ele>
        <time>2018-04-29T08:47:56Z</time>
      </trkpt>
      <trkpt lat="44.88158" lon="3.49908">
        <ele>1136</ele>
        <time>2018-04-29T08:48:00Z</time>
      </trkpt>
      <trkpt lat="44.88153" lon="3.49908">
        <ele>1134</ele>
        <time>2018-04-29T08:48:05Z</time>
      </trkpt>
      <trkpt lat="44.88148" lon="3.4991">
        <ele>1133</ele>
        <time>2018-04-29T08:48:09Z</time>
      </trkpt>
      <trkpt lat="44.88144" lon="3.49913">
        <ele>1133</ele>
        <time>2018-04-29T08:48:13Z</time>
      </trkpt>
      <trkpt lat="44.88135" lon="3.4992">
        <ele>1134</ele>
        <time>2018-04-29T08:48:23Z</time>
      </trkpt>
      <trkpt lat="44.8813" lon="3.49923">
        <ele>1133</ele>
        <time>2018-04-29T08:48:27Z</time>
      </trkpt>
      <trkpt lat="44.88126" lon="3.49926">
        <ele>1132</ele>
        <time>2018-04-29T08:48:31Z</time>
      </trkpt>
      <trkpt lat="44.88121" lon="3.49929">
        <ele>1132</ele>
        <time>2018-04-29T08:48:36Z</time>
      </trkpt>
      <trkpt lat="44.88117" lon="3.49932">
        <ele>1131</ele>
        <time>2018-04-29T08:48:40Z</time>
      </trkpt>
      <trkpt lat="44.88113" lon="3.49937">
        <ele>1131</ele>
        <time>2018-04-29T08:48:45Z</time>
      </trkpt>
      <trkpt lat="44.88108" lon="3.4994">
        <ele>1131</ele>
        <time>2018-04-29T08:48:50Z</time>
      </trkpt>
      <trkpt lat="44.88102" lon="3.49938">
        <ele>1130</ele>
        <time>2018-04-29T08:48:58Z</time>
      </trkpt>
      <trkpt lat="44.88098" lon="3.49937">
        <ele>1126</ele>
        <time>2018-04-29T09:04:14Z</time>
      </trkpt>
      <trkpt lat="44.88094" lon="3.49933">
        <ele>1127</ele>
        <time>2018-04-29T09:04:44Z</time>
      </trkpt>
      <trkpt lat="44.88091" lon="3.49923">
        <ele>1126</ele>
        <time>2018-04-29T09:05:10Z</time>
      </trkpt>
      <trkpt lat="44.88083" lon="3.49928">
        <ele>1125</ele>
        <time>2018-04-29T09:05:52Z</time>
      </trkpt>
      <trkpt lat="44.88071" lon="3.4993">
        <ele>1122</ele>
        <time>2018-04-29T09:06:11Z</time>
      </trkpt>
      <trkpt lat="44.88064" lon="3.49932">
        <ele>1122</ele>
        <time>2018-04-29T09:06:23Z</time>
      </trkpt>
      <trkpt lat="44.88047" lon="3.4994">
        <ele>1116</ele>
        <time>2018-04-29T09:06:46Z</time>
      </trkpt>
      <trkpt lat="44.88039" lon="3.49941">
        <ele>1112</ele>
        <time>2018-04-29T09:06:58Z</time>
      </trkpt>
      <trkpt lat="44.88031" lon="3.49949">
        <ele>1108</ele>
        <time>2018-04-29T09:07:08Z</time>
      </trkpt>
      <trkpt lat="44.88026" lon="3.49956">
        <ele>1110</ele>
        <time>2018-04-29T09:07:17Z</time>
      </trkpt>
      <trkpt lat="44.88025" lon="3.49963">
        <ele>1111</ele>
        <time>2018-04-29T09:07:22Z</time>
      </trkpt>
      <trkpt lat="44.88024" lon="3.49973">
        <ele>1114</ele>
        <time>2018-04-29T09:07:31Z</time>
      </trkpt>
      <trkpt lat="44.88023" lon="3.50002">
        <ele>1108</ele>
        <time>2018-04-29T09:07:54Z</time>
      </trkpt>
      <trkpt lat="44.8802" lon="3.50009">
        <ele>1106</ele>
        <time>2018-04-29T09:08:04Z</time>
      </trkpt>
      <trkpt lat="44.88017" lon="3.50015">
        <ele>1106</ele>
        <time>2018-04-29T09:08:15Z</time>
      </trkpt>
      <trkpt lat="44.88009" lon="3.50012">
        <ele>1105</ele>
        <time>2018-04-29T09:08:27Z</time>
      </trkpt>
      <trkpt lat="44.87998" lon="3.5">
        <ele>1101</ele>
        <time>2018-04-29T09:09:03Z</time>
      </trkpt>
      <trkpt lat="44.87994" lon="3.49996">
        <ele>1099</ele>
        <time>2018-04-29T09:09:09Z</time>
      </trkpt>
      <trkpt lat="44.87986" lon="3.49995">
        <ele>1100</ele>
        <time>2018-04-29T09:09:21Z</time>
      </trkpt>
      <trkpt lat="44.8798" lon="3.50002">
        <ele>1098</ele>
        <time>2018-04-29T09:09:33Z</time>
      </trkpt>
      <trkpt lat="44.87968" lon="3.50012">
        <ele>1095</ele>
        <time>2018-04-29T09:09:51Z</time>
      </trkpt>
      <trkpt lat="44.87963" lon="3.50015">
        <ele>1094</ele>
        <time>2018-04-29T09:09:56Z</time>
      </trkpt>
      <trkpt lat="44.87953" lon="3.50017">
        <ele>1094</ele>
        <time>2018-04-29T09:10:06Z</time>
      </trkpt>
      <trkpt lat="44.87941" lon="3.50017">
        <ele>1091</ele>
        <time>2018-04-29T09:10:19Z</time>
      </trkpt>
      <trkpt lat="44.87937" lon="3.50016">
        <ele>1090</ele>
        <time>2018-04-29T09:10:24Z</time>
      </trkpt>
      <trkpt lat="44.87926" lon="3.50016">
        <ele>1092</ele>
        <time>2018-04-29T09:10:33Z</time>
      </trkpt>
      <trkpt lat="44.87917" lon="3.50017">
        <ele>1090</ele>
        <time>2018-04-29T09:10:41Z</time>
      </trkpt>
      <trkpt lat="44.87909" lon="3.5002">
        <ele>1089</ele>
        <time>2018-04-29T09:10:55Z</time>
      </trkpt>
      <trkpt lat="44.87905" lon="3.50021">
        <ele>1090</ele>
        <time>2018-04-29T09:10:59Z</time>
      </trkpt>
      <trkpt lat="44.879" lon="3.50021">
        <ele>1089</ele>
        <time>2018-04-29T09:11:03Z</time>
      </trkpt>
      <trkpt lat="44.8789" lon="3.5002">
        <ele>1090</ele>
        <time>2018-04-29T09:11:12Z</time>
      </trkpt>
      <trkpt lat="44.87885" lon="3.50017">
        <ele>1090</ele>
        <time>2018-04-29T09:11:17Z</time>
      </trkpt>
      <trkpt lat="44.87876" lon="3.50011">
        <ele>1091</ele>
        <time>2018-04-29T09:11:26Z</time>
      </trkpt>
      <trkpt lat="44.87871" lon="3.50008">
        <ele>1092</ele>
        <time>2018-04-29T09:11:31Z</time>
      </trkpt>
      <trkpt lat="44.87866" lon="3.50005">
        <ele>1092</ele>
        <time>2018-04-29T09:11:36Z</time>
      </trkpt>
      <trkpt lat="44.87861" lon="3.50003">
        <ele>1091</ele>
        <time>2018-04-29T09:11:41Z</time>
      </trkpt>
      <trkpt lat="44.87857" lon="3.50002">
        <ele>1092</ele>
        <time>2018-04-29T09:11:45Z</time>
      </trkpt>
      <trkpt lat="44.87847" lon="3.50002">
        <ele>1094</ele>
        <time>2018-04-29T09:11:54Z</time>
      </trkpt>
      <trkpt lat="44.87841" lon="3.50001">
        <ele>1094</ele>
        <time>2018-04-29T09:11:58Z</time>
      </trkpt>
      <trkpt lat="44.87836" lon="3.50005">
        <ele>1094</ele>
        <time>2018-04-29T09:12:03Z</time>
      </trkpt>
      <trkpt lat="44.87832" lon="3.50011">
        <ele>1094</ele>
        <time>2018-04-29T09:12:07Z</time>
      </trkpt>
      <trkpt lat="44.87827" lon="3.50025">
        <ele>1093</ele>
        <time>2018-04-29T09:12:15Z</time>
      </trkpt>
      <trkpt lat="44.87825" lon="3.50032">
        <ele>1093</ele>
        <time>2018-04-29T09:12:19Z</time>
      </trkpt>
      <trkpt lat="44.87823" lon="3.50039">
        <ele>1093</ele>
        <time>2018-04-29T09:12:23Z</time>
      </trkpt>
      <trkpt lat="44.87817" lon="3.50057">
        <ele>1096</ele>
        <time>2018-04-29T09:12:35Z</time>
      </trkpt>
      <trkpt lat="44.87813" lon="3.5007">
        <ele>1096</ele>
        <time>2018-04-29T09:12:43Z</time>
      </trkpt>
      <trkpt lat="44.87801" lon="3.50112">
        <ele>1099</ele>
        <time>2018-04-29T09:13:06Z</time>
      </trkpt>
      <trkpt lat="44.87792" lon="3.50129">
        <ele>1101</ele>
        <time>2018-04-29T09:13:18Z</time>
      </trkpt>
      <trkpt lat="44.87787" lon="3.50134">
        <ele>1102</ele>
        <time>2018-04-29T09:13:22Z</time>
      </trkpt>
      <trkpt lat="44.87783" lon="3.50135">
        <ele>1103</ele>
        <time>2018-04-29T09:13:26Z</time>
      </trkpt>
      <trkpt lat="44.87779" lon="3.50131">
        <ele>1104</ele>
        <time>2018-04-29T09:13:30Z</time>
      </trkpt>
      <trkpt lat="44.87776" lon="3.50126">
        <ele>1106</ele>
        <time>2018-04-29T09:13:34Z</time>
      </trkpt>
      <trkpt lat="44.87774" lon="3.50119">
        <ele>1107</ele>
        <time>2018-04-29T09:13:39Z</time>
      </trkpt>
      <trkpt lat="44.87768" lon="3.50114">
        <ele>1107</ele>
        <time>2018-04-29T09:14:04Z</time>
      </trkpt>
      <trkpt lat="44.87762" lon="3.50112">
        <ele>1107</ele>
        <time>2018-04-29T09:14:09Z</time>
      </trkpt>
      <trkpt lat="44.87753" lon="3.5011">
        <ele>1109</ele>
        <time>2018-04-29T09:14:18Z</time>
      </trkpt>
      <trkpt lat="44.87748" lon="3.50108">
        <ele>1110</ele>
        <time>2018-04-29T09:14:22Z</time>
      </trkpt>
      <trkpt lat="44.87743" lon="3.50109">
        <ele>1110</ele>
        <time>2018-04-29T09:14:26Z</time>
      </trkpt>
      <trkpt lat="44.87738" lon="3.50108">
        <ele>1110</ele>
        <time>2018-04-29T09:14:31Z</time>
      </trkpt>
      <trkpt lat="44.87735" lon="3.50115">
        <ele>1112</ele>
        <time>2018-04-29T09:15:07Z</time>
      </trkpt>
      <trkpt lat="44.87727" lon="3.50119">
        <ele>1112</ele>
        <time>2018-04-29T09:15:17Z</time>
      </trkpt>
      <trkpt lat="44.8772" lon="3.5013">
        <ele>1113</ele>
        <time>2018-04-29T09:15:27Z</time>
      </trkpt>
      <trkpt lat="44.87717" lon="3.50135">
        <ele>1113</ele>
        <time>2018-04-29T09:15:32Z</time>
      </trkpt>
      <trkpt lat="44.87707" lon="3.50144">
        <ele>1116</ele>
        <time>2018-04-29T09:15:45Z</time>
      </trkpt>
      <trkpt lat="44.87703" lon="3.50147">
        <ele>1114</ele>
        <time>2018-04-29T09:15:50Z</time>
      </trkpt>
      <trkpt lat="44.87693" lon="3.50154">
        <ele>1114</ele>
        <time>2018-04-29T09:16:05Z</time>
      </trkpt>
      <trkpt lat="44.87689" lon="3.50158">
        <ele>1115</ele>
        <time>2018-04-29T09:16:10Z</time>
      </trkpt>
      <trkpt lat="44.8767" lon="3.50172">
        <ele>1117</ele>
        <time>2018-04-29T09:16:32Z</time>
      </trkpt>
      <trkpt lat="44.87666" lon="3.50175">
        <ele>1116</ele>
        <time>2018-04-29T09:16:37Z</time>
      </trkpt>
      <trkpt lat="44.87634" lon="3.50187">
        <ele>1118</ele>
        <time>2018-04-29T09:17:12Z</time>
      </trkpt>
      <trkpt lat="44.87609" lon="3.50195">
        <ele>1121</ele>
        <time>2018-04-29T09:17:29Z</time>
      </trkpt>
      <trkpt lat="44.876" lon="3.50201">
        <ele>1121</ele>
        <time>2018-04-29T09:17:35Z</time>
      </trkpt>
      <trkpt lat="44.87583" lon="3.50215">
        <ele>1123</ele>
        <time>2018-04-29T09:17:48Z</time>
      </trkpt>
      <trkpt lat="44.87574" lon="3.50226">
        <ele>1126</ele>
        <time>2018-04-29T09:17:56Z</time>
      </trkpt>
      <trkpt lat="44.87563" lon="3.50241">
        <ele>1127</ele>
        <time>2018-04-29T09:18:08Z</time>
      </trkpt>
      <trkpt lat="44.87558" lon="3.50244">
        <ele>1129</ele>
        <time>2018-04-29T09:18:12Z</time>
      </trkpt>
      <trkpt lat="44.87554" lon="3.50241">
        <ele>1130</ele>
        <time>2018-04-29T09:18:50Z</time>
      </trkpt>
      <trkpt lat="44.87546" lon="3.5025">
        <ele>1130</ele>
        <time>2018-04-29T09:19:02Z</time>
      </trkpt>
      <trkpt lat="44.87537" lon="3.50256">
        <ele>1132</ele>
        <time>2018-04-29T09:19:11Z</time>
      </trkpt>
      <trkpt lat="44.87533" lon="3.50258">
        <ele>1133</ele>
        <time>2018-04-29T09:19:15Z</time>
      </trkpt>
      <trkpt lat="44.87524" lon="3.50263">
        <ele>1136</ele>
        <time>2018-04-29T09:19:25Z</time>
      </trkpt>
      <trkpt lat="44.87519" lon="3.50268">
        <ele>1136</ele>
        <time>2018-04-29T09:19:29Z</time>
      </trkpt>
      <trkpt lat="44.87513" lon="3.50271">
        <ele>1138</ele>
        <time>2018-04-29T09:19:36Z</time>
      </trkpt>
      <trkpt lat="44.87509" lon="3.50272">
        <ele>1138</ele>
        <time>2018-04-29T09:19:47Z</time>
      </trkpt>
      <trkpt lat="44.87504" lon="3.50272">
        <ele>1140</ele>
        <time>2018-04-29T09:20:05Z</time>
      </trkpt>
      <trkpt lat="44.87498" lon="3.50271">
        <ele>1141</ele>
        <time>2018-04-29T09:20:13Z</time>
      </trkpt>
      <trkpt lat="44.87492" lon="3.50271">
        <ele>1141</ele>
        <time>2018-04-29T09:20:19Z</time>
      </trkpt>
      <trkpt lat="44.87488" lon="3.50272">
        <ele>1141</ele>
        <time>2018-04-29T09:20:24Z</time>
      </trkpt>
      <trkpt lat="44.87481" lon="3.50277">
        <ele>1144</ele>
        <time>2018-04-29T09:20:54Z</time>
      </trkpt>
      <trkpt lat="44.87476" lon="3.50282">
        <ele>1144</ele>
        <time>2018-04-29T09:21:02Z</time>
      </trkpt>
      <trkpt lat="44.87471" lon="3.50286">
        <ele>1145</ele>
        <time>2018-04-29T09:21:07Z</time>
      </trkpt>
      <trkpt lat="44.87468" lon="3.5029">
        <ele>1145</ele>
        <time>2018-04-29T09:21:12Z</time>
      </trkpt>
      <trkpt lat="44.87463" lon="3.50292">
        <ele>1146</ele>
        <time>2018-04-29T09:21:20Z</time>
      </trkpt>
      <trkpt lat="44.87454" lon="3.50293">
        <ele>1149</ele>
        <time>2018-04-29T09:21:44Z</time>
      </trkpt>
      <trkpt lat="44.87452" lon="3.50285">
        <ele>1150</ele>
        <time>2018-04-29T09:21:50Z</time>
      </trkpt>
      <trkpt lat="44.87456" lon="3.5027">
        <ele>1150</ele>
        <time>2018-04-29T09:22:00Z</time>
      </trkpt>
      <trkpt lat="44.87467" lon="3.50233">
        <ele>1146</ele>
        <time>2018-04-29T09:22:25Z</time>
      </trkpt>
      <trkpt lat="44.8747" lon="3.50212">
        <ele>1145</ele>
        <time>2018-04-29T09:22:38Z</time>
      </trkpt>
      <trkpt lat="44.8747" lon="3.50205">
        <ele>1146</ele>
        <time>2018-04-29T09:22:42Z</time>
      </trkpt>
      <trkpt lat="44.8747" lon="3.50198">
        <ele>1146</ele>
        <time>2018-04-29T09:22:46Z</time>
      </trkpt>
      <trkpt lat="44.8747" lon="3.50185">
        <ele>1144</ele>
        <time>2018-04-29T09:22:54Z</time>
      </trkpt>
      <trkpt lat="44.8747" lon="3.50177">
        <ele>1144</ele>
        <time>2018-04-29T09:22:59Z</time>
      </trkpt>
      <trkpt lat="44.87468" lon="3.50162">
        <ele>1144</ele>
        <time>2018-04-29T09:23:09Z</time>
      </trkpt>
      <trkpt lat="44.87465" lon="3.50148">
        <ele>1143</ele>
        <time>2018-04-29T09:23:18Z</time>
      </trkpt>
      <trkpt lat="44.87463" lon="3.50135">
        <ele>1144</ele>
        <time>2018-04-29T09:23:26Z</time>
      </trkpt>
      <trkpt lat="44.87463" lon="3.50127">
        <ele>1144</ele>
        <time>2018-04-29T09:23:30Z</time>
      </trkpt>
      <trkpt lat="44.87461" lon="3.50101">
        <ele>1141</ele>
        <time>2018-04-29T09:23:46Z</time>
      </trkpt>
      <trkpt lat="44.87461" lon="3.50093">
        <ele>1142</ele>
        <time>2018-04-29T09:23:51Z</time>
      </trkpt>
      <trkpt lat="44.8746" lon="3.5008">
        <ele>1141</ele>
        <time>2018-04-29T09:23:59Z</time>
      </trkpt>
      <trkpt lat="44.87458" lon="3.50066">
        <ele>1141</ele>
        <time>2018-04-29T09:24:08Z</time>
      </trkpt>
      <trkpt lat="44.87455" lon="3.50044">
        <ele>1139</ele>
        <time>2018-04-29T09:24:22Z</time>
      </trkpt>
      <trkpt lat="44.8745" lon="3.50024">
        <ele>1140</ele>
        <time>2018-04-29T09:24:35Z</time>
      </trkpt>
      <trkpt lat="44.87447" lon="3.50011">
        <ele>1138</ele>
        <time>2018-04-29T09:24:44Z</time>
      </trkpt>
      <trkpt lat="44.87445" lon="3.50005">
        <ele>1139</ele>
        <time>2018-04-29T09:24:48Z</time>
      </trkpt>
      <trkpt lat="44.87432" lon="3.49965">
        <ele>1135</ele>
        <time>2018-04-29T09:25:15Z</time>
      </trkpt>
      <trkpt lat="44.87426" lon="3.49946">
        <ele>1137</ele>
        <time>2018-04-29T09:25:28Z</time>
      </trkpt>
      <trkpt lat="44.87423" lon="3.4994">
        <ele>1137</ele>
        <time>2018-04-29T09:25:32Z</time>
      </trkpt>
      <trkpt lat="44.8742" lon="3.49935">
        <ele>1136</ele>
        <time>2018-04-29T09:25:36Z</time>
      </trkpt>
      <trkpt lat="44.87412" lon="3.49908">
        <ele>1133</ele>
        <time>2018-04-29T09:25:54Z</time>
      </trkpt>
      <trkpt lat="44.8741" lon="3.49901">
        <ele>1133</ele>
        <time>2018-04-29T09:25:59Z</time>
      </trkpt>
      <trkpt lat="44.87403" lon="3.49876">
        <ele>1129</ele>
        <time>2018-04-29T09:26:15Z</time>
      </trkpt>
      <trkpt lat="44.87401" lon="3.49869">
        <ele>1130</ele>
        <time>2018-04-29T09:26:20Z</time>
      </trkpt>
      <trkpt lat="44.87394" lon="3.49851">
        <ele>1129</ele>
        <time>2018-04-29T09:26:32Z</time>
      </trkpt>
      <trkpt lat="44.87391" lon="3.49844">
        <ele>1129</ele>
        <time>2018-04-29T09:26:37Z</time>
      </trkpt>
      <trkpt lat="44.87387" lon="3.49832">
        <ele>1130</ele>
        <time>2018-04-29T09:26:45Z</time>
      </trkpt>
      <trkpt lat="44.87385" lon="3.49826">
        <ele>1130</ele>
        <time>2018-04-29T09:26:49Z</time>
      </trkpt>
      <trkpt lat="44.87383" lon="3.4982">
        <ele>1130</ele>
        <time>2018-04-29T09:26:53Z</time>
      </trkpt>
      <trkpt lat="44.8738" lon="3.49814">
        <ele>1129</ele>
        <time>2018-04-29T09:26:57Z</time>
      </trkpt>
      <trkpt lat="44.8737" lon="3.49783">
        <ele>1131</ele>
        <time>2018-04-29T09:27:18Z</time>
      </trkpt>
      <trkpt lat="44.87367" lon="3.49777">
        <ele>1131</ele>
        <time>2018-04-29T09:27:22Z</time>
      </trkpt>
      <trkpt lat="44.87361" lon="3.49765">
        <ele>1128</ele>
        <time>2018-04-29T09:27:32Z</time>
      </trkpt>
      <trkpt lat="44.87353" lon="3.49746">
        <ele>1127</ele>
        <time>2018-04-29T09:27:45Z</time>
      </trkpt>
      <trkpt lat="44.87328" lon="3.49703">
        <ele>1122</ele>
        <time>2018-04-29T09:28:19Z</time>
      </trkpt>
      <trkpt lat="44.87318" lon="3.49687">
        <ele>1120</ele>
        <time>2018-04-29T09:28:33Z</time>
      </trkpt>
      <trkpt lat="44.87313" lon="3.49682">
        <ele>1120</ele>
        <time>2018-04-29T09:28:38Z</time>
      </trkpt>
      <trkpt lat="44.87307" lon="3.49672">
        <ele>1119</ele>
        <time>2018-04-29T09:28:46Z</time>
      </trkpt>
      <trkpt lat="44.87304" lon="3.49667">
        <ele>1119</ele>
        <time>2018-04-29T09:28:50Z</time>
      </trkpt>
      <trkpt lat="44.87301" lon="3.49662">
        <ele>1118</ele>
        <time>2018-04-29T09:28:54Z</time>
      </trkpt>
      <trkpt lat="44.87297" lon="3.49657">
        <ele>1118</ele>
        <time>2018-04-29T09:28:59Z</time>
      </trkpt>
      <trkpt lat="44.87293" lon="3.49653">
        <ele>1118</ele>
        <time>2018-04-29T09:29:03Z</time>
      </trkpt>
      <trkpt lat="44.87288" lon="3.49651">
        <ele>1118</ele>
        <time>2018-04-29T09:29:08Z</time>
      </trkpt>
      <trkpt lat="44.87283" lon="3.49647">
        <ele>1117</ele>
        <time>2018-04-29T09:29:13Z</time>
      </trkpt>
      <trkpt lat="44.87278" lon="3.49644">
        <ele>1118</ele>
        <time>2018-04-29T09:29:18Z</time>
      </trkpt>
      <trkpt lat="44.87274" lon="3.49642">
        <ele>1117</ele>
        <time>2018-04-29T09:29:22Z</time>
      </trkpt>
      <trkpt lat="44.87246" lon="3.4963">
        <ele>1115</ele>
        <time>2018-04-29T09:29:55Z</time>
      </trkpt>
      <trkpt lat="44.87241" lon="3.49628">
        <ele>1115</ele>
        <time>2018-04-29T09:29:59Z</time>
      </trkpt>
      <trkpt lat="44.87232" lon="3.49621">
        <ele>1113</ele>
        <time>2018-04-29T09:30:09Z</time>
      </trkpt>
      <trkpt lat="44.87225" lon="3.49614">
        <ele>1115</ele>
        <time>2018-04-29T09:30:35Z</time>
      </trkpt>
      <trkpt lat="44.87222" lon="3.49609">
        <ele>1113</ele>
        <time>2018-04-29T09:30:39Z</time>
      </trkpt>
      <trkpt lat="44.87217" lon="3.49604">
        <ele>1113</ele>
        <time>2018-04-29T09:30:44Z</time>
      </trkpt>
      <trkpt lat="44.8721" lon="3.49592">
        <ele>1112</ele>
        <time>2018-04-29T09:30:53Z</time>
      </trkpt>
      <trkpt lat="44.87204" lon="3.49581">
        <ele>1111</ele>
        <time>2018-04-29T09:31:02Z</time>
      </trkpt>
      <trkpt lat="44.87197" lon="3.49554">
        <ele>1108</ele>
        <time>2018-04-29T09:31:18Z</time>
      </trkpt>
      <trkpt lat="44.87195" lon="3.49548">
        <ele>1108</ele>
        <time>2018-04-29T09:31:22Z</time>
      </trkpt>
      <trkpt lat="44.87192" lon="3.49542">
        <ele>1107</ele>
        <time>2018-04-29T09:31:26Z</time>
      </trkpt>
      <trkpt lat="44.87189" lon="3.49537">
        <ele>1107</ele>
        <time>2018-04-29T09:31:30Z</time>
      </trkpt>
      <trkpt lat="44.87185" lon="3.49525">
        <ele>1109</ele>
        <time>2018-04-29T09:31:39Z</time>
      </trkpt>
      <trkpt lat="44.87178" lon="3.4952">
        <ele>1110</ele>
        <time>2018-04-29T09:31:47Z</time>
      </trkpt>
      <trkpt lat="44.87168" lon="3.49522">
        <ele>1106</ele>
        <time>2018-04-29T09:31:56Z</time>
      </trkpt>
      <trkpt lat="44.87163" lon="3.49524">
        <ele>1106</ele>
        <time>2018-04-29T09:32:01Z</time>
      </trkpt>
      <trkpt lat="44.87156" lon="3.4953">
        <ele>1106</ele>
        <time>2018-04-29T09:32:22Z</time>
      </trkpt>
      <trkpt lat="44.8715" lon="3.49534">
        <ele>1104</ele>
        <time>2018-04-29T09:32:30Z</time>
      </trkpt>
      <trkpt lat="44.87141" lon="3.49538">
        <ele>1108</ele>
        <time>2018-04-29T09:32:50Z</time>
      </trkpt>
      <trkpt lat="44.87136" lon="3.49541">
        <ele>1109</ele>
        <time>2018-04-29T09:32:54Z</time>
      </trkpt>
      <trkpt lat="44.87131" lon="3.49545">
        <ele>1108</ele>
        <time>2018-04-29T09:32:59Z</time>
      </trkpt>
      <trkpt lat="44.87126" lon="3.49547">
        <ele>1107</ele>
        <time>2018-04-29T09:33:04Z</time>
      </trkpt>
      <trkpt lat="44.87116" lon="3.49549">
        <ele>1106</ele>
        <time>2018-04-29T09:33:12Z</time>
      </trkpt>
      <trkpt lat="44.87107" lon="3.49552">
        <ele>1107</ele>
        <time>2018-04-29T09:33:20Z</time>
      </trkpt>
      <trkpt lat="44.87102" lon="3.49553">
        <ele>1107</ele>
        <time>2018-04-29T09:33:24Z</time>
      </trkpt>
      <trkpt lat="44.87097" lon="3.49555">
        <ele>1108</ele>
        <time>2018-04-29T09:33:39Z</time>
      </trkpt>
      <trkpt lat="44.8709" lon="3.4956">
        <ele>1107</ele>
        <time>2018-04-29T09:34:01Z</time>
      </trkpt>
      <trkpt lat="44.87084" lon="3.49562">
        <ele>1107</ele>
        <time>2018-04-29T09:34:06Z</time>
      </trkpt>
      <trkpt lat="44.8708" lon="3.49564">
        <ele>1109</ele>
        <time>2018-04-29T09:34:10Z</time>
      </trkpt>
      <trkpt lat="44.87074" lon="3.49566">
        <ele>1108</ele>
        <time>2018-04-29T09:34:15Z</time>
      </trkpt>
      <trkpt lat="44.8707" lon="3.49568">
        <ele>1108</ele>
        <time>2018-04-29T09:34:20Z</time>
      </trkpt>
      <trkpt lat="44.87066" lon="3.49574">
        <ele>1109</ele>
        <time>2018-04-29T09:34:27Z</time>
      </trkpt>
      <trkpt lat="44.87059" lon="3.4958">
        <ele>1109</ele>
        <time>2018-04-29T09:34:36Z</time>
      </trkpt>
      <trkpt lat="44.87035" lon="3.49581">
        <ele>1110</ele>
        <time>2018-04-29T09:35:01Z</time>
      </trkpt>
      <trkpt lat="44.8702" lon="3.49579">
        <ele>1113</ele>
        <time>2018-04-29T09:35:17Z</time>
      </trkpt>
      <trkpt lat="44.87015" lon="3.49579">
        <ele>1112</ele>
        <time>2018-04-29T09:35:27Z</time>
      </trkpt>
      <trkpt lat="44.87005" lon="3.49575">
        <ele>1114</ele>
        <time>2018-04-29T09:35:37Z</time>
      </trkpt>
      <trkpt lat="44.87" lon="3.49573">
        <ele>1114</ele>
        <time>2018-04-29T09:35:41Z</time>
      </trkpt>
      <trkpt lat="44.86995" lon="3.49572">
        <ele>1113</ele>
        <time>2018-04-29T09:35:46Z</time>
      </trkpt>
      <trkpt lat="44.86991" lon="3.49572">
        <ele>1113</ele>
        <time>2018-04-29T09:35:51Z</time>
      </trkpt>
      <trkpt lat="44.86986" lon="3.49573">
        <ele>1113</ele>
        <time>2018-04-29T09:35:56Z</time>
      </trkpt>
      <trkpt lat="44.8698" lon="3.49572">
        <ele>1114</ele>
        <time>2018-04-29T09:36:01Z</time>
      </trkpt>
      <trkpt lat="44.86976" lon="3.49573">
        <ele>1114</ele>
        <time>2018-04-29T09:36:05Z</time>
      </trkpt>
      <trkpt lat="44.86967" lon="3.49575">
        <ele>1116</ele>
        <time>2018-04-29T09:36:15Z</time>
      </trkpt>
      <trkpt lat="44.86961" lon="3.49576">
        <ele>1115</ele>
        <time>2018-04-29T09:36:20Z</time>
      </trkpt>
      <trkpt lat="44.86956" lon="3.49577">
        <ele>1116</ele>
        <time>2018-04-29T09:36:25Z</time>
      </trkpt>
      <trkpt lat="44.86951" lon="3.49579">
        <ele>1116</ele>
        <time>2018-04-29T09:36:30Z</time>
      </trkpt>
      <trkpt lat="44.86944" lon="3.49583">
        <ele>1116</ele>
        <time>2018-04-29T09:36:39Z</time>
      </trkpt>
      <trkpt lat="44.86938" lon="3.49587">
        <ele>1117</ele>
        <time>2018-04-29T09:36:46Z</time>
      </trkpt>
      <trkpt lat="44.86934" lon="3.49589">
        <ele>1117</ele>
        <time>2018-04-29T09:36:51Z</time>
      </trkpt>
      <trkpt lat="44.86927" lon="3.49591">
        <ele>1118</ele>
        <time>2018-04-29T09:37:00Z</time>
      </trkpt>
      <trkpt lat="44.86922" lon="3.49593">
        <ele>1118</ele>
        <time>2018-04-29T09:37:05Z</time>
      </trkpt>
      <trkpt lat="44.86917" lon="3.49595">
        <ele>1118</ele>
        <time>2018-04-29T09:37:10Z</time>
      </trkpt>
      <trkpt lat="44.86907" lon="3.49597">
        <ele>1120</ele>
        <time>2018-04-29T09:37:20Z</time>
      </trkpt>
      <trkpt lat="44.86902" lon="3.49598">
        <ele>1120</ele>
        <time>2018-04-29T09:37:25Z</time>
      </trkpt>
      <trkpt lat="44.86897" lon="3.496">
        <ele>1121</ele>
        <time>2018-04-29T09:37:30Z</time>
      </trkpt>
      <trkpt lat="44.86893" lon="3.49602">
        <ele>1122</ele>
        <time>2018-04-29T09:37:38Z</time>
      </trkpt>
      <trkpt lat="44.86885" lon="3.49603">
        <ele>1120</ele>
        <time>2018-04-29T09:37:48Z</time>
      </trkpt>
      <trkpt lat="44.86876" lon="3.49605">
        <ele>1119</ele>
        <time>2018-04-29T09:37:56Z</time>
      </trkpt>
      <trkpt lat="44.86871" lon="3.49606">
        <ele>1120</ele>
        <time>2018-04-29T09:38:00Z</time>
      </trkpt>
      <trkpt lat="44.86865" lon="3.49606">
        <ele>1120</ele>
        <time>2018-04-29T09:38:05Z</time>
      </trkpt>
      <trkpt lat="44.86861" lon="3.49608">
        <ele>1119</ele>
        <time>2018-04-29T09:38:09Z</time>
      </trkpt>
      <trkpt lat="44.86856" lon="3.49608">
        <ele>1119</ele>
        <time>2018-04-29T09:38:13Z</time>
      </trkpt>
      <trkpt lat="44.86847" lon="3.49609">
        <ele>1120</ele>
        <time>2018-04-29T09:38:21Z</time>
      </trkpt>
      <trkpt lat="44.86837" lon="3.49612">
        <ele>1119</ele>
        <time>2018-04-29T09:38:29Z</time>
      </trkpt>
      <trkpt lat="44.86832" lon="3.49613">
        <ele>1118</ele>
        <time>2018-04-29T09:38:33Z</time>
      </trkpt>
      <trkpt lat="44.86817" lon="3.4962">
        <ele>1116</ele>
        <time>2018-04-29T09:38:46Z</time>
      </trkpt>
      <trkpt lat="44.86812" lon="3.49622">
        <ele>1117</ele>
        <time>2018-04-29T09:38:50Z</time>
      </trkpt>
      <trkpt lat="44.86807" lon="3.49624">
        <ele>1117</ele>
        <time>2018-04-29T09:38:54Z</time>
      </trkpt>
      <trkpt lat="44.86798" lon="3.49626">
        <ele>1117</ele>
        <time>2018-04-29T09:39:02Z</time>
      </trkpt>
      <trkpt lat="44.86793" lon="3.49626">
        <ele>1117</ele>
        <time>2018-04-29T09:39:06Z</time>
      </trkpt>
      <trkpt lat="44.86788" lon="3.49623">
        <ele>1117</ele>
        <time>2018-04-29T09:39:10Z</time>
      </trkpt>
      <trkpt lat="44.86783" lon="3.4962">
        <ele>1117</ele>
        <time>2018-04-29T09:39:15Z</time>
      </trkpt>
      <trkpt lat="44.86779" lon="3.49617">
        <ele>1116</ele>
        <time>2018-04-29T09:39:19Z</time>
      </trkpt>
      <trkpt lat="44.86756" lon="3.496">
        <ele>1119</ele>
        <time>2018-04-29T09:39:43Z</time>
      </trkpt>
      <trkpt lat="44.8675" lon="3.49599">
        <ele>1119</ele>
        <time>2018-04-29T09:39:48Z</time>
      </trkpt>
      <trkpt lat="44.86746" lon="3.49598">
        <ele>1119</ele>
        <time>2018-04-29T09:39:52Z</time>
      </trkpt>
      <trkpt lat="44.86741" lon="3.49596">
        <ele>1120</ele>
        <time>2018-04-29T09:39:56Z</time>
      </trkpt>
      <trkpt lat="44.86735" lon="3.49595">
        <ele>1121</ele>
        <time>2018-04-29T09:40:01Z</time>
      </trkpt>
      <trkpt lat="44.8673" lon="3.49595">
        <ele>1122</ele>
        <time>2018-04-29T09:40:05Z</time>
      </trkpt>
      <trkpt lat="44.86725" lon="3.49594">
        <ele>1122</ele>
        <time>2018-04-29T09:40:10Z</time>
      </trkpt>
      <trkpt lat="44.8672" lon="3.49593">
        <ele>1122</ele>
        <time>2018-04-29T09:40:14Z</time>
      </trkpt>
      <trkpt lat="44.86695" lon="3.49591">
        <ele>1122</ele>
        <time>2018-04-29T09:40:35Z</time>
      </trkpt>
      <trkpt lat="44.8669" lon="3.49592">
        <ele>1123</ele>
        <time>2018-04-29T09:40:39Z</time>
      </trkpt>
      <trkpt lat="44.86685" lon="3.49592">
        <ele>1123</ele>
        <time>2018-04-29T09:40:43Z</time>
      </trkpt>
      <trkpt lat="44.86676" lon="3.49593">
        <ele>1122</ele>
        <time>2018-04-29T09:41:28Z</time>
      </trkpt>
      <trkpt lat="44.86669" lon="3.49592">
        <ele>1123</ele>
        <time>2018-04-29T09:41:59Z</time>
      </trkpt>
      <trkpt lat="44.86658" lon="3.49592">
        <ele>1124</ele>
        <time>2018-04-29T09:42:09Z</time>
      </trkpt>
      <trkpt lat="44.86653" lon="3.49592">
        <ele>1125</ele>
        <time>2018-04-29T09:42:13Z</time>
      </trkpt>
      <trkpt lat="44.86647" lon="3.49591">
        <ele>1124</ele>
        <time>2018-04-29T09:42:18Z</time>
      </trkpt>
      <trkpt lat="44.86643" lon="3.4959">
        <ele>1124</ele>
        <time>2018-04-29T09:42:22Z</time>
      </trkpt>
      <trkpt lat="44.86638" lon="3.49589">
        <ele>1125</ele>
        <time>2018-04-29T09:42:27Z</time>
      </trkpt>
      <trkpt lat="44.86633" lon="3.49588">
        <ele>1124</ele>
        <time>2018-04-29T09:42:31Z</time>
      </trkpt>
      <trkpt lat="44.86628" lon="3.49588">
        <ele>1124</ele>
        <time>2018-04-29T09:42:36Z</time>
      </trkpt>
      <trkpt lat="44.86623" lon="3.49588">
        <ele>1125</ele>
        <time>2018-04-29T09:42:40Z</time>
      </trkpt>
      <trkpt lat="44.86613" lon="3.49587">
        <ele>1124</ele>
        <time>2018-04-29T09:42:49Z</time>
      </trkpt>
      <trkpt lat="44.86607" lon="3.49588">
        <ele>1125</ele>
        <time>2018-04-29T09:42:54Z</time>
      </trkpt>
      <trkpt lat="44.86598" lon="3.49585">
        <ele>1125</ele>
        <time>2018-04-29T09:43:02Z</time>
      </trkpt>
      <trkpt lat="44.86594" lon="3.49582">
        <ele>1126</ele>
        <time>2018-04-29T09:43:06Z</time>
      </trkpt>
      <trkpt lat="44.86589" lon="3.49581">
        <ele>1127</ele>
        <time>2018-04-29T09:43:10Z</time>
      </trkpt>
      <trkpt lat="44.86584" lon="3.49578">
        <ele>1128</ele>
        <time>2018-04-29T09:43:14Z</time>
      </trkpt>
      <trkpt lat="44.86576" lon="3.4957">
        <ele>1128</ele>
        <time>2018-04-29T09:43:22Z</time>
      </trkpt>
      <trkpt lat="44.86571" lon="3.49568">
        <ele>1130</ele>
        <time>2018-04-29T09:43:26Z</time>
      </trkpt>
      <trkpt lat="44.86561" lon="3.49561">
        <ele>1129</ele>
        <time>2018-04-29T09:43:34Z</time>
      </trkpt>
      <trkpt lat="44.86556" lon="3.49557">
        <ele>1129</ele>
        <time>2018-04-29T09:43:38Z</time>
      </trkpt>
      <trkpt lat="44.86551" lon="3.49554">
        <ele>1131</ele>
        <time>2018-04-29T09:43:42Z</time>
      </trkpt>
      <trkpt lat="44.86547" lon="3.4955">
        <ele>1130</ele>
        <time>2018-04-29T09:43:46Z</time>
      </trkpt>
      <trkpt lat="44.86534" lon="3.49541">
        <ele>1132</ele>
        <time>2018-04-29T09:43:58Z</time>
      </trkpt>
      <trkpt lat="44.86524" lon="3.49534">
        <ele>1132</ele>
        <time>2018-04-29T09:44:06Z</time>
      </trkpt>
      <trkpt lat="44.8652" lon="3.49532">
        <ele>1132</ele>
        <time>2018-04-29T09:44:10Z</time>
      </trkpt>
      <trkpt lat="44.86515" lon="3.49528">
        <ele>1132</ele>
        <time>2018-04-29T09:44:15Z</time>
      </trkpt>
      <trkpt lat="44.86506" lon="3.49523">
        <ele>1132</ele>
        <time>2018-04-29T09:44:25Z</time>
      </trkpt>
      <trkpt lat="44.86496" lon="3.49519">
        <ele>1133</ele>
        <time>2018-04-29T09:44:33Z</time>
      </trkpt>
      <trkpt lat="44.8649" lon="3.49517">
        <ele>1133</ele>
        <time>2018-04-29T09:44:41Z</time>
      </trkpt>
      <trkpt lat="44.86476" lon="3.49514">
        <ele>1134</ele>
        <time>2018-04-29T09:44:54Z</time>
      </trkpt>
      <trkpt lat="44.86471" lon="3.49514">
        <ele>1133</ele>
        <time>2018-04-29T09:44:58Z</time>
      </trkpt>
      <trkpt lat="44.86467" lon="3.49512">
        <ele>1133</ele>
        <time>2018-04-29T09:45:02Z</time>
      </trkpt>
      <trkpt lat="44.86461" lon="3.49512">
        <ele>1133</ele>
        <time>2018-04-29T09:45:07Z</time>
      </trkpt>
      <trkpt lat="44.86457" lon="3.49511">
        <ele>1133</ele>
        <time>2018-04-29T09:45:11Z</time>
      </trkpt>
      <trkpt lat="44.86447" lon="3.49511">
        <ele>1133</ele>
        <time>2018-04-29T09:45:20Z</time>
      </trkpt>
      <trkpt lat="44.86436" lon="3.49511">
        <ele>1136</ele>
        <time>2018-04-29T09:45:30Z</time>
      </trkpt>
      <trkpt lat="44.86431" lon="3.49511">
        <ele>1135</ele>
        <time>2018-04-29T09:45:35Z</time>
      </trkpt>
      <trkpt lat="44.86426" lon="3.49512">
        <ele>1135</ele>
        <time>2018-04-29T09:45:39Z</time>
      </trkpt>
      <trkpt lat="44.86416" lon="3.49516">
        <ele>1136</ele>
        <time>2018-04-29T09:45:48Z</time>
      </trkpt>
      <trkpt lat="44.86406" lon="3.4952">
        <ele>1136</ele>
        <time>2018-04-29T09:45:57Z</time>
      </trkpt>
      <trkpt lat="44.86402" lon="3.49522">
        <ele>1136</ele>
        <time>2018-04-29T09:46:01Z</time>
      </trkpt>
      <trkpt lat="44.86397" lon="3.49526">
        <ele>1136</ele>
        <time>2018-04-29T09:46:06Z</time>
      </trkpt>
      <trkpt lat="44.86387" lon="3.49532">
        <ele>1133</ele>
        <time>2018-04-29T09:46:14Z</time>
      </trkpt>
      <trkpt lat="44.86382" lon="3.49533">
        <ele>1134</ele>
        <time>2018-04-29T09:46:19Z</time>
      </trkpt>
      <trkpt lat="44.86376" lon="3.49534">
        <ele>1134</ele>
        <time>2018-04-29T09:46:27Z</time>
      </trkpt>
      <trkpt lat="44.86364" lon="3.49528">
        <ele>1130</ele>
        <time>2018-04-29T09:46:41Z</time>
      </trkpt>
      <trkpt lat="44.8636" lon="3.49526">
        <ele>1130</ele>
        <time>2018-04-29T09:46:45Z</time>
      </trkpt>
      <trkpt lat="44.86355" lon="3.49524">
        <ele>1130</ele>
        <time>2018-04-29T09:46:49Z</time>
      </trkpt>
      <trkpt lat="44.86316" lon="3.49517">
        <ele>1127</ele>
        <time>2018-04-29T09:47:20Z</time>
      </trkpt>
      <trkpt lat="44.86311" lon="3.49517">
        <ele>1126</ele>
        <time>2018-04-29T09:47:24Z</time>
      </trkpt>
      <trkpt lat="44.86305" lon="3.49518">
        <ele>1126</ele>
        <time>2018-04-29T09:47:28Z</time>
      </trkpt>
      <trkpt lat="44.86301" lon="3.4952">
        <ele>1126</ele>
        <time>2018-04-29T09:47:32Z</time>
      </trkpt>
      <trkpt lat="44.86291" lon="3.49521">
        <ele>1124</ele>
        <time>2018-04-29T09:47:41Z</time>
      </trkpt>
      <trkpt lat="44.86281" lon="3.49518">
        <ele>1125</ele>
        <time>2018-04-29T09:47:50Z</time>
      </trkpt>
      <trkpt lat="44.86276" lon="3.49517">
        <ele>1124</ele>
        <time>2018-04-29T09:47:54Z</time>
      </trkpt>
      <trkpt lat="44.86272" lon="3.49515">
        <ele>1125</ele>
        <time>2018-04-29T09:47:58Z</time>
      </trkpt>
      <trkpt lat="44.86268" lon="3.49513">
        <ele>1125</ele>
        <time>2018-04-29T09:48:02Z</time>
      </trkpt>
      <trkpt lat="44.86262" lon="3.49511">
        <ele>1124</ele>
        <time>2018-04-29T09:48:07Z</time>
      </trkpt>
      <trkpt lat="44.86258" lon="3.49509">
        <ele>1124</ele>
        <time>2018-04-29T09:48:11Z</time>
      </trkpt>
      <trkpt lat="44.86244" lon="3.49503">
        <ele>1124</ele>
        <time>2018-04-29T09:48:23Z</time>
      </trkpt>
      <trkpt lat="44.8624" lon="3.49501">
        <ele>1123</ele>
        <time>2018-04-29T09:48:27Z</time>
      </trkpt>
      <trkpt lat="44.8623" lon="3.49497">
        <ele>1123</ele>
        <time>2018-04-29T09:48:36Z</time>
      </trkpt>
      <trkpt lat="44.86226" lon="3.49494">
        <ele>1123</ele>
        <time>2018-04-29T09:48:41Z</time>
      </trkpt>
      <trkpt lat="44.86217" lon="3.49486">
        <ele>1123</ele>
        <time>2018-04-29T09:48:51Z</time>
      </trkpt>
      <trkpt lat="44.86213" lon="3.49482">
        <ele>1123</ele>
        <time>2018-04-29T09:48:55Z</time>
      </trkpt>
      <trkpt lat="44.86209" lon="3.49481">
        <ele>1124</ele>
        <time>2018-04-29T09:49:06Z</time>
      </trkpt>
      <trkpt lat="44.86203" lon="3.49479">
        <ele>1124</ele>
        <time>2018-04-29T09:49:19Z</time>
      </trkpt>
      <trkpt lat="44.86198" lon="3.49479">
        <ele>1124</ele>
        <time>2018-04-29T09:49:31Z</time>
      </trkpt>
      <trkpt lat="44.86181" lon="3.4947">
        <ele>1126</ele>
        <time>2018-04-29T09:49:52Z</time>
      </trkpt>
      <trkpt lat="44.86171" lon="3.49469">
        <ele>1128</ele>
        <time>2018-04-29T09:50:02Z</time>
      </trkpt>
      <trkpt lat="44.86161" lon="3.49473">
        <ele>1129</ele>
        <time>2018-04-29T09:50:12Z</time>
      </trkpt>
      <trkpt lat="44.86155" lon="3.49475">
        <ele>1128</ele>
        <time>2018-04-29T09:50:20Z</time>
      </trkpt>
      <trkpt lat="44.86149" lon="3.49477">
        <ele>1129</ele>
        <time>2018-04-29T09:50:25Z</time>
      </trkpt>
      <trkpt lat="44.86125" lon="3.49475">
        <ele>1132</ele>
        <time>2018-04-29T09:50:51Z</time>
      </trkpt>
      <trkpt lat="44.86116" lon="3.49471">
        <ele>1133</ele>
        <time>2018-04-29T09:51:00Z</time>
      </trkpt>
      <trkpt lat="44.86109" lon="3.49469">
        <ele>1135</ele>
        <time>2018-04-29T09:51:07Z</time>
      </trkpt>
      <trkpt lat="44.86095" lon="3.49465">
        <ele>1135</ele>
        <time>2018-04-29T09:51:30Z</time>
      </trkpt>
      <trkpt lat="44.86074" lon="3.49454">
        <ele>1138</ele>
        <time>2018-04-29T09:52:01Z</time>
      </trkpt>
      <trkpt lat="44.8607" lon="3.4945">
        <ele>1140</ele>
        <time>2018-04-29T09:52:06Z</time>
      </trkpt>
      <trkpt lat="44.86059" lon="3.49442">
        <ele>1141</ele>
        <time>2018-04-29T09:52:18Z</time>
      </trkpt>
      <trkpt lat="44.86041" lon="3.49433">
        <ele>1144</ele>
        <time>2018-04-29T09:52:49Z</time>
      </trkpt>
      <trkpt lat="44.86037" lon="3.49432">
        <ele>1144</ele>
        <time>2018-04-29T09:53:24Z</time>
      </trkpt>
      <trkpt lat="44.86027" lon="3.49427">
        <ele>1146</ele>
        <time>2018-04-29T09:53:35Z</time>
      </trkpt>
      <trkpt lat="44.86023" lon="3.49424">
        <ele>1146</ele>
        <time>2018-04-29T09:53:40Z</time>
      </trkpt>
      <trkpt lat="44.86" lon="3.49409">
        <ele>1151</ele>
        <time>2018-04-29T09:54:10Z</time>
      </trkpt>
      <trkpt lat="44.85994" lon="3.49409">
        <ele>1153</ele>
        <time>2018-04-29T09:54:23Z</time>
      </trkpt>
      <trkpt lat="44.85971" lon="3.49394">
        <ele>1155</ele>
        <time>2018-04-29T09:55:12Z</time>
      </trkpt>
      <trkpt lat="44.85966" lon="3.4939">
        <ele>1155</ele>
        <time>2018-04-29T09:55:16Z</time>
      </trkpt>
      <trkpt lat="44.85955" lon="3.49385">
        <ele>1155</ele>
        <time>2018-04-29T09:55:24Z</time>
      </trkpt>
      <trkpt lat="44.85951" lon="3.49383">
        <ele>1156</ele>
        <time>2018-04-29T09:55:28Z</time>
      </trkpt>
      <trkpt lat="44.85946" lon="3.4938">
        <ele>1156</ele>
        <time>2018-04-29T09:55:32Z</time>
      </trkpt>
      <trkpt lat="44.85942" lon="3.49377">
        <ele>1156</ele>
        <time>2018-04-29T09:55:36Z</time>
      </trkpt>
      <trkpt lat="44.85937" lon="3.49374">
        <ele>1156</ele>
        <time>2018-04-29T09:55:40Z</time>
      </trkpt>
      <trkpt lat="44.85928" lon="3.49368">
        <ele>1158</ele>
        <time>2018-04-29T09:55:48Z</time>
      </trkpt>
      <trkpt lat="44.85924" lon="3.49366">
        <ele>1158</ele>
        <time>2018-04-29T09:55:52Z</time>
      </trkpt>
      <trkpt lat="44.85918" lon="3.49365">
        <ele>1158</ele>
        <time>2018-04-29T09:55:56Z</time>
      </trkpt>
      <trkpt lat="44.85908" lon="3.49367">
        <ele>1160</ele>
        <time>2018-04-29T09:56:04Z</time>
      </trkpt>
      <trkpt lat="44.85904" lon="3.49367">
        <ele>1160</ele>
        <time>2018-04-29T09:56:09Z</time>
      </trkpt>
      <trkpt lat="44.85899" lon="3.49367">
        <ele>1162</ele>
        <time>2018-04-29T09:56:17Z</time>
      </trkpt>
      <trkpt lat="44.85894" lon="3.49367">
        <ele>1162</ele>
        <time>2018-04-29T09:56:21Z</time>
      </trkpt>
      <trkpt lat="44.85889" lon="3.49365">
        <ele>1162</ele>
        <time>2018-04-29T09:56:25Z</time>
      </trkpt>
      <trkpt lat="44.85884" lon="3.49364">
        <ele>1162</ele>
        <time>2018-04-29T09:56:29Z</time>
      </trkpt>
      <trkpt lat="44.85874" lon="3.4936">
        <ele>1163</ele>
        <time>2018-04-29T09:56:38Z</time>
      </trkpt>
      <trkpt lat="44.85868" lon="3.49358">
        <ele>1163</ele>
        <time>2018-04-29T09:56:42Z</time>
      </trkpt>
      <trkpt lat="44.85863" lon="3.49356">
        <ele>1164</ele>
        <time>2018-04-29T09:56:46Z</time>
      </trkpt>
      <trkpt lat="44.85854" lon="3.49348">
        <ele>1164</ele>
        <time>2018-04-29T09:56:54Z</time>
      </trkpt>
      <trkpt lat="44.8585" lon="3.49344">
        <ele>1164</ele>
        <time>2018-04-29T09:56:58Z</time>
      </trkpt>
      <trkpt lat="44.85845" lon="3.4934">
        <ele>1164</ele>
        <time>2018-04-29T09:57:03Z</time>
      </trkpt>
      <trkpt lat="44.8584" lon="3.49327">
        <ele>1162</ele>
        <time>2018-04-29T09:57:12Z</time>
      </trkpt>
      <trkpt lat="44.85839" lon="3.49321">
        <ele>1162</ele>
        <time>2018-04-29T09:57:16Z</time>
      </trkpt>
      <trkpt lat="44.85836" lon="3.49315">
        <ele>1162</ele>
        <time>2018-04-29T09:57:20Z</time>
      </trkpt>
      <trkpt lat="44.85832" lon="3.49309">
        <ele>1163</ele>
        <time>2018-04-29T09:57:24Z</time>
      </trkpt>
      <trkpt lat="44.85827" lon="3.49307">
        <ele>1163</ele>
        <time>2018-04-29T09:57:27Z</time>
      </trkpt>
      <trkpt lat="44.85822" lon="3.49306">
        <ele>1162</ele>
        <time>2018-04-29T09:57:31Z</time>
      </trkpt>
      <trkpt lat="44.85816" lon="3.49306">
        <ele>1162</ele>
        <time>2018-04-29T09:57:35Z</time>
      </trkpt>
      <trkpt lat="44.85806" lon="3.49305">
        <ele>1162</ele>
        <time>2018-04-29T09:57:44Z</time>
      </trkpt>
      <trkpt lat="44.85795" lon="3.49304">
        <ele>1160</ele>
        <time>2018-04-29T09:57:52Z</time>
      </trkpt>
      <trkpt lat="44.8579" lon="3.49304">
        <ele>1161</ele>
        <time>2018-04-29T09:57:56Z</time>
      </trkpt>
      <trkpt lat="44.85784" lon="3.49305">
        <ele>1162</ele>
        <time>2018-04-29T09:58:00Z</time>
      </trkpt>
      <trkpt lat="44.85779" lon="3.49304">
        <ele>1161</ele>
        <time>2018-04-29T09:58:04Z</time>
      </trkpt>
      <trkpt lat="44.85774" lon="3.49303">
        <ele>1161</ele>
        <time>2018-04-29T09:58:09Z</time>
      </trkpt>
      <trkpt lat="44.85764" lon="3.49307">
        <ele>1159</ele>
        <time>2018-04-29T09:58:17Z</time>
      </trkpt>
      <trkpt lat="44.85759" lon="3.49309">
        <ele>1159</ele>
        <time>2018-04-29T09:58:21Z</time>
      </trkpt>
      <trkpt lat="44.85754" lon="3.4931">
        <ele>1159</ele>
        <time>2018-04-29T09:58:25Z</time>
      </trkpt>
      <trkpt lat="44.85749" lon="3.4931">
        <ele>1158</ele>
        <time>2018-04-29T09:58:29Z</time>
      </trkpt>
      <trkpt lat="44.85744" lon="3.4931">
        <ele>1158</ele>
        <time>2018-04-29T09:58:33Z</time>
      </trkpt>
      <trkpt lat="44.85738" lon="3.49311">
        <ele>1159</ele>
        <time>2018-04-29T09:58:37Z</time>
      </trkpt>
      <trkpt lat="44.85733" lon="3.49311">
        <ele>1159</ele>
        <time>2018-04-29T09:58:41Z</time>
      </trkpt>
      <trkpt lat="44.85729" lon="3.49311">
        <ele>1159</ele>
        <time>2018-04-29T09:58:45Z</time>
      </trkpt>
      <trkpt lat="44.85723" lon="3.49311">
        <ele>1159</ele>
        <time>2018-04-29T09:58:49Z</time>
      </trkpt>
      <trkpt lat="44.85718" lon="3.49311">
        <ele>1159</ele>
        <time>2018-04-29T09:58:53Z</time>
      </trkpt>
      <trkpt lat="44.85713" lon="3.49312">
        <ele>1161</ele>
        <time>2018-04-29T09:58:57Z</time>
      </trkpt>
      <trkpt lat="44.85708" lon="3.49313">
        <ele>1161</ele>
        <time>2018-04-29T09:59:02Z</time>
      </trkpt>
      <trkpt lat="44.85703" lon="3.49315">
        <ele>1160</ele>
        <time>2018-04-29T09:59:07Z</time>
      </trkpt>
      <trkpt lat="44.85697" lon="3.49318">
        <ele>1158</ele>
        <time>2018-04-29T09:59:20Z</time>
      </trkpt>
      <trkpt lat="44.85692" lon="3.49321">
        <ele>1159</ele>
        <time>2018-04-29T09:59:24Z</time>
      </trkpt>
      <trkpt lat="44.85688" lon="3.49325">
        <ele>1159</ele>
        <time>2018-04-29T09:59:29Z</time>
      </trkpt>
      <trkpt lat="44.85685" lon="3.49331">
        <ele>1156</ele>
        <time>2018-04-29T09:59:34Z</time>
      </trkpt>
      <trkpt lat="44.8568" lon="3.49338">
        <ele>1155</ele>
        <time>2018-04-29T09:59:41Z</time>
      </trkpt>
      <trkpt lat="44.85666" lon="3.49351">
        <ele>1156</ele>
        <time>2018-04-29T09:59:56Z</time>
      </trkpt>
      <trkpt lat="44.85663" lon="3.4936">
        <ele>1157</ele>
        <time>2018-04-29T10:00:10Z</time>
      </trkpt>
      <trkpt lat="44.85666" lon="3.4937">
        <ele>1158</ele>
        <time>2018-04-29T10:00:22Z</time>
      </trkpt>
      <trkpt lat="44.85672" lon="3.4937">
        <ele>1159</ele>
        <time>2018-04-29T10:00:58Z</time>
      </trkpt>
      <trkpt lat="44.85676" lon="3.49367">
        <ele>1159</ele>
        <time>2018-04-29T10:01:02Z</time>
      </trkpt>
      <trkpt lat="44.85681" lon="3.49365">
        <ele>1160</ele>
        <time>2018-04-29T10:01:07Z</time>
      </trkpt>
      <trkpt lat="44.85692" lon="3.49372">
        <ele>1155</ele>
        <time>2018-04-29T10:01:43Z</time>
      </trkpt>
      <trkpt lat="44.85679" lon="3.49376">
        <ele>1157</ele>
        <time>2018-04-29T10:55:19Z</time>
      </trkpt>
      <trkpt lat="44.85675" lon="3.49379">
        <ele>1157</ele>
        <time>2018-04-29T10:55:23Z</time>
      </trkpt>
      <trkpt lat="44.85673" lon="3.49388">
        <ele>1159</ele>
        <time>2018-04-29T10:55:34Z</time>
      </trkpt>
      <trkpt lat="44.8567" lon="3.49394">
        <ele>1159</ele>
        <time>2018-04-29T10:55:38Z</time>
      </trkpt>
      <trkpt lat="44.85668" lon="3.49408">
        <ele>1160</ele>
        <time>2018-04-29T10:55:47Z</time>
      </trkpt>
      <trkpt lat="44.85671" lon="3.49413">
        <ele>1161</ele>
        <time>2018-04-29T10:55:52Z</time>
      </trkpt>
      <trkpt lat="44.85672" lon="3.49422">
        <ele>1162</ele>
        <time>2018-04-29T10:56:00Z</time>
      </trkpt>
      <trkpt lat="44.85671" lon="3.49428">
        <ele>1163</ele>
        <time>2018-04-29T10:56:05Z</time>
      </trkpt>
      <trkpt lat="44.85673" lon="3.49455">
        <ele>1166</ele>
        <time>2018-04-29T10:56:35Z</time>
      </trkpt>
      <trkpt lat="44.85672" lon="3.49462">
        <ele>1166</ele>
        <time>2018-04-29T10:56:41Z</time>
      </trkpt>
      <trkpt lat="44.85661" lon="3.49479">
        <ele>1169</ele>
        <time>2018-04-29T10:56:54Z</time>
      </trkpt>
      <trkpt lat="44.85645" lon="3.49505">
        <ele>1171</ele>
        <time>2018-04-29T10:57:16Z</time>
      </trkpt>
      <trkpt lat="44.85635" lon="3.49516">
        <ele>1173</ele>
        <time>2018-04-29T10:57:30Z</time>
      </trkpt>
      <trkpt lat="44.85624" lon="3.49521">
        <ele>1174</ele>
        <time>2018-04-29T10:57:45Z</time>
      </trkpt>
      <trkpt lat="44.85619" lon="3.49524">
        <ele>1174</ele>
        <time>2018-04-29T10:58:33Z</time>
      </trkpt>
      <trkpt lat="44.85613" lon="3.49523">
        <ele>1174</ele>
        <time>2018-04-29T10:58:53Z</time>
      </trkpt>
      <trkpt lat="44.85598" lon="3.49524">
        <ele>1177</ele>
        <time>2018-04-29T10:59:06Z</time>
      </trkpt>
      <trkpt lat="44.85592" lon="3.49523">
        <ele>1177</ele>
        <time>2018-04-29T10:59:11Z</time>
      </trkpt>
      <trkpt lat="44.85577" lon="3.49516">
        <ele>1177</ele>
        <time>2018-04-29T10:59:25Z</time>
      </trkpt>
      <trkpt lat="44.85567" lon="3.49515">
        <ele>1176</ele>
        <time>2018-04-29T10:59:34Z</time>
      </trkpt>
      <trkpt lat="44.85556" lon="3.49512">
        <ele>1176</ele>
        <time>2018-04-29T11:00:01Z</time>
      </trkpt>
      <trkpt lat="44.85544" lon="3.49517">
        <ele>1175</ele>
        <time>2018-04-29T11:00:19Z</time>
      </trkpt>
      <trkpt lat="44.85521" lon="3.4952">
        <ele>1174</ele>
        <time>2018-04-29T11:00:41Z</time>
      </trkpt>
      <trkpt lat="44.85515" lon="3.49521">
        <ele>1174</ele>
        <time>2018-04-29T11:00:46Z</time>
      </trkpt>
      <trkpt lat="44.85496" lon="3.49523">
        <ele>1173</ele>
        <time>2018-04-29T11:01:02Z</time>
      </trkpt>
      <trkpt lat="44.85492" lon="3.49523">
        <ele>1173</ele>
        <time>2018-04-29T11:01:06Z</time>
      </trkpt>
      <trkpt lat="44.85477" lon="3.49526">
        <ele>1172</ele>
        <time>2018-04-29T11:01:18Z</time>
      </trkpt>
      <trkpt lat="44.85472" lon="3.49528">
        <ele>1171</ele>
        <time>2018-04-29T11:01:22Z</time>
      </trkpt>
      <trkpt lat="44.85453" lon="3.49542">
        <ele>1169</ele>
        <time>2018-04-29T11:01:38Z</time>
      </trkpt>
      <trkpt lat="44.85449" lon="3.49547">
        <ele>1170</ele>
        <time>2018-04-29T11:01:42Z</time>
      </trkpt>
      <trkpt lat="44.85435" lon="3.49558">
        <ele>1169</ele>
        <time>2018-04-29T11:01:54Z</time>
      </trkpt>
      <trkpt lat="44.85425" lon="3.49564">
        <ele>1170</ele>
        <time>2018-04-29T11:02:02Z</time>
      </trkpt>
      <trkpt lat="44.8542" lon="3.49566">
        <ele>1169</ele>
        <time>2018-04-29T11:02:06Z</time>
      </trkpt>
      <trkpt lat="44.85415" lon="3.49569">
        <ele>1169</ele>
        <time>2018-04-29T11:02:10Z</time>
      </trkpt>
      <trkpt lat="44.8541" lon="3.49571">
        <ele>1169</ele>
        <time>2018-04-29T11:02:14Z</time>
      </trkpt>
      <trkpt lat="44.854" lon="3.49575">
        <ele>1168</ele>
        <time>2018-04-29T11:02:22Z</time>
      </trkpt>
      <trkpt lat="44.85396" lon="3.49577">
        <ele>1168</ele>
        <time>2018-04-29T11:02:26Z</time>
      </trkpt>
      <trkpt lat="44.85391" lon="3.4958">
        <ele>1169</ele>
        <time>2018-04-29T11:02:30Z</time>
      </trkpt>
      <trkpt lat="44.85381" lon="3.49583">
        <ele>1168</ele>
        <time>2018-04-29T11:02:38Z</time>
      </trkpt>
      <trkpt lat="44.85371" lon="3.49586">
        <ele>1168</ele>
        <time>2018-04-29T11:02:46Z</time>
      </trkpt>
      <trkpt lat="44.85361" lon="3.49584">
        <ele>1168</ele>
        <time>2018-04-29T11:02:54Z</time>
      </trkpt>
      <trkpt lat="44.85346" lon="3.49581">
        <ele>1169</ele>
        <time>2018-04-29T11:03:06Z</time>
      </trkpt>
      <trkpt lat="44.85341" lon="3.49578">
        <ele>1170</ele>
        <time>2018-04-29T11:03:10Z</time>
      </trkpt>
      <trkpt lat="44.85337" lon="3.49575">
        <ele>1170</ele>
        <time>2018-04-29T11:03:14Z</time>
      </trkpt>
      <trkpt lat="44.85332" lon="3.49576">
        <ele>1170</ele>
        <time>2018-04-29T11:03:18Z</time>
      </trkpt>
      <trkpt lat="44.85327" lon="3.49577">
        <ele>1171</ele>
        <time>2018-04-29T11:03:22Z</time>
      </trkpt>
      <trkpt lat="44.85322" lon="3.49576">
        <ele>1171</ele>
        <time>2018-04-29T11:03:27Z</time>
      </trkpt>
      <trkpt lat="44.85318" lon="3.49573">
        <ele>1172</ele>
        <time>2018-04-29T11:03:31Z</time>
      </trkpt>
      <trkpt lat="44.85313" lon="3.49572">
        <ele>1172</ele>
        <time>2018-04-29T11:03:36Z</time>
      </trkpt>
      <trkpt lat="44.85309" lon="3.49574">
        <ele>1173</ele>
        <time>2018-04-29T11:03:44Z</time>
      </trkpt>
      <trkpt lat="44.85302" lon="3.49574">
        <ele>1173</ele>
        <time>2018-04-29T11:04:12Z</time>
      </trkpt>
      <trkpt lat="44.85297" lon="3.49573">
        <ele>1173</ele>
        <time>2018-04-29T11:04:16Z</time>
      </trkpt>
      <trkpt lat="44.85288" lon="3.49568">
        <ele>1175</ele>
        <time>2018-04-29T11:04:24Z</time>
      </trkpt>
      <trkpt lat="44.85278" lon="3.49566">
        <ele>1176</ele>
        <time>2018-04-29T11:04:33Z</time>
      </trkpt>
      <trkpt lat="44.85273" lon="3.49564">
        <ele>1176</ele>
        <time>2018-04-29T11:04:38Z</time>
      </trkpt>
      <trkpt lat="44.85268" lon="3.49564">
        <ele>1177</ele>
        <time>2018-04-29T11:04:42Z</time>
      </trkpt>
      <trkpt lat="44.85263" lon="3.49563">
        <ele>1177</ele>
        <time>2018-04-29T11:04:46Z</time>
      </trkpt>
      <trkpt lat="44.85249" lon="3.49556">
        <ele>1178</ele>
        <time>2018-04-29T11:04:58Z</time>
      </trkpt>
      <trkpt lat="44.85239" lon="3.49558">
        <ele>1180</ele>
        <time>2018-04-29T11:05:06Z</time>
      </trkpt>
      <trkpt lat="44.85234" lon="3.49563">
        <ele>1180</ele>
        <time>2018-04-29T11:05:09Z</time>
      </trkpt>
      <trkpt lat="44.8523" lon="3.49566">
        <ele>1180</ele>
        <time>2018-04-29T11:05:12Z</time>
      </trkpt>
      <trkpt lat="44.85225" lon="3.49568">
        <ele>1180</ele>
        <time>2018-04-29T11:05:16Z</time>
      </trkpt>
      <trkpt lat="44.85214" lon="3.49566">
        <ele>1182</ele>
        <time>2018-04-29T11:05:25Z</time>
      </trkpt>
      <trkpt lat="44.85209" lon="3.49565">
        <ele>1182</ele>
        <time>2018-04-29T11:05:30Z</time>
      </trkpt>
      <trkpt lat="44.85185" lon="3.49569">
        <ele>1183</ele>
        <time>2018-04-29T11:05:50Z</time>
      </trkpt>
      <trkpt lat="44.8518" lon="3.49572">
        <ele>1183</ele>
        <time>2018-04-29T11:05:54Z</time>
      </trkpt>
      <trkpt lat="44.85175" lon="3.49572">
        <ele>1184</ele>
        <time>2018-04-29T11:05:58Z</time>
      </trkpt>
      <trkpt lat="44.85166" lon="3.49574">
        <ele>1184</ele>
        <time>2018-04-29T11:06:06Z</time>
      </trkpt>
      <trkpt lat="44.8516" lon="3.49573">
        <ele>1183</ele>
        <time>2018-04-29T11:06:11Z</time>
      </trkpt>
      <trkpt lat="44.85138" lon="3.49581">
        <ele>1180</ele>
        <time>2018-04-29T11:06:28Z</time>
      </trkpt>
      <trkpt lat="44.85134" lon="3.4958">
        <ele>1180</ele>
        <time>2018-04-29T11:06:32Z</time>
      </trkpt>
      <trkpt lat="44.85124" lon="3.49584">
        <ele>1180</ele>
        <time>2018-04-29T11:06:40Z</time>
      </trkpt>
      <trkpt lat="44.85119" lon="3.49588">
        <ele>1179</ele>
        <time>2018-04-29T11:06:44Z</time>
      </trkpt>
      <trkpt lat="44.85108" lon="3.49601">
        <ele>1181</ele>
        <time>2018-04-29T11:06:53Z</time>
      </trkpt>
      <trkpt lat="44.85104" lon="3.49606">
        <ele>1181</ele>
        <time>2018-04-29T11:06:56Z</time>
      </trkpt>
      <trkpt lat="44.851" lon="3.49612">
        <ele>1181</ele>
        <time>2018-04-29T11:07:00Z</time>
      </trkpt>
      <trkpt lat="44.85096" lon="3.49617">
        <ele>1181</ele>
        <time>2018-04-29T11:07:04Z</time>
      </trkpt>
      <trkpt lat="44.85093" lon="3.49624">
        <ele>1181</ele>
        <time>2018-04-29T11:07:09Z</time>
      </trkpt>
      <trkpt lat="44.85091" lon="3.49631">
        <ele>1180</ele>
        <time>2018-04-29T11:07:14Z</time>
      </trkpt>
      <trkpt lat="44.85083" lon="3.49648">
        <ele>1181</ele>
        <time>2018-04-29T11:07:27Z</time>
      </trkpt>
      <trkpt lat="44.85079" lon="3.49653">
        <ele>1181</ele>
        <time>2018-04-29T11:07:31Z</time>
      </trkpt>
      <trkpt lat="44.85075" lon="3.49658">
        <ele>1181</ele>
        <time>2018-04-29T11:07:35Z</time>
      </trkpt>
      <trkpt lat="44.8507" lon="3.49659">
        <ele>1181</ele>
        <time>2018-04-29T11:07:39Z</time>
      </trkpt>
      <trkpt lat="44.85054" lon="3.49662">
        <ele>1181</ele>
        <time>2018-04-29T11:07:51Z</time>
      </trkpt>
      <trkpt lat="44.85049" lon="3.49663">
        <ele>1182</ele>
        <time>2018-04-29T11:07:55Z</time>
      </trkpt>
      <trkpt lat="44.85038" lon="3.49662">
        <ele>1182</ele>
        <time>2018-04-29T11:08:03Z</time>
      </trkpt>
      <trkpt lat="44.85017" lon="3.49655">
        <ele>1183</ele>
        <time>2018-04-29T11:08:19Z</time>
      </trkpt>
      <trkpt lat="44.85011" lon="3.49655">
        <ele>1183</ele>
        <time>2018-04-29T11:08:23Z</time>
      </trkpt>
      <trkpt lat="44.85001" lon="3.49655">
        <ele>1183</ele>
        <time>2018-04-29T11:08:31Z</time>
      </trkpt>
      <trkpt lat="44.84996" lon="3.49654">
        <ele>1184</ele>
        <time>2018-04-29T11:08:35Z</time>
      </trkpt>
      <trkpt lat="44.8499" lon="3.49655">
        <ele>1184</ele>
        <time>2018-04-29T11:08:40Z</time>
      </trkpt>
      <trkpt lat="44.84986" lon="3.49659">
        <ele>1184</ele>
        <time>2018-04-29T11:08:44Z</time>
      </trkpt>
      <trkpt lat="44.84979" lon="3.4967">
        <ele>1184</ele>
        <time>2018-04-29T11:08:52Z</time>
      </trkpt>
      <trkpt lat="44.84976" lon="3.49675">
        <ele>1184</ele>
        <time>2018-04-29T11:08:56Z</time>
      </trkpt>
      <trkpt lat="44.84965" lon="3.49688">
        <ele>1186</ele>
        <time>2018-04-29T11:09:08Z</time>
      </trkpt>
      <trkpt lat="44.84957" lon="3.49696">
        <ele>1186</ele>
        <time>2018-04-29T11:09:16Z</time>
      </trkpt>
      <trkpt lat="44.84939" lon="3.49711">
        <ele>1189</ele>
        <time>2018-04-29T11:09:35Z</time>
      </trkpt>
      <trkpt lat="44.84925" lon="3.49735">
        <ele>1191</ele>
        <time>2018-04-29T11:10:06Z</time>
      </trkpt>
      <trkpt lat="44.84916" lon="3.49741">
        <ele>1193</ele>
        <time>2018-04-29T11:10:32Z</time>
      </trkpt>
      <trkpt lat="44.84907" lon="3.49739">
        <ele>1194</ele>
        <time>2018-04-29T11:10:42Z</time>
      </trkpt>
      <trkpt lat="44.84898" lon="3.49733">
        <ele>1194</ele>
        <time>2018-04-29T11:10:50Z</time>
      </trkpt>
      <trkpt lat="44.84888" lon="3.4973">
        <ele>1195</ele>
        <time>2018-04-29T11:11:00Z</time>
      </trkpt>
      <trkpt lat="44.84878" lon="3.4973">
        <ele>1198</ele>
        <time>2018-04-29T11:11:10Z</time>
      </trkpt>
      <trkpt lat="44.84869" lon="3.49735">
        <ele>1200</ele>
        <time>2018-04-29T11:11:21Z</time>
      </trkpt>
      <trkpt lat="44.84863" lon="3.49735">
        <ele>1200</ele>
        <time>2018-04-29T11:11:25Z</time>
      </trkpt>
      <trkpt lat="44.84859" lon="3.4973">
        <ele>1200</ele>
        <time>2018-04-29T11:11:30Z</time>
      </trkpt>
      <trkpt lat="44.84841" lon="3.49711">
        <ele>1203</ele>
        <time>2018-04-29T11:11:52Z</time>
      </trkpt>
      <trkpt lat="44.84832" lon="3.49702">
        <ele>1202</ele>
        <time>2018-04-29T11:12:01Z</time>
      </trkpt>
      <trkpt lat="44.84828" lon="3.497">
        <ele>1202</ele>
        <time>2018-04-29T11:12:05Z</time>
      </trkpt>
      <trkpt lat="44.84817" lon="3.49685">
        <ele>1202</ele>
        <time>2018-04-29T11:12:17Z</time>
      </trkpt>
      <trkpt lat="44.84814" lon="3.49679">
        <ele>1202</ele>
        <time>2018-04-29T11:12:21Z</time>
      </trkpt>
      <trkpt lat="44.84811" lon="3.49675">
        <ele>1203</ele>
        <time>2018-04-29T11:12:25Z</time>
      </trkpt>
      <trkpt lat="44.84804" lon="3.49665">
        <ele>1202</ele>
        <time>2018-04-29T11:12:33Z</time>
      </trkpt>
      <trkpt lat="44.84799" lon="3.49663">
        <ele>1203</ele>
        <time>2018-04-29T11:12:37Z</time>
      </trkpt>
      <trkpt lat="44.84794" lon="3.49661">
        <ele>1202</ele>
        <time>2018-04-29T11:12:41Z</time>
      </trkpt>
      <trkpt lat="44.8479" lon="3.49663">
        <ele>1202</ele>
        <time>2018-04-29T11:12:45Z</time>
      </trkpt>
      <trkpt lat="44.84781" lon="3.49668">
        <ele>1202</ele>
        <time>2018-04-29T11:12:53Z</time>
      </trkpt>
      <trkpt lat="44.84765" lon="3.49686">
        <ele>1202</ele>
        <time>2018-04-29T11:13:09Z</time>
      </trkpt>
      <trkpt lat="44.84761" lon="3.49689">
        <ele>1203</ele>
        <time>2018-04-29T11:13:13Z</time>
      </trkpt>
      <trkpt lat="44.84757" lon="3.49693">
        <ele>1203</ele>
        <time>2018-04-29T11:13:17Z</time>
      </trkpt>
      <trkpt lat="44.84745" lon="3.49709">
        <ele>1202</ele>
        <time>2018-04-29T11:13:30Z</time>
      </trkpt>
      <trkpt lat="44.84741" lon="3.49712">
        <ele>1203</ele>
        <time>2018-04-29T11:13:34Z</time>
      </trkpt>
      <trkpt lat="44.84737" lon="3.49715">
        <ele>1203</ele>
        <time>2018-04-29T11:13:38Z</time>
      </trkpt>
      <trkpt lat="44.84731" lon="3.49727">
        <ele>1203</ele>
        <time>2018-04-29T11:13:46Z</time>
      </trkpt>
      <trkpt lat="44.84727" lon="3.49732">
        <ele>1203</ele>
        <time>2018-04-29T11:13:50Z</time>
      </trkpt>
      <trkpt lat="44.84723" lon="3.49736">
        <ele>1203</ele>
        <time>2018-04-29T11:13:54Z</time>
      </trkpt>
      <trkpt lat="44.84714" lon="3.49742">
        <ele>1202</ele>
        <time>2018-04-29T11:14:02Z</time>
      </trkpt>
      <trkpt lat="44.8471" lon="3.49745">
        <ele>1202</ele>
        <time>2018-04-29T11:14:06Z</time>
      </trkpt>
      <trkpt lat="44.84701" lon="3.49753">
        <ele>1201</ele>
        <time>2018-04-29T11:14:13Z</time>
      </trkpt>
      <trkpt lat="44.84693" lon="3.49761">
        <ele>1202</ele>
        <time>2018-04-29T11:14:20Z</time>
      </trkpt>
      <trkpt lat="44.84683" lon="3.49768">
        <ele>1201</ele>
        <time>2018-04-29T11:14:29Z</time>
      </trkpt>
      <trkpt lat="44.84679" lon="3.49771">
        <ele>1201</ele>
        <time>2018-04-29T11:14:33Z</time>
      </trkpt>
      <trkpt lat="44.84669" lon="3.49775">
        <ele>1201</ele>
        <time>2018-04-29T11:14:41Z</time>
      </trkpt>
      <trkpt lat="44.8466" lon="3.4978">
        <ele>1201</ele>
        <time>2018-04-29T11:14:49Z</time>
      </trkpt>
      <trkpt lat="44.84655" lon="3.4978">
        <ele>1201</ele>
        <time>2018-04-29T11:14:53Z</time>
      </trkpt>
      <trkpt lat="44.8465" lon="3.4978">
        <ele>1201</ele>
        <time>2018-04-29T11:14:57Z</time>
      </trkpt>
      <trkpt lat="44.84645" lon="3.49785">
        <ele>1202</ele>
        <time>2018-04-29T11:15:01Z</time>
      </trkpt>
      <trkpt lat="44.8464" lon="3.49785">
        <ele>1202</ele>
        <time>2018-04-29T11:15:05Z</time>
      </trkpt>
      <trkpt lat="44.84636" lon="3.49786">
        <ele>1202</ele>
        <time>2018-04-29T11:15:09Z</time>
      </trkpt>
      <trkpt lat="44.84627" lon="3.49792">
        <ele>1203</ele>
        <time>2018-04-29T11:15:15Z</time>
      </trkpt>
      <trkpt lat="44.84623" lon="3.49796">
        <ele>1203</ele>
        <time>2018-04-29T11:15:18Z</time>
      </trkpt>
      <trkpt lat="44.84619" lon="3.49797">
        <ele>1202</ele>
        <time>2018-04-29T11:15:23Z</time>
      </trkpt>
      <trkpt lat="44.84613" lon="3.498">
        <ele>1203</ele>
        <time>2018-04-29T11:15:28Z</time>
      </trkpt>
      <trkpt lat="44.84605" lon="3.49805">
        <ele>1203</ele>
        <time>2018-04-29T11:15:35Z</time>
      </trkpt>
      <trkpt lat="44.84601" lon="3.49807">
        <ele>1203</ele>
        <time>2018-04-29T11:15:40Z</time>
      </trkpt>
      <trkpt lat="44.84586" lon="3.49813">
        <ele>1205</ele>
        <time>2018-04-29T11:16:14Z</time>
      </trkpt>
      <trkpt lat="44.84579" lon="3.49814">
        <ele>1205</ele>
        <time>2018-04-29T11:16:20Z</time>
      </trkpt>
      <trkpt lat="44.84574" lon="3.49817">
        <ele>1206</ele>
        <time>2018-04-29T11:16:24Z</time>
      </trkpt>
      <trkpt lat="44.84569" lon="3.49819">
        <ele>1206</ele>
        <time>2018-04-29T11:16:28Z</time>
      </trkpt>
      <trkpt lat="44.84563" lon="3.49819">
        <ele>1206</ele>
        <time>2018-04-29T11:16:32Z</time>
      </trkpt>
      <trkpt lat="44.8456" lon="3.49822">
        <ele>1206</ele>
        <time>2018-04-29T11:16:35Z</time>
      </trkpt>
      <trkpt lat="44.84555" lon="3.49823">
        <ele>1206</ele>
        <time>2018-04-29T11:16:39Z</time>
      </trkpt>
      <trkpt lat="44.84545" lon="3.49826">
        <ele>1206</ele>
        <time>2018-04-29T11:16:47Z</time>
      </trkpt>
      <trkpt lat="44.84539" lon="3.49827">
        <ele>1206</ele>
        <time>2018-04-29T11:16:52Z</time>
      </trkpt>
      <trkpt lat="44.8453" lon="3.49825">
        <ele>1206</ele>
        <time>2018-04-29T11:17:00Z</time>
      </trkpt>
      <trkpt lat="44.84519" lon="3.49828">
        <ele>1207</ele>
        <time>2018-04-29T11:17:09Z</time>
      </trkpt>
      <trkpt lat="44.84515" lon="3.49832">
        <ele>1207</ele>
        <time>2018-04-29T11:17:14Z</time>
      </trkpt>
      <trkpt lat="44.84502" lon="3.49843">
        <ele>1208</ele>
        <time>2018-04-29T11:17:29Z</time>
      </trkpt>
      <trkpt lat="44.84497" lon="3.49851">
        <ele>1211</ele>
        <time>2018-04-29T11:17:38Z</time>
      </trkpt>
      <trkpt lat="44.84491" lon="3.49854">
        <ele>1213</ele>
        <time>2018-04-29T11:17:49Z</time>
      </trkpt>
      <trkpt lat="44.84483" lon="3.49855">
        <ele>1213</ele>
        <time>2018-04-29T11:17:58Z</time>
      </trkpt>
      <trkpt lat="44.84475" lon="3.4986">
        <ele>1215</ele>
        <time>2018-04-29T11:18:18Z</time>
      </trkpt>
      <trkpt lat="44.84465" lon="3.4986">
        <ele>1215</ele>
        <time>2018-04-29T11:18:24Z</time>
      </trkpt>
      <trkpt lat="44.84438" lon="3.49848">
        <ele>1216</ele>
        <time>2018-04-29T11:18:55Z</time>
      </trkpt>
      <trkpt lat="44.84431" lon="3.49841">
        <ele>1216</ele>
        <time>2018-04-29T11:19:04Z</time>
      </trkpt>
      <trkpt lat="44.84415" lon="3.49833">
        <ele>1219</ele>
        <time>2018-04-29T11:19:21Z</time>
      </trkpt>
      <trkpt lat="44.84404" lon="3.49827">
        <ele>1219</ele>
        <time>2018-04-29T11:19:32Z</time>
      </trkpt>
      <trkpt lat="44.84395" lon="3.49827">
        <ele>1219</ele>
        <time>2018-04-29T11:19:39Z</time>
      </trkpt>
      <trkpt lat="44.84385" lon="3.49826">
        <ele>1218</ele>
        <time>2018-04-29T11:19:47Z</time>
      </trkpt>
      <trkpt lat="44.84362" lon="3.49816">
        <ele>1217</ele>
        <time>2018-04-29T11:20:10Z</time>
      </trkpt>
      <trkpt lat="44.84352" lon="3.49815">
        <ele>1217</ele>
        <time>2018-04-29T11:20:19Z</time>
      </trkpt>
      <trkpt lat="44.84333" lon="3.49814">
        <ele>1217</ele>
        <time>2018-04-29T11:20:42Z</time>
      </trkpt>
      <trkpt lat="44.84327" lon="3.49822">
        <ele>1218</ele>
        <time>2018-04-29T11:20:49Z</time>
      </trkpt>
      <trkpt lat="44.84314" lon="3.49826">
        <ele>1218</ele>
        <time>2018-04-29T11:20:59Z</time>
      </trkpt>
      <trkpt lat="44.84304" lon="3.49825">
        <ele>1218</ele>
        <time>2018-04-29T11:21:07Z</time>
      </trkpt>
      <trkpt lat="44.84296" lon="3.4982">
        <ele>1218</ele>
        <time>2018-04-29T11:21:11Z</time>
      </trkpt>
      <trkpt lat="44.8429" lon="3.49811">
        <ele>1217</ele>
        <time>2018-04-29T11:21:17Z</time>
      </trkpt>
      <trkpt lat="44.84284" lon="3.49818">
        <ele>1218</ele>
        <time>2018-04-29T11:21:59Z</time>
      </trkpt>
      <trkpt lat="44.84286" lon="3.49809">
        <ele>1219</ele>
        <time>2018-04-29T11:22:17Z</time>
      </trkpt>
      <trkpt lat="44.84272" lon="3.49793">
        <ele>1220</ele>
        <time>2018-04-29T11:22:46Z</time>
      </trkpt>
      <trkpt lat="44.84268" lon="3.49787">
        <ele>1221</ele>
        <time>2018-04-29T11:22:49Z</time>
      </trkpt>
      <trkpt lat="44.84262" lon="3.49767">
        <ele>1223</ele>
        <time>2018-04-29T11:22:59Z</time>
      </trkpt>
      <trkpt lat="44.84261" lon="3.49753">
        <ele>1224</ele>
        <time>2018-04-29T11:23:07Z</time>
      </trkpt>
      <trkpt lat="44.84258" lon="3.49741">
        <ele>1224</ele>
        <time>2018-04-29T11:23:16Z</time>
      </trkpt>
      <trkpt lat="44.84257" lon="3.49728">
        <ele>1224</ele>
        <time>2018-04-29T11:23:26Z</time>
      </trkpt>
      <trkpt lat="44.84249" lon="3.49714">
        <ele>1224</ele>
        <time>2018-04-29T11:23:37Z</time>
      </trkpt>
      <trkpt lat="44.84244" lon="3.49702">
        <ele>1223</ele>
        <time>2018-04-29T11:23:45Z</time>
      </trkpt>
      <trkpt lat="44.84232" lon="3.4967">
        <ele>1223</ele>
        <time>2018-04-29T11:24:16Z</time>
      </trkpt>
      <trkpt lat="44.84224" lon="3.49657">
        <ele>1224</ele>
        <time>2018-04-29T11:24:27Z</time>
      </trkpt>
      <trkpt lat="44.84216" lon="3.49631">
        <ele>1224</ele>
        <time>2018-04-29T11:24:41Z</time>
      </trkpt>
      <trkpt lat="44.8421" lon="3.49621">
        <ele>1225</ele>
        <time>2018-04-29T11:24:49Z</time>
      </trkpt>
      <trkpt lat="44.84186" lon="3.4959">
        <ele>1228</ele>
        <time>2018-04-29T11:25:27Z</time>
      </trkpt>
      <trkpt lat="44.84178" lon="3.49581">
        <ele>1229</ele>
        <time>2018-04-29T11:25:37Z</time>
      </trkpt>
      <trkpt lat="44.84173" lon="3.4957">
        <ele>1229</ele>
        <time>2018-04-29T11:25:45Z</time>
      </trkpt>
      <trkpt lat="44.84164" lon="3.49562">
        <ele>1230</ele>
        <time>2018-04-29T11:25:57Z</time>
      </trkpt>
      <trkpt lat="44.84161" lon="3.49548">
        <ele>1230</ele>
        <time>2018-04-29T11:26:07Z</time>
      </trkpt>
      <trkpt lat="44.84154" lon="3.49538">
        <ele>1230</ele>
        <time>2018-04-29T11:26:15Z</time>
      </trkpt>
      <trkpt lat="44.84136" lon="3.49519">
        <ele>1232</ele>
        <time>2018-04-29T11:26:46Z</time>
      </trkpt>
      <trkpt lat="44.84108" lon="3.4952">
        <ele>1238</ele>
        <time>2018-04-29T11:27:22Z</time>
      </trkpt>
      <trkpt lat="44.841" lon="3.49517">
        <ele>1240</ele>
        <time>2018-04-29T11:27:58Z</time>
      </trkpt>
      <trkpt lat="44.8409" lon="3.49523">
        <ele>1240</ele>
        <time>2018-04-29T11:28:10Z</time>
      </trkpt>
      <trkpt lat="44.84081" lon="3.4952">
        <ele>1244</ele>
        <time>2018-04-29T11:28:20Z</time>
      </trkpt>
      <trkpt lat="44.84062" lon="3.49526">
        <ele>1245</ele>
        <time>2018-04-29T11:28:38Z</time>
      </trkpt>
      <trkpt lat="44.84052" lon="3.49537">
        <ele>1248</ele>
        <time>2018-04-29T11:30:04Z</time>
      </trkpt>
      <trkpt lat="44.84038" lon="3.49546">
        <ele>1250</ele>
        <time>2018-04-29T11:30:20Z</time>
      </trkpt>
      <trkpt lat="44.8403" lon="3.49552">
        <ele>1251</ele>
        <time>2018-04-29T11:30:29Z</time>
      </trkpt>
      <trkpt lat="44.84021" lon="3.49565">
        <ele>1254</ele>
        <time>2018-04-29T11:30:46Z</time>
      </trkpt>
      <trkpt lat="44.84004" lon="3.49574">
        <ele>1256</ele>
        <time>2018-04-29T11:31:08Z</time>
      </trkpt>
      <trkpt lat="44.83972" lon="3.49576">
        <ele>1259</ele>
        <time>2018-04-29T11:31:43Z</time>
      </trkpt>
      <trkpt lat="44.83964" lon="3.49569">
        <ele>1259</ele>
        <time>2018-04-29T11:31:50Z</time>
      </trkpt>
      <trkpt lat="44.83935" lon="3.49559">
        <ele>1261</ele>
        <time>2018-04-29T11:32:21Z</time>
      </trkpt>
      <trkpt lat="44.83922" lon="3.49557">
        <ele>1263</ele>
        <time>2018-04-29T11:32:34Z</time>
      </trkpt>
      <trkpt lat="44.83913" lon="3.49554">
        <ele>1263</ele>
        <time>2018-04-29T11:32:43Z</time>
      </trkpt>
      <trkpt lat="44.839" lon="3.49552">
        <ele>1265</ele>
        <time>2018-04-29T11:32:59Z</time>
      </trkpt>
      <trkpt lat="44.8389" lon="3.49556">
        <ele>1266</ele>
        <time>2018-04-29T11:33:23Z</time>
      </trkpt>
      <trkpt lat="44.83881" lon="3.49562">
        <ele>1268</ele>
        <time>2018-04-29T11:33:35Z</time>
      </trkpt>
      <trkpt lat="44.83848" lon="3.49568">
        <ele>1273</ele>
        <time>2018-04-29T11:34:21Z</time>
      </trkpt>
      <trkpt lat="44.83838" lon="3.4957">
        <ele>1274</ele>
        <time>2018-04-29T11:34:32Z</time>
      </trkpt>
      <trkpt lat="44.83829" lon="3.49576">
        <ele>1276</ele>
        <time>2018-04-29T11:34:44Z</time>
      </trkpt>
      <trkpt lat="44.83819" lon="3.49574">
        <ele>1276</ele>
        <time>2018-04-29T11:34:51Z</time>
      </trkpt>
      <trkpt lat="44.83781" lon="3.49581">
        <ele>1279</ele>
        <time>2018-04-29T11:35:24Z</time>
      </trkpt>
      <trkpt lat="44.83763" lon="3.4958">
        <ele>1281</ele>
        <time>2018-04-29T11:35:42Z</time>
      </trkpt>
      <trkpt lat="44.83743" lon="3.49575">
        <ele>1283</ele>
        <time>2018-04-29T11:36:03Z</time>
      </trkpt>
      <trkpt lat="44.83731" lon="3.49575">
        <ele>1284</ele>
        <time>2018-04-29T11:36:14Z</time>
      </trkpt>
      <trkpt lat="44.83721" lon="3.49573">
        <ele>1284</ele>
        <time>2018-04-29T11:36:23Z</time>
      </trkpt>
      <trkpt lat="44.83712" lon="3.49573">
        <ele>1285</ele>
        <time>2018-04-29T11:36:33Z</time>
      </trkpt>
      <trkpt lat="44.83696" lon="3.49568">
        <ele>1286</ele>
        <time>2018-04-29T11:36:49Z</time>
      </trkpt>
      <trkpt lat="44.83667" lon="3.49566">
        <ele>1287</ele>
        <time>2018-04-29T11:37:13Z</time>
      </trkpt>
      <trkpt lat="44.83657" lon="3.49567">
        <ele>1287</ele>
        <time>2018-04-29T11:37:23Z</time>
      </trkpt>
      <trkpt lat="44.83649" lon="3.49565">
        <ele>1288</ele>
        <time>2018-04-29T11:37:32Z</time>
      </trkpt>
      <trkpt lat="44.83629" lon="3.49562">
        <ele>1289</ele>
        <time>2018-04-29T11:37:51Z</time>
      </trkpt>
      <trkpt lat="44.83617" lon="3.49557">
        <ele>1289</ele>
        <time>2018-04-29T11:38:03Z</time>
      </trkpt>
      <trkpt lat="44.83589" lon="3.4955">
        <ele>1290</ele>
        <time>2018-04-29T11:38:29Z</time>
      </trkpt>
      <trkpt lat="44.83579" lon="3.49551">
        <ele>1291</ele>
        <time>2018-04-29T11:38:38Z</time>
      </trkpt>
      <trkpt lat="44.8357" lon="3.4955">
        <ele>1290</ele>
        <time>2018-04-29T11:38:46Z</time>
      </trkpt>
      <trkpt lat="44.83561" lon="3.49545">
        <ele>1290</ele>
        <time>2018-04-29T11:38:54Z</time>
      </trkpt>
      <trkpt lat="44.8355" lon="3.49544">
        <ele>1291</ele>
        <time>2018-04-29T11:39:05Z</time>
      </trkpt>
      <trkpt lat="44.83531" lon="3.49551">
        <ele>1292</ele>
        <time>2018-04-29T11:39:22Z</time>
      </trkpt>
      <trkpt lat="44.83522" lon="3.49554">
        <ele>1293</ele>
        <time>2018-04-29T11:39:35Z</time>
      </trkpt>
      <trkpt lat="44.83518" lon="3.49561">
        <ele>1294</ele>
        <time>2018-04-29T11:39:53Z</time>
      </trkpt>
      <trkpt lat="44.8352" lon="3.4957">
        <ele>1296</ele>
        <time>2018-04-29T11:40:05Z</time>
      </trkpt>
      <trkpt lat="44.83524" lon="3.49574">
        <ele>1295</ele>
        <time>2018-04-29T11:40:23Z</time>
      </trkpt>
      <trkpt lat="44.83516" lon="3.49584">
        <ele>1295</ele>
        <time>2018-04-29T11:41:43Z</time>
      </trkpt>
      <trkpt lat="44.83516" lon="3.49604">
        <ele>1297</ele>
        <time>2018-04-29T11:42:03Z</time>
      </trkpt>
      <trkpt lat="44.83515" lon="3.49626">
        <ele>1299</ele>
        <time>2018-04-29T11:42:22Z</time>
      </trkpt>
      <trkpt lat="44.83512" lon="3.49637">
        <ele>1301</ele>
        <time>2018-04-29T11:42:40Z</time>
      </trkpt>
      <trkpt lat="44.83512" lon="3.49644">
        <ele>1302</ele>
        <time>2018-04-29T11:42:45Z</time>
      </trkpt>
      <trkpt lat="44.83512" lon="3.49651">
        <ele>1302</ele>
        <time>2018-04-29T11:42:50Z</time>
      </trkpt>
      <trkpt lat="44.83509" lon="3.4966">
        <ele>1302</ele>
        <time>2018-04-29T11:42:58Z</time>
      </trkpt>
      <trkpt lat="44.83509" lon="3.49677">
        <ele>1304</ele>
        <time>2018-04-29T11:43:12Z</time>
      </trkpt>
      <trkpt lat="44.83511" lon="3.4969">
        <ele>1306</ele>
        <time>2018-04-29T11:43:20Z</time>
      </trkpt>
      <trkpt lat="44.83511" lon="3.49696">
        <ele>1306</ele>
        <time>2018-04-29T11:43:24Z</time>
      </trkpt>
      <trkpt lat="44.83508" lon="3.49702">
        <ele>1306</ele>
        <time>2018-04-29T11:43:29Z</time>
      </trkpt>
      <trkpt lat="44.83506" lon="3.49717">
        <ele>1308</ele>
        <time>2018-04-29T11:43:52Z</time>
      </trkpt>
      <trkpt lat="44.83507" lon="3.49732">
        <ele>1311</ele>
        <time>2018-04-29T11:44:07Z</time>
      </trkpt>
      <trkpt lat="44.83498" lon="3.49746">
        <ele>1314</ele>
        <time>2018-04-29T11:44:22Z</time>
      </trkpt>
      <trkpt lat="44.8349" lon="3.49754">
        <ele>1314</ele>
        <time>2018-04-29T11:44:36Z</time>
      </trkpt>
      <trkpt lat="44.83479" lon="3.49752">
        <ele>1315</ele>
        <time>2018-04-29T11:44:45Z</time>
      </trkpt>
      <trkpt lat="44.8347" lon="3.49754">
        <ele>1314</ele>
        <time>2018-04-29T11:44:54Z</time>
      </trkpt>
      <trkpt lat="44.83421" lon="3.49744">
        <ele>1311</ele>
        <time>2018-04-29T11:45:31Z</time>
      </trkpt>
      <trkpt lat="44.83411" lon="3.49745">
        <ele>1310</ele>
        <time>2018-04-29T11:45:38Z</time>
      </trkpt>
      <trkpt lat="44.83402" lon="3.49741">
        <ele>1311</ele>
        <time>2018-04-29T11:45:45Z</time>
      </trkpt>
      <trkpt lat="44.83392" lon="3.49739">
        <ele>1310</ele>
        <time>2018-04-29T11:45:52Z</time>
      </trkpt>
      <trkpt lat="44.83383" lon="3.49737">
        <ele>1310</ele>
        <time>2018-04-29T11:45:59Z</time>
      </trkpt>
      <trkpt lat="44.83361" lon="3.49728">
        <ele>1309</ele>
        <time>2018-04-29T11:46:21Z</time>
      </trkpt>
      <trkpt lat="44.83352" lon="3.49724">
        <ele>1310</ele>
        <time>2018-04-29T11:46:30Z</time>
      </trkpt>
      <trkpt lat="44.83333" lon="3.4972">
        <ele>1310</ele>
        <time>2018-04-29T11:46:42Z</time>
      </trkpt>
      <trkpt lat="44.83324" lon="3.49716">
        <ele>1311</ele>
        <time>2018-04-29T11:46:50Z</time>
      </trkpt>
      <trkpt lat="44.83315" lon="3.49715">
        <ele>1311</ele>
        <time>2018-04-29T11:46:58Z</time>
      </trkpt>
      <trkpt lat="44.83271" lon="3.49704">
        <ele>1314</ele>
        <time>2018-04-29T11:47:36Z</time>
      </trkpt>
      <trkpt lat="44.83258" lon="3.49702">
        <ele>1315</ele>
        <time>2018-04-29T11:47:52Z</time>
      </trkpt>
      <trkpt lat="44.83249" lon="3.49697">
        <ele>1315</ele>
        <time>2018-04-29T11:48:00Z</time>
      </trkpt>
      <trkpt lat="44.8324" lon="3.49696">
        <ele>1316</ele>
        <time>2018-04-29T11:48:10Z</time>
      </trkpt>
      <trkpt lat="44.83221" lon="3.49695">
        <ele>1316</ele>
        <time>2018-04-29T11:48:27Z</time>
      </trkpt>
      <trkpt lat="44.83214" lon="3.49686">
        <ele>1316</ele>
        <time>2018-04-29T11:48:31Z</time>
      </trkpt>
      <trkpt lat="44.83195" lon="3.4968">
        <ele>1318</ele>
        <time>2018-04-29T11:48:46Z</time>
      </trkpt>
      <trkpt lat="44.83186" lon="3.49675">
        <ele>1318</ele>
        <time>2018-04-29T11:48:53Z</time>
      </trkpt>
      <trkpt lat="44.83177" lon="3.49671">
        <ele>1317</ele>
        <time>2018-04-29T11:49:01Z</time>
      </trkpt>
      <trkpt lat="44.83168" lon="3.49665">
        <ele>1317</ele>
        <time>2018-04-29T11:49:10Z</time>
      </trkpt>
      <trkpt lat="44.8315" lon="3.49659">
        <ele>1317</ele>
        <time>2018-04-29T11:49:25Z</time>
      </trkpt>
      <trkpt lat="44.83121" lon="3.49656">
        <ele>1318</ele>
        <time>2018-04-29T11:49:48Z</time>
      </trkpt>
      <trkpt lat="44.83093" lon="3.49646">
        <ele>1320</ele>
        <time>2018-04-29T11:50:16Z</time>
      </trkpt>
      <trkpt lat="44.83073" lon="3.49638">
        <ele>1319</ele>
        <time>2018-04-29T11:50:34Z</time>
      </trkpt>
      <trkpt lat="44.83068" lon="3.49635">
        <ele>1320</ele>
        <time>2018-04-29T11:50:38Z</time>
      </trkpt>
      <trkpt lat="44.83064" lon="3.49632">
        <ele>1321</ele>
        <time>2018-04-29T11:50:43Z</time>
      </trkpt>
      <trkpt lat="44.83058" lon="3.49627">
        <ele>1321</ele>
        <time>2018-04-29T11:50:50Z</time>
      </trkpt>
      <trkpt lat="44.83053" lon="3.49625">
        <ele>1321</ele>
        <time>2018-04-29T11:50:55Z</time>
      </trkpt>
      <trkpt lat="44.83048" lon="3.49624">
        <ele>1322</ele>
        <time>2018-04-29T11:50:59Z</time>
      </trkpt>
      <trkpt lat="44.83038" lon="3.4962">
        <ele>1321</ele>
        <time>2018-04-29T11:51:07Z</time>
      </trkpt>
      <trkpt lat="44.83029" lon="3.49618">
        <ele>1321</ele>
        <time>2018-04-29T11:51:13Z</time>
      </trkpt>
      <trkpt lat="44.83024" lon="3.49618">
        <ele>1321</ele>
        <time>2018-04-29T11:51:17Z</time>
      </trkpt>
      <trkpt lat="44.83004" lon="3.49611">
        <ele>1320</ele>
        <time>2018-04-29T11:51:35Z</time>
      </trkpt>
      <trkpt lat="44.83003" lon="3.49603">
        <ele>1319</ele>
        <time>2018-04-29T11:51:40Z</time>
      </trkpt>
      <trkpt lat="44.83007" lon="3.49599">
        <ele>1319</ele>
        <time>2018-04-29T11:51:44Z</time>
      </trkpt>
      <trkpt lat="44.83016" lon="3.49591">
        <ele>1319</ele>
        <time>2018-04-29T11:51:52Z</time>
      </trkpt>
      <trkpt lat="44.83022" lon="3.4958">
        <ele>1319</ele>
        <time>2018-04-29T11:51:59Z</time>
      </trkpt>
      <trkpt lat="44.83034" lon="3.49568">
        <ele>1317</ele>
        <time>2018-04-29T11:52:11Z</time>
      </trkpt>
      <trkpt lat="44.83042" lon="3.49559">
        <ele>1317</ele>
        <time>2018-04-29T11:52:19Z</time>
      </trkpt>
      <trkpt lat="44.83052" lon="3.49554">
        <ele>1317</ele>
        <time>2018-04-29T11:52:27Z</time>
      </trkpt>
      <trkpt lat="44.83056" lon="3.49551">
        <ele>1316</ele>
        <time>2018-04-29T11:52:31Z</time>
      </trkpt>
      <trkpt lat="44.83064" lon="3.49531">
        <ele>1315</ele>
        <time>2018-04-29T11:52:43Z</time>
      </trkpt>
      <trkpt lat="44.83075" lon="3.49495">
        <ele>1315</ele>
        <time>2018-04-29T11:53:03Z</time>
      </trkpt>
      <trkpt lat="44.83076" lon="3.49488">
        <ele>1316</ele>
        <time>2018-04-29T11:53:07Z</time>
      </trkpt>
      <trkpt lat="44.83077" lon="3.49481">
        <ele>1315</ele>
        <time>2018-04-29T11:53:11Z</time>
      </trkpt>
      <trkpt lat="44.83079" lon="3.49468">
        <ele>1314</ele>
        <time>2018-04-29T11:53:19Z</time>
      </trkpt>
      <trkpt lat="44.8308" lon="3.49461">
        <ele>1314</ele>
        <time>2018-04-29T11:53:23Z</time>
      </trkpt>
      <trkpt lat="44.83081" lon="3.49446">
        <ele>1315</ele>
        <time>2018-04-29T11:53:31Z</time>
      </trkpt>
      <trkpt lat="44.83082" lon="3.49417">
        <ele>1313</ele>
        <time>2018-04-29T11:53:47Z</time>
      </trkpt>
      <trkpt lat="44.83082" lon="3.4941">
        <ele>1313</ele>
        <time>2018-04-29T11:53:51Z</time>
      </trkpt>
      <trkpt lat="44.83082" lon="3.49403">
        <ele>1313</ele>
        <time>2018-04-29T11:53:55Z</time>
      </trkpt>
      <trkpt lat="44.83074" lon="3.4937">
        <ele>1311</ele>
        <time>2018-04-29T11:54:15Z</time>
      </trkpt>
      <trkpt lat="44.83071" lon="3.49363">
        <ele>1311</ele>
        <time>2018-04-29T11:54:19Z</time>
      </trkpt>
      <trkpt lat="44.83065" lon="3.49352">
        <ele>1311</ele>
        <time>2018-04-29T11:54:28Z</time>
      </trkpt>
      <trkpt lat="44.8306" lon="3.49343">
        <ele>1310</ele>
        <time>2018-04-29T11:55:16Z</time>
      </trkpt>
      <trkpt lat="44.83057" lon="3.49337">
        <ele>1310</ele>
        <time>2018-04-29T11:55:20Z</time>
      </trkpt>
      <trkpt lat="44.83055" lon="3.49331">
        <ele>1310</ele>
        <time>2018-04-29T11:55:24Z</time>
      </trkpt>
      <trkpt lat="44.83048" lon="3.49319">
        <ele>1309</ele>
        <time>2018-04-29T11:55:32Z</time>
      </trkpt>
      <trkpt lat="44.83046" lon="3.49312">
        <ele>1308</ele>
        <time>2018-04-29T11:55:36Z</time>
      </trkpt>
      <trkpt lat="44.83043" lon="3.49306">
        <ele>1308</ele>
        <time>2018-04-29T11:55:40Z</time>
      </trkpt>
      <trkpt lat="44.83036" lon="3.49287">
        <ele>1307</ele>
        <time>2018-04-29T11:55:52Z</time>
      </trkpt>
      <trkpt lat="44.83035" lon="3.4928">
        <ele>1307</ele>
        <time>2018-04-29T11:55:56Z</time>
      </trkpt>
      <trkpt lat="44.83033" lon="3.49272">
        <ele>1306</ele>
        <time>2018-04-29T11:56:01Z</time>
      </trkpt>
      <trkpt lat="44.83015" lon="3.49229">
        <ele>1304</ele>
        <time>2018-04-29T11:56:31Z</time>
      </trkpt>
      <trkpt lat="44.83012" lon="3.49223">
        <ele>1304</ele>
        <time>2018-04-29T11:56:35Z</time>
      </trkpt>
      <trkpt lat="44.8301" lon="3.49217">
        <ele>1303</ele>
        <time>2018-04-29T11:56:38Z</time>
      </trkpt>
      <trkpt lat="44.82989" lon="3.49181">
        <ele>1299</ele>
        <time>2018-04-29T11:57:09Z</time>
      </trkpt>
      <trkpt lat="44.82974" lon="3.4916">
        <ele>1297</ele>
        <time>2018-04-29T11:57:25Z</time>
      </trkpt>
      <trkpt lat="44.82962" lon="3.49144">
        <ele>1295</ele>
        <time>2018-04-29T11:58:16Z</time>
      </trkpt>
      <trkpt lat="44.82958" lon="3.49139">
        <ele>1294</ele>
        <time>2018-04-29T11:58:20Z</time>
      </trkpt>
      <trkpt lat="44.82954" lon="3.49136">
        <ele>1294</ele>
        <time>2018-04-29T11:58:24Z</time>
      </trkpt>
      <trkpt lat="44.8295" lon="3.49132">
        <ele>1294</ele>
        <time>2018-04-29T11:58:28Z</time>
      </trkpt>
      <trkpt lat="44.82946" lon="3.49128">
        <ele>1294</ele>
        <time>2018-04-29T11:58:33Z</time>
      </trkpt>
      <trkpt lat="44.82942" lon="3.49125">
        <ele>1294</ele>
        <time>2018-04-29T11:58:37Z</time>
      </trkpt>
      <trkpt lat="44.82938" lon="3.49122">
        <ele>1292</ele>
        <time>2018-04-29T11:58:41Z</time>
      </trkpt>
      <trkpt lat="44.82933" lon="3.4912">
        <ele>1292</ele>
        <time>2018-04-29T11:58:45Z</time>
      </trkpt>
      <trkpt lat="44.82928" lon="3.49117">
        <ele>1292</ele>
        <time>2018-04-29T11:58:49Z</time>
      </trkpt>
      <trkpt lat="44.82914" lon="3.49108">
        <ele>1291</ele>
        <time>2018-04-29T11:59:01Z</time>
      </trkpt>
      <trkpt lat="44.82905" lon="3.49105">
        <ele>1290</ele>
        <time>2018-04-29T11:59:09Z</time>
      </trkpt>
      <trkpt lat="44.829" lon="3.49103">
        <ele>1290</ele>
        <time>2018-04-29T11:59:13Z</time>
      </trkpt>
      <trkpt lat="44.82869" lon="3.49093">
        <ele>1289</ele>
        <time>2018-04-29T11:59:37Z</time>
      </trkpt>
      <trkpt lat="44.82865" lon="3.4909">
        <ele>1288</ele>
        <time>2018-04-29T11:59:41Z</time>
      </trkpt>
      <trkpt lat="44.82855" lon="3.49085">
        <ele>1289</ele>
        <time>2018-04-29T11:59:49Z</time>
      </trkpt>
      <trkpt lat="44.82851" lon="3.49084">
        <ele>1289</ele>
        <time>2018-04-29T11:59:53Z</time>
      </trkpt>
      <trkpt lat="44.82846" lon="3.49083">
        <ele>1289</ele>
        <time>2018-04-29T11:59:57Z</time>
      </trkpt>
      <trkpt lat="44.82842" lon="3.4908">
        <ele>1289</ele>
        <time>2018-04-29T12:00:01Z</time>
      </trkpt>
      <trkpt lat="44.82837" lon="3.49077">
        <ele>1290</ele>
        <time>2018-04-29T12:00:06Z</time>
      </trkpt>
      <trkpt lat="44.82827" lon="3.49071">
        <ele>1290</ele>
        <time>2018-04-29T12:00:16Z</time>
      </trkpt>
      <trkpt lat="44.82812" lon="3.49065">
        <ele>1291</ele>
        <time>2018-04-29T12:00:30Z</time>
      </trkpt>
      <trkpt lat="44.82807" lon="3.49063">
        <ele>1293</ele>
        <time>2018-04-29T12:00:44Z</time>
      </trkpt>
      <trkpt lat="44.82801" lon="3.49062">
        <ele>1293</ele>
        <time>2018-04-29T12:01:00Z</time>
      </trkpt>
      <trkpt lat="44.82791" lon="3.49061">
        <ele>1295</ele>
        <time>2018-04-29T12:01:09Z</time>
      </trkpt>
      <trkpt lat="44.82786" lon="3.49062">
        <ele>1295</ele>
        <time>2018-04-29T12:01:14Z</time>
      </trkpt>
      <trkpt lat="44.82781" lon="3.49063">
        <ele>1294</ele>
        <time>2018-04-29T12:01:19Z</time>
      </trkpt>
      <trkpt lat="44.82771" lon="3.4907">
        <ele>1295</ele>
        <time>2018-04-29T12:01:29Z</time>
      </trkpt>
      <trkpt lat="44.82761" lon="3.49078">
        <ele>1297</ele>
        <time>2018-04-29T12:01:41Z</time>
      </trkpt>
      <trkpt lat="44.82757" lon="3.49082">
        <ele>1297</ele>
        <time>2018-04-29T12:01:46Z</time>
      </trkpt>
      <trkpt lat="44.82745" lon="3.49094">
        <ele>1299</ele>
        <time>2018-04-29T12:02:00Z</time>
      </trkpt>
      <trkpt lat="44.82741" lon="3.49098">
        <ele>1299</ele>
        <time>2018-04-29T12:02:05Z</time>
      </trkpt>
      <trkpt lat="44.82721" lon="3.49117">
        <ele>1300</ele>
        <time>2018-04-29T12:02:26Z</time>
      </trkpt>
      <trkpt lat="44.82716" lon="3.49119">
        <ele>1300</ele>
        <time>2018-04-29T12:02:30Z</time>
      </trkpt>
      <trkpt lat="44.82712" lon="3.49121">
        <ele>1300</ele>
        <time>2018-04-29T12:02:34Z</time>
      </trkpt>
      <trkpt lat="44.82703" lon="3.49121">
        <ele>1300</ele>
        <time>2018-04-29T12:02:42Z</time>
      </trkpt>
      <trkpt lat="44.82698" lon="3.49119">
        <ele>1300</ele>
        <time>2018-04-29T12:02:46Z</time>
      </trkpt>
      <trkpt lat="44.82693" lon="3.49117">
        <ele>1301</ele>
        <time>2018-04-29T12:02:50Z</time>
      </trkpt>
      <trkpt lat="44.82684" lon="3.49115">
        <ele>1300</ele>
        <time>2018-04-29T12:02:58Z</time>
      </trkpt>
      <trkpt lat="44.82674" lon="3.49111">
        <ele>1299</ele>
        <time>2018-04-29T12:03:06Z</time>
      </trkpt>
      <trkpt lat="44.82669" lon="3.49109">
        <ele>1299</ele>
        <time>2018-04-29T12:03:10Z</time>
      </trkpt>
      <trkpt lat="44.82645" lon="3.49102">
        <ele>1299</ele>
        <time>2018-04-29T12:03:30Z</time>
      </trkpt>
      <trkpt lat="44.82607" lon="3.49087">
        <ele>1297</ele>
        <time>2018-04-29T12:04:02Z</time>
      </trkpt>
      <trkpt lat="44.82592" lon="3.49078">
        <ele>1295</ele>
        <time>2018-04-29T12:04:15Z</time>
      </trkpt>
      <trkpt lat="44.82579" lon="3.4907">
        <ele>1295</ele>
        <time>2018-04-29T12:04:27Z</time>
      </trkpt>
      <trkpt lat="44.8257" lon="3.49064">
        <ele>1295</ele>
        <time>2018-04-29T12:04:35Z</time>
      </trkpt>
      <trkpt lat="44.82565" lon="3.49062">
        <ele>1295</ele>
        <time>2018-04-29T12:04:39Z</time>
      </trkpt>
      <trkpt lat="44.8256" lon="3.4906">
        <ele>1294</ele>
        <time>2018-04-29T12:04:43Z</time>
      </trkpt>
      <trkpt lat="44.82546" lon="3.49053">
        <ele>1294</ele>
        <time>2018-04-29T12:04:55Z</time>
      </trkpt>
      <trkpt lat="44.82542" lon="3.4905">
        <ele>1294</ele>
        <time>2018-04-29T12:04:59Z</time>
      </trkpt>
      <trkpt lat="44.82537" lon="3.49046">
        <ele>1294</ele>
        <time>2018-04-29T12:05:03Z</time>
      </trkpt>
      <trkpt lat="44.82533" lon="3.49043">
        <ele>1293</ele>
        <time>2018-04-29T12:05:07Z</time>
      </trkpt>
      <trkpt lat="44.82528" lon="3.49041">
        <ele>1293</ele>
        <time>2018-04-29T12:05:11Z</time>
      </trkpt>
      <trkpt lat="44.82505" lon="3.49028">
        <ele>1292</ele>
        <time>2018-04-29T12:05:32Z</time>
      </trkpt>
      <trkpt lat="44.82484" lon="3.49012">
        <ele>1292</ele>
        <time>2018-04-29T12:05:53Z</time>
      </trkpt>
      <trkpt lat="44.82477" lon="3.49001">
        <ele>1292</ele>
        <time>2018-04-29T12:06:02Z</time>
      </trkpt>
      <trkpt lat="44.82468" lon="3.48977">
        <ele>1292</ele>
        <time>2018-04-29T12:06:18Z</time>
      </trkpt>
      <trkpt lat="44.82466" lon="3.4897">
        <ele>1291</ele>
        <time>2018-04-29T12:06:23Z</time>
      </trkpt>
      <trkpt lat="44.82455" lon="3.48938">
        <ele>1292</ele>
        <time>2018-04-29T12:06:45Z</time>
      </trkpt>
      <trkpt lat="44.82454" lon="3.48931">
        <ele>1292</ele>
        <time>2018-04-29T12:06:49Z</time>
      </trkpt>
      <trkpt lat="44.8245" lon="3.48919">
        <ele>1293</ele>
        <time>2018-04-29T12:06:57Z</time>
      </trkpt>
      <trkpt lat="44.8245" lon="3.48912">
        <ele>1294</ele>
        <time>2018-04-29T12:07:01Z</time>
      </trkpt>
      <trkpt lat="44.82451" lon="3.48905">
        <ele>1294</ele>
        <time>2018-04-29T12:07:05Z</time>
      </trkpt>
      <trkpt lat="44.82451" lon="3.48898">
        <ele>1293</ele>
        <time>2018-04-29T12:07:09Z</time>
      </trkpt>
      <trkpt lat="44.8245" lon="3.48877">
        <ele>1294</ele>
        <time>2018-04-29T12:07:22Z</time>
      </trkpt>
      <trkpt lat="44.8245" lon="3.4887">
        <ele>1294</ele>
        <time>2018-04-29T12:07:27Z</time>
      </trkpt>
      <trkpt lat="44.82449" lon="3.4884">
        <ele>1294</ele>
        <time>2018-04-29T12:07:44Z</time>
      </trkpt>
      <trkpt lat="44.8245" lon="3.48826">
        <ele>1293</ele>
        <time>2018-04-29T12:07:53Z</time>
      </trkpt>
      <trkpt lat="44.82445" lon="3.48777">
        <ele>1292</ele>
        <time>2018-04-29T12:08:22Z</time>
      </trkpt>
      <trkpt lat="44.82446" lon="3.48769">
        <ele>1292</ele>
        <time>2018-04-29T12:08:27Z</time>
      </trkpt>
      <trkpt lat="44.82445" lon="3.48763">
        <ele>1292</ele>
        <time>2018-04-29T12:08:31Z</time>
      </trkpt>
      <trkpt lat="44.82442" lon="3.48757">
        <ele>1292</ele>
        <time>2018-04-29T12:08:35Z</time>
      </trkpt>
      <trkpt lat="44.82439" lon="3.48753">
        <ele>1292</ele>
        <time>2018-04-29T12:08:39Z</time>
      </trkpt>
      <trkpt lat="44.82429" lon="3.48746">
        <ele>1290</ele>
        <time>2018-04-29T12:08:49Z</time>
      </trkpt>
      <trkpt lat="44.82424" lon="3.48745">
        <ele>1290</ele>
        <time>2018-04-29T12:08:57Z</time>
      </trkpt>
      <trkpt lat="44.82419" lon="3.48747">
        <ele>1290</ele>
        <time>2018-04-29T12:09:02Z</time>
      </trkpt>
      <trkpt lat="44.82413" lon="3.48747">
        <ele>1289</ele>
        <time>2018-04-29T12:09:09Z</time>
      </trkpt>
      <trkpt lat="44.82408" lon="3.48744">
        <ele>1289</ele>
        <time>2018-04-29T12:09:14Z</time>
      </trkpt>
      <trkpt lat="44.82407" lon="3.48737">
        <ele>1288</ele>
        <time>2018-04-29T12:09:19Z</time>
      </trkpt>
      <trkpt lat="44.82409" lon="3.48731">
        <ele>1288</ele>
        <time>2018-04-29T12:09:33Z</time>
      </trkpt>
      <trkpt lat="44.82413" lon="3.48729">
        <ele>1289</ele>
        <time>2018-04-29T12:09:41Z</time>
      </trkpt>
      <trkpt lat="44.8241" lon="3.48724">
        <ele>1287</ele>
        <time>2018-04-29T12:09:59Z</time>
      </trkpt>
      <trkpt lat="44.82408" lon="3.48731">
        <ele>1287</ele>
        <time>2018-04-29T12:10:06Z</time>
      </trkpt>
      <trkpt lat="44.82404" lon="3.48733">
        <ele>1288</ele>
        <time>2018-04-29T12:10:11Z</time>
      </trkpt>
      <trkpt lat="44.82404" lon="3.48725">
        <ele>1287</ele>
        <time>2018-04-29T12:10:16Z</time>
      </trkpt>
      <trkpt lat="44.82408" lon="3.4872">
        <ele>1285</ele>
        <time>2018-04-29T12:10:20Z</time>
      </trkpt>
      <trkpt lat="44.82413" lon="3.48708">
        <ele>1283</ele>
        <time>2018-04-29T12:10:29Z</time>
      </trkpt>
      <trkpt lat="44.82415" lon="3.48701">
        <ele>1284</ele>
        <time>2018-04-29T12:10:34Z</time>
      </trkpt>
      <trkpt lat="44.8242" lon="3.48706">
        <ele>1285</ele>
        <time>2018-04-29T12:10:42Z</time>
      </trkpt>
    </trkseg>
  </trk>
</gpx>